<?xml version="1.0" encoding="UTF-8" standalone="no" ?>
<gpx xmlns="http://www.topografix.com/GPX/1/1" xmlns:xsi="http://www.w3.org/2001/XMLSchema-instance" xsi:schemaLocation="http://www.topografix.com/GPX/1/1 http://www.topografix.com/GPX/1/1/gpx.xsd" version="1.1" creator="VisuGPX - https://www.visugpx.com">
  <metadata>
    <name>St Géniès de Varensal - Le Marcou - Le Fau </name>
    <desc><![CDATA[Au départ de St Géniès de Varensal, une belle rando plutôt difficile, avec dès le départ une montée assez raide jusqu'au sommet du Marcou, avec un magnifique panorama à 360°. puis une descente hors sentier jusqu'au hameau de Albès, suivie de deux km sur route jusqu'au hameau du Fau. 
Final difficile jusqu'au point de départ, par des sentiers rocailleux non balisés et peu utilisés, mais avec de magnifiques paysages.]]></desc>
  </metadata>
  <trk>
    <name><![CDATA[2019-03-21 ST GENIES DE VARENSAL - LE MARCOU - LE FAU]]></name>
    <trkseg>
      <trkpt lat="43.68172" lon="3.00426">
        <ele>401.01</ele>
        <time>2019-03-21T08:06:28Z</time>
      </trkpt>
      <trkpt lat="43.68171" lon="3.00435">
        <ele>401.01</ele>
        <time>2019-03-21T08:06:41Z</time>
      </trkpt>
      <trkpt lat="43.68172" lon="3.00436">
        <ele>401.01</ele>
        <time>2019-03-21T08:06:56Z</time>
      </trkpt>
      <trkpt lat="43.68169" lon="3.00432">
        <ele>401.01</ele>
        <time>2019-03-21T08:07:14Z</time>
      </trkpt>
      <trkpt lat="43.68164" lon="3.00441">
        <ele>399.57</ele>
        <time>2019-03-21T08:07:29Z</time>
      </trkpt>
      <trkpt lat="43.68164" lon="3.00443">
        <ele>399.57</ele>
        <time>2019-03-21T08:07:30Z</time>
      </trkpt>
      <trkpt lat="43.68153" lon="3.00453">
        <ele>399.08</ele>
        <time>2019-03-21T08:07:46Z</time>
      </trkpt>
      <trkpt lat="43.68152" lon="3.00464">
        <ele>399.08</ele>
        <time>2019-03-21T08:07:59Z</time>
      </trkpt>
      <trkpt lat="43.68152" lon="3.00466">
        <ele>400.05</ele>
        <time>2019-03-21T08:08:03Z</time>
      </trkpt>
      <trkpt lat="43.68156" lon="3.00471">
        <ele>402.45</ele>
        <time>2019-03-21T08:08:15Z</time>
      </trkpt>
      <trkpt lat="43.68159" lon="3.00477">
        <ele>403.41</ele>
        <time>2019-03-21T08:08:27Z</time>
      </trkpt>
      <trkpt lat="43.68162" lon="3.00485">
        <ele>405.81</ele>
        <time>2019-03-21T08:08:38Z</time>
      </trkpt>
      <trkpt lat="43.68162" lon="3.00487">
        <ele>406.29</ele>
        <time>2019-03-21T08:08:40Z</time>
      </trkpt>
      <trkpt lat="43.68163" lon="3.0049">
        <ele>406.29</ele>
        <time>2019-03-21T08:08:42Z</time>
      </trkpt>
      <trkpt lat="43.68163" lon="3.00494">
        <ele>406.77</ele>
        <time>2019-03-21T08:08:44Z</time>
      </trkpt>
      <trkpt lat="43.68163" lon="3.00495">
        <ele>406.77</ele>
        <time>2019-03-21T08:08:45Z</time>
      </trkpt>
      <trkpt lat="43.68165" lon="3.00502">
        <ele>407.74</ele>
        <time>2019-03-21T08:08:50Z</time>
      </trkpt>
      <trkpt lat="43.6817" lon="3.00514">
        <ele>409.18</ele>
        <time>2019-03-21T08:09:01Z</time>
      </trkpt>
      <trkpt lat="43.68173" lon="3.00531">
        <ele>411.1</ele>
        <time>2019-03-21T08:09:14Z</time>
      </trkpt>
      <trkpt lat="43.68173" lon="3.00532">
        <ele>411.1</ele>
        <time>2019-03-21T08:09:15Z</time>
      </trkpt>
      <trkpt lat="43.68176" lon="3.00539">
        <ele>412.06</ele>
        <time>2019-03-21T08:09:20Z</time>
      </trkpt>
      <trkpt lat="43.68176" lon="3.0054">
        <ele>412.06</ele>
        <time>2019-03-21T08:09:21Z</time>
      </trkpt>
      <trkpt lat="43.68177" lon="3.00542">
        <ele>412.54</ele>
        <time>2019-03-21T08:09:33Z</time>
      </trkpt>
      <trkpt lat="43.68179" lon="3.00545">
        <ele>413.02</ele>
        <time>2019-03-21T08:09:36Z</time>
      </trkpt>
      <trkpt lat="43.6818" lon="3.00547">
        <ele>413.02</ele>
        <time>2019-03-21T08:09:37Z</time>
      </trkpt>
      <trkpt lat="43.68181" lon="3.00548">
        <ele>413.02</ele>
        <time>2019-03-21T08:09:38Z</time>
      </trkpt>
      <trkpt lat="43.68182" lon="3.0055">
        <ele>413.5</ele>
        <time>2019-03-21T08:09:39Z</time>
      </trkpt>
      <trkpt lat="43.68183" lon="3.00552">
        <ele>413.5</ele>
        <time>2019-03-21T08:09:40Z</time>
      </trkpt>
      <trkpt lat="43.6819" lon="3.00563">
        <ele>414.47</ele>
        <time>2019-03-21T08:09:50Z</time>
      </trkpt>
      <trkpt lat="43.68193" lon="3.00571">
        <ele>415.43</ele>
        <time>2019-03-21T08:09:57Z</time>
      </trkpt>
      <trkpt lat="43.68198" lon="3.00592">
        <ele>417.83</ele>
        <time>2019-03-21T08:10:12Z</time>
      </trkpt>
      <trkpt lat="43.68208" lon="3.006">
        <ele>419.27</ele>
        <time>2019-03-21T08:10:25Z</time>
      </trkpt>
      <trkpt lat="43.68223" lon="3.00601">
        <ele>419.75</ele>
        <time>2019-03-21T08:10:40Z</time>
      </trkpt>
      <trkpt lat="43.68238" lon="3.00603">
        <ele>422.16</ele>
        <time>2019-03-21T08:10:56Z</time>
      </trkpt>
      <trkpt lat="43.68249" lon="3.0061">
        <ele>424.56</ele>
        <time>2019-03-21T08:11:12Z</time>
      </trkpt>
      <trkpt lat="43.68255" lon="3.00625">
        <ele>425.52</ele>
        <time>2019-03-21T08:11:25Z</time>
      </trkpt>
      <trkpt lat="43.68258" lon="3.00631">
        <ele>426</ele>
        <time>2019-03-21T08:11:30Z</time>
      </trkpt>
      <trkpt lat="43.68254" lon="3.00649">
        <ele>426</ele>
        <time>2019-03-21T08:11:44Z</time>
      </trkpt>
      <trkpt lat="43.68254" lon="3.00652">
        <ele>426</ele>
        <time>2019-03-21T08:11:46Z</time>
      </trkpt>
      <trkpt lat="43.68256" lon="3.00662">
        <ele>426.48</ele>
        <time>2019-03-21T08:11:59Z</time>
      </trkpt>
      <trkpt lat="43.68259" lon="3.00668">
        <ele>428.4</ele>
        <time>2019-03-21T08:12:09Z</time>
      </trkpt>
      <trkpt lat="43.68265" lon="3.00671">
        <ele>431.29</ele>
        <time>2019-03-21T08:12:21Z</time>
      </trkpt>
      <trkpt lat="43.68271" lon="3.0068">
        <ele>433.21</ele>
        <time>2019-03-21T08:12:34Z</time>
      </trkpt>
      <trkpt lat="43.68275" lon="3.00687">
        <ele>435.13</ele>
        <time>2019-03-21T08:12:47Z</time>
      </trkpt>
      <trkpt lat="43.68281" lon="3.00685">
        <ele>437.54</ele>
        <time>2019-03-21T08:12:58Z</time>
      </trkpt>
      <trkpt lat="43.6829" lon="3.00685">
        <ele>438.98</ele>
        <time>2019-03-21T08:13:11Z</time>
      </trkpt>
      <trkpt lat="43.68297" lon="3.00686">
        <ele>441.38</ele>
        <time>2019-03-21T08:13:24Z</time>
      </trkpt>
      <trkpt lat="43.68305" lon="3.00693">
        <ele>443.79</ele>
        <time>2019-03-21T08:13:39Z</time>
      </trkpt>
      <trkpt lat="43.68312" lon="3.00691">
        <ele>446.19</ele>
        <time>2019-03-21T08:13:52Z</time>
      </trkpt>
      <trkpt lat="43.68321" lon="3.00689">
        <ele>448.59</ele>
        <time>2019-03-21T08:14:07Z</time>
      </trkpt>
      <trkpt lat="43.68328" lon="3.00688">
        <ele>451</ele>
        <time>2019-03-21T08:14:18Z</time>
      </trkpt>
      <trkpt lat="43.68336" lon="3.00688">
        <ele>452.44</ele>
        <time>2019-03-21T08:14:32Z</time>
      </trkpt>
      <trkpt lat="43.68342" lon="3.00686">
        <ele>454.36</ele>
        <time>2019-03-21T08:14:43Z</time>
      </trkpt>
      <trkpt lat="43.68347" lon="3.00683">
        <ele>456.28</ele>
        <time>2019-03-21T08:14:56Z</time>
      </trkpt>
      <trkpt lat="43.6835" lon="3.00686">
        <ele>457.72</ele>
        <time>2019-03-21T08:15:12Z</time>
      </trkpt>
      <trkpt lat="43.6835" lon="3.00697">
        <ele>458.69</ele>
        <time>2019-03-21T08:15:28Z</time>
      </trkpt>
      <trkpt lat="43.68355" lon="3.0071">
        <ele>460.13</ele>
        <time>2019-03-21T08:15:41Z</time>
      </trkpt>
      <trkpt lat="43.68356" lon="3.00712">
        <ele>460.61</ele>
        <time>2019-03-21T08:15:43Z</time>
      </trkpt>
      <trkpt lat="43.68362" lon="3.00716">
        <ele>461.09</ele>
        <time>2019-03-21T08:15:52Z</time>
      </trkpt>
      <trkpt lat="43.68371" lon="3.00723">
        <ele>463.01</ele>
        <time>2019-03-21T08:16:03Z</time>
      </trkpt>
      <trkpt lat="43.68378" lon="3.00732">
        <ele>463.97</ele>
        <time>2019-03-21T08:16:15Z</time>
      </trkpt>
      <trkpt lat="43.68385" lon="3.00739">
        <ele>465.9</ele>
        <time>2019-03-21T08:16:27Z</time>
      </trkpt>
      <trkpt lat="43.68389" lon="3.00746">
        <ele>467.82</ele>
        <time>2019-03-21T08:16:39Z</time>
      </trkpt>
      <trkpt lat="43.68395" lon="3.00755">
        <ele>469.74</ele>
        <time>2019-03-21T08:16:52Z</time>
      </trkpt>
      <trkpt lat="43.68399" lon="3.00764">
        <ele>471.66</ele>
        <time>2019-03-21T08:17:05Z</time>
      </trkpt>
      <trkpt lat="43.68399" lon="3.00775">
        <ele>473.11</ele>
        <time>2019-03-21T08:17:19Z</time>
      </trkpt>
      <trkpt lat="43.684" lon="3.00784">
        <ele>475.03</ele>
        <time>2019-03-21T08:17:34Z</time>
      </trkpt>
      <trkpt lat="43.68402" lon="3.00795">
        <ele>476.95</ele>
        <time>2019-03-21T08:17:45Z</time>
      </trkpt>
      <trkpt lat="43.68406" lon="3.00804">
        <ele>478.39</ele>
        <time>2019-03-21T08:18:00Z</time>
      </trkpt>
      <trkpt lat="43.68416" lon="3.00798">
        <ele>480.32</ele>
        <time>2019-03-21T08:18:13Z</time>
      </trkpt>
      <trkpt lat="43.68421" lon="3.00793">
        <ele>481.28</ele>
        <time>2019-03-21T08:18:28Z</time>
      </trkpt>
      <trkpt lat="43.68426" lon="3.00785">
        <ele>483.2</ele>
        <time>2019-03-21T08:18:39Z</time>
      </trkpt>
      <trkpt lat="43.68433" lon="3.00774">
        <ele>485.6</ele>
        <time>2019-03-21T08:18:52Z</time>
      </trkpt>
      <trkpt lat="43.68435" lon="3.00761">
        <ele>488.01</ele>
        <time>2019-03-21T08:19:06Z</time>
      </trkpt>
      <trkpt lat="43.68437" lon="3.00755">
        <ele>488.97</ele>
        <time>2019-03-21T08:19:18Z</time>
      </trkpt>
      <trkpt lat="43.68437" lon="3.00745">
        <ele>491.37</ele>
        <time>2019-03-21T08:19:32Z</time>
      </trkpt>
      <trkpt lat="43.68438" lon="3.00736">
        <ele>493.77</ele>
        <time>2019-03-21T08:19:47Z</time>
      </trkpt>
      <trkpt lat="43.68441" lon="3.0073">
        <ele>496.66</ele>
        <time>2019-03-21T08:19:59Z</time>
      </trkpt>
      <trkpt lat="43.68448" lon="3.00733">
        <ele>498.1</ele>
        <time>2019-03-21T08:20:11Z</time>
      </trkpt>
      <trkpt lat="43.68451" lon="3.00728">
        <ele>500.5</ele>
        <time>2019-03-21T08:20:24Z</time>
      </trkpt>
      <trkpt lat="43.68456" lon="3.0072">
        <ele>502.91</ele>
        <time>2019-03-21T08:20:40Z</time>
      </trkpt>
      <trkpt lat="43.68462" lon="3.00714">
        <ele>504.83</ele>
        <time>2019-03-21T08:20:53Z</time>
      </trkpt>
      <trkpt lat="43.68467" lon="3.00709">
        <ele>507.23</ele>
        <time>2019-03-21T08:21:07Z</time>
      </trkpt>
      <trkpt lat="43.68472" lon="3.00706">
        <ele>509.64</ele>
        <time>2019-03-21T08:21:23Z</time>
      </trkpt>
      <trkpt lat="43.68476" lon="3.00701">
        <ele>511.56</ele>
        <time>2019-03-21T08:21:35Z</time>
      </trkpt>
      <trkpt lat="43.68481" lon="3.00691">
        <ele>513.96</ele>
        <time>2019-03-21T08:21:52Z</time>
      </trkpt>
      <trkpt lat="43.68484" lon="3.00688">
        <ele>516.37</ele>
        <time>2019-03-21T08:22:05Z</time>
      </trkpt>
      <trkpt lat="43.68489" lon="3.00687">
        <ele>518.77</ele>
        <time>2019-03-21T08:22:18Z</time>
      </trkpt>
      <trkpt lat="43.68496" lon="3.00685">
        <ele>520.69</ele>
        <time>2019-03-21T08:22:30Z</time>
      </trkpt>
      <trkpt lat="43.685" lon="3.00681">
        <ele>522.61</ele>
        <time>2019-03-21T08:22:42Z</time>
      </trkpt>
      <trkpt lat="43.68502" lon="3.00671">
        <ele>525.5</ele>
        <time>2019-03-21T08:22:57Z</time>
      </trkpt>
      <trkpt lat="43.68506" lon="3.00665">
        <ele>527.42</ele>
        <time>2019-03-21T08:23:12Z</time>
      </trkpt>
      <trkpt lat="43.6851" lon="3.00658">
        <ele>529.82</ele>
        <time>2019-03-21T08:23:26Z</time>
      </trkpt>
      <trkpt lat="43.68511" lon="3.00646">
        <ele>532.23</ele>
        <time>2019-03-21T08:23:41Z</time>
      </trkpt>
      <trkpt lat="43.68517" lon="3.00643">
        <ele>534.63</ele>
        <time>2019-03-21T08:23:55Z</time>
      </trkpt>
      <trkpt lat="43.68522" lon="3.00641">
        <ele>537.51</ele>
        <time>2019-03-21T08:24:11Z</time>
      </trkpt>
      <trkpt lat="43.68524" lon="3.00632">
        <ele>539.92</ele>
        <time>2019-03-21T08:24:25Z</time>
      </trkpt>
      <trkpt lat="43.68531" lon="3.00627">
        <ele>541.84</ele>
        <time>2019-03-21T08:24:41Z</time>
      </trkpt>
      <trkpt lat="43.68534" lon="3.00621">
        <ele>543.76</ele>
        <time>2019-03-21T08:24:53Z</time>
      </trkpt>
      <trkpt lat="43.68535" lon="3.0061">
        <ele>545.69</ele>
        <time>2019-03-21T08:25:06Z</time>
      </trkpt>
      <trkpt lat="43.68538" lon="3.00602">
        <ele>548.09</ele>
        <time>2019-03-21T08:25:20Z</time>
      </trkpt>
      <trkpt lat="43.68542" lon="3.00603">
        <ele>550.01</ele>
        <time>2019-03-21T08:25:35Z</time>
      </trkpt>
      <trkpt lat="43.68548" lon="3.00594">
        <ele>552.41</ele>
        <time>2019-03-21T08:25:50Z</time>
      </trkpt>
      <trkpt lat="43.68553" lon="3.00584">
        <ele>554.82</ele>
        <time>2019-03-21T08:26:05Z</time>
      </trkpt>
      <trkpt lat="43.68557" lon="3.0058">
        <ele>557.22</ele>
        <time>2019-03-21T08:26:19Z</time>
      </trkpt>
      <trkpt lat="43.68561" lon="3.00575">
        <ele>559.14</ele>
        <time>2019-03-21T08:26:33Z</time>
      </trkpt>
      <trkpt lat="43.68565" lon="3.00566">
        <ele>562.03</ele>
        <time>2019-03-21T08:26:50Z</time>
      </trkpt>
      <trkpt lat="43.68575" lon="3.00569">
        <ele>565.39</ele>
        <time>2019-03-21T08:27:09Z</time>
      </trkpt>
      <trkpt lat="43.68588" lon="3.00568">
        <ele>568.76</ele>
        <time>2019-03-21T08:27:28Z</time>
      </trkpt>
      <trkpt lat="43.68592" lon="3.00564">
        <ele>571.64</ele>
        <time>2019-03-21T08:27:48Z</time>
      </trkpt>
      <trkpt lat="43.68597" lon="3.00558">
        <ele>575.01</ele>
        <time>2019-03-21T08:28:06Z</time>
      </trkpt>
      <trkpt lat="43.68605" lon="3.00552">
        <ele>577.89</ele>
        <time>2019-03-21T08:28:25Z</time>
      </trkpt>
      <trkpt lat="43.6861" lon="3.00548">
        <ele>580.77</ele>
        <time>2019-03-21T08:28:43Z</time>
      </trkpt>
      <trkpt lat="43.68613" lon="3.00537">
        <ele>583.66</ele>
        <time>2019-03-21T08:29:02Z</time>
      </trkpt>
      <trkpt lat="43.68622" lon="3.00533">
        <ele>586.54</ele>
        <time>2019-03-21T08:29:21Z</time>
      </trkpt>
      <trkpt lat="43.68631" lon="3.00525">
        <ele>589.91</ele>
        <time>2019-03-21T08:29:39Z</time>
      </trkpt>
      <trkpt lat="43.68636" lon="3.00521">
        <ele>592.31</ele>
        <time>2019-03-21T08:29:54Z</time>
      </trkpt>
      <trkpt lat="43.68644" lon="3.00517">
        <ele>595.67</ele>
        <time>2019-03-21T08:30:10Z</time>
      </trkpt>
      <trkpt lat="43.6865" lon="3.00516">
        <ele>597.6</ele>
        <time>2019-03-21T08:30:24Z</time>
      </trkpt>
      <trkpt lat="43.68657" lon="3.00513">
        <ele>600.96</ele>
        <time>2019-03-21T08:30:40Z</time>
      </trkpt>
      <trkpt lat="43.68665" lon="3.0051">
        <ele>603.36</ele>
        <time>2019-03-21T08:30:56Z</time>
      </trkpt>
      <trkpt lat="43.6867" lon="3.00506">
        <ele>606.25</ele>
        <time>2019-03-21T08:31:10Z</time>
      </trkpt>
      <trkpt lat="43.68675" lon="3.00497">
        <ele>609.13</ele>
        <time>2019-03-21T08:31:26Z</time>
      </trkpt>
      <trkpt lat="43.68679" lon="3.00491">
        <ele>611.06</ele>
        <time>2019-03-21T08:31:40Z</time>
      </trkpt>
      <trkpt lat="43.68686" lon="3.00494">
        <ele>613.94</ele>
        <time>2019-03-21T08:31:55Z</time>
      </trkpt>
      <trkpt lat="43.68691" lon="3.00505">
        <ele>613.94</ele>
        <time>2019-03-21T08:32:13Z</time>
      </trkpt>
      <trkpt lat="43.68698" lon="3.00509">
        <ele>616.34</ele>
        <time>2019-03-21T08:32:28Z</time>
      </trkpt>
      <trkpt lat="43.68701" lon="3.00503">
        <ele>618.75</ele>
        <time>2019-03-21T08:32:41Z</time>
      </trkpt>
      <trkpt lat="43.68697" lon="3.00488">
        <ele>621.15</ele>
        <time>2019-03-21T08:32:57Z</time>
      </trkpt>
      <trkpt lat="43.687" lon="3.0048">
        <ele>623.55</ele>
        <time>2019-03-21T08:33:11Z</time>
      </trkpt>
      <trkpt lat="43.68701" lon="3.00471">
        <ele>625.47</ele>
        <time>2019-03-21T08:33:23Z</time>
      </trkpt>
      <trkpt lat="43.68707" lon="3.0046">
        <ele>627.4</ele>
        <time>2019-03-21T08:33:39Z</time>
      </trkpt>
      <trkpt lat="43.68715" lon="3.00465">
        <ele>630.76</ele>
        <time>2019-03-21T08:33:56Z</time>
      </trkpt>
      <trkpt lat="43.68724" lon="3.0046">
        <ele>633.17</ele>
        <time>2019-03-21T08:34:14Z</time>
      </trkpt>
      <trkpt lat="43.6873" lon="3.0046">
        <ele>636.05</ele>
        <time>2019-03-21T08:34:26Z</time>
      </trkpt>
      <trkpt lat="43.68734" lon="3.00456">
        <ele>637.49</ele>
        <time>2019-03-21T08:34:39Z</time>
      </trkpt>
      <trkpt lat="43.68738" lon="3.00456">
        <ele>639.89</ele>
        <time>2019-03-21T08:34:54Z</time>
      </trkpt>
      <trkpt lat="43.68742" lon="3.00466">
        <ele>640.86</ele>
        <time>2019-03-21T08:35:10Z</time>
      </trkpt>
      <trkpt lat="43.68747" lon="3.00476">
        <ele>641.82</ele>
        <time>2019-03-21T08:35:24Z</time>
      </trkpt>
      <trkpt lat="43.68751" lon="3.00476">
        <ele>644.7</ele>
        <time>2019-03-21T08:35:37Z</time>
      </trkpt>
      <trkpt lat="43.68754" lon="3.00463">
        <ele>646.62</ele>
        <time>2019-03-21T08:35:52Z</time>
      </trkpt>
      <trkpt lat="43.68758" lon="3.00453">
        <ele>648.55</ele>
        <time>2019-03-21T08:36:07Z</time>
      </trkpt>
      <trkpt lat="43.68757" lon="3.00451">
        <ele>648.55</ele>
        <time>2019-03-21T08:36:22Z</time>
      </trkpt>
      <trkpt lat="43.68754" lon="3.00449">
        <ele>648.07</ele>
        <time>2019-03-21T08:36:38Z</time>
      </trkpt>
      <trkpt lat="43.68756" lon="3.00454">
        <ele>647.59</ele>
        <time>2019-03-21T08:38:06Z</time>
      </trkpt>
      <trkpt lat="43.68757" lon="3.00455">
        <ele>648.07</ele>
        <time>2019-03-21T08:38:25Z</time>
      </trkpt>
      <trkpt lat="43.68758" lon="3.00454">
        <ele>648.07</ele>
        <time>2019-03-21T08:38:45Z</time>
      </trkpt>
      <trkpt lat="43.6876" lon="3.00453">
        <ele>648.07</ele>
        <time>2019-03-21T08:39:03Z</time>
      </trkpt>
      <trkpt lat="43.68759" lon="3.00452">
        <ele>648.07</ele>
        <time>2019-03-21T08:39:24Z</time>
      </trkpt>
      <trkpt lat="43.68758" lon="3.00449">
        <ele>648.07</ele>
        <time>2019-03-21T08:39:39Z</time>
      </trkpt>
      <trkpt lat="43.68757" lon="3.00447">
        <ele>648.07</ele>
        <time>2019-03-21T08:39:55Z</time>
      </trkpt>
      <trkpt lat="43.68759" lon="3.00451">
        <ele>648.07</ele>
        <time>2019-03-21T08:40:13Z</time>
      </trkpt>
      <trkpt lat="43.68758" lon="3.00451">
        <ele>648.07</ele>
        <time>2019-03-21T08:40:31Z</time>
      </trkpt>
      <trkpt lat="43.68757" lon="3.0045">
        <ele>648.07</ele>
        <time>2019-03-21T08:40:47Z</time>
      </trkpt>
      <trkpt lat="43.68757" lon="3.00447">
        <ele>648.07</ele>
        <time>2019-03-21T08:41:07Z</time>
      </trkpt>
      <trkpt lat="43.68758" lon="3.00447">
        <ele>648.07</ele>
        <time>2019-03-21T08:41:33Z</time>
      </trkpt>
      <trkpt lat="43.68758" lon="3.00447">
        <ele>648.07</ele>
        <time>2019-03-21T08:41:53Z</time>
      </trkpt>
      <trkpt lat="43.68758" lon="3.00449">
        <ele>648.07</ele>
        <time>2019-03-21T08:42:23Z</time>
      </trkpt>
      <trkpt lat="43.68757" lon="3.00447">
        <ele>648.07</ele>
        <time>2019-03-21T08:42:49Z</time>
      </trkpt>
      <trkpt lat="43.68756" lon="3.00446">
        <ele>648.07</ele>
        <time>2019-03-21T08:43:08Z</time>
      </trkpt>
      <trkpt lat="43.68757" lon="3.00448">
        <ele>648.07</ele>
        <time>2019-03-21T08:43:38Z</time>
      </trkpt>
      <trkpt lat="43.68757" lon="3.00447">
        <ele>648.55</ele>
        <time>2019-03-21T08:44:04Z</time>
      </trkpt>
      <trkpt lat="43.68758" lon="3.00448">
        <ele>648.55</ele>
        <time>2019-03-21T08:44:20Z</time>
      </trkpt>
      <trkpt lat="43.68757" lon="3.00449">
        <ele>648.55</ele>
        <time>2019-03-21T08:44:38Z</time>
      </trkpt>
      <trkpt lat="43.68759" lon="3.00449">
        <ele>648.55</ele>
        <time>2019-03-21T08:45:05Z</time>
      </trkpt>
      <trkpt lat="43.68758" lon="3.0045">
        <ele>648.55</ele>
        <time>2019-03-21T08:45:19Z</time>
      </trkpt>
      <trkpt lat="43.68757" lon="3.00446">
        <ele>648.55</ele>
        <time>2019-03-21T08:45:39Z</time>
      </trkpt>
      <trkpt lat="43.68756" lon="3.00448">
        <ele>648.55</ele>
        <time>2019-03-21T08:46:09Z</time>
      </trkpt>
      <trkpt lat="43.6876" lon="3.00445">
        <ele>649.99</ele>
        <time>2019-03-21T08:46:24Z</time>
      </trkpt>
      <trkpt lat="43.68762" lon="3.00451">
        <ele>650.47</ele>
        <time>2019-03-21T08:46:47Z</time>
      </trkpt>
      <trkpt lat="43.68768" lon="3.0045">
        <ele>652.87</ele>
        <time>2019-03-21T08:47:06Z</time>
      </trkpt>
      <trkpt lat="43.68773" lon="3.00452">
        <ele>656.24</ele>
        <time>2019-03-21T08:47:21Z</time>
      </trkpt>
      <trkpt lat="43.68781" lon="3.00451">
        <ele>659.6</ele>
        <time>2019-03-21T08:47:39Z</time>
      </trkpt>
      <trkpt lat="43.68789" lon="3.00448">
        <ele>662.97</ele>
        <time>2019-03-21T08:47:57Z</time>
      </trkpt>
      <trkpt lat="43.68801" lon="3.0045">
        <ele>666.33</ele>
        <time>2019-03-21T08:48:15Z</time>
      </trkpt>
      <trkpt lat="43.6881" lon="3.0045">
        <ele>668.25</ele>
        <time>2019-03-21T08:48:29Z</time>
      </trkpt>
      <trkpt lat="43.68816" lon="3.00449">
        <ele>670.66</ele>
        <time>2019-03-21T08:48:41Z</time>
      </trkpt>
      <trkpt lat="43.6882" lon="3.00448">
        <ele>671.62</ele>
        <time>2019-03-21T08:48:52Z</time>
      </trkpt>
      <trkpt lat="43.68821" lon="3.0045">
        <ele>672.58</ele>
        <time>2019-03-21T08:49:06Z</time>
      </trkpt>
      <trkpt lat="43.68821" lon="3.00452">
        <ele>672.58</ele>
        <time>2019-03-21T08:49:21Z</time>
      </trkpt>
      <trkpt lat="43.68818" lon="3.00454">
        <ele>672.1</ele>
        <time>2019-03-21T08:49:42Z</time>
      </trkpt>
      <trkpt lat="43.68822" lon="3.00452">
        <ele>673.06</ele>
        <time>2019-03-21T08:49:58Z</time>
      </trkpt>
      <trkpt lat="43.68828" lon="3.00454">
        <ele>674.98</ele>
        <time>2019-03-21T08:50:10Z</time>
      </trkpt>
      <trkpt lat="43.68834" lon="3.0045">
        <ele>677.39</ele>
        <time>2019-03-21T08:50:20Z</time>
      </trkpt>
      <trkpt lat="43.68841" lon="3.00444">
        <ele>680.27</ele>
        <time>2019-03-21T08:50:33Z</time>
      </trkpt>
      <trkpt lat="43.68846" lon="3.00443">
        <ele>682.19</ele>
        <time>2019-03-21T08:50:45Z</time>
      </trkpt>
      <trkpt lat="43.68846" lon="3.00442">
        <ele>682.19</ele>
        <time>2019-03-21T08:51:07Z</time>
      </trkpt>
      <trkpt lat="43.68853" lon="3.00433">
        <ele>685.56</ele>
        <time>2019-03-21T08:51:23Z</time>
      </trkpt>
      <trkpt lat="43.6886" lon="3.00428">
        <ele>688.44</ele>
        <time>2019-03-21T08:51:40Z</time>
      </trkpt>
      <trkpt lat="43.68867" lon="3.0043">
        <ele>690.84</ele>
        <time>2019-03-21T08:51:56Z</time>
      </trkpt>
      <trkpt lat="43.68874" lon="3.00433">
        <ele>692.77</ele>
        <time>2019-03-21T08:52:07Z</time>
      </trkpt>
      <trkpt lat="43.68883" lon="3.00433">
        <ele>694.69</ele>
        <time>2019-03-21T08:52:19Z</time>
      </trkpt>
      <trkpt lat="43.6889" lon="3.0043">
        <ele>697.09</ele>
        <time>2019-03-21T08:52:33Z</time>
      </trkpt>
      <trkpt lat="43.68894" lon="3.00424">
        <ele>699.98</ele>
        <time>2019-03-21T08:52:46Z</time>
      </trkpt>
      <trkpt lat="43.68895" lon="3.00422">
        <ele>699.5</ele>
        <time>2019-03-21T08:53:10Z</time>
      </trkpt>
      <trkpt lat="43.689" lon="3.00426">
        <ele>699.5</ele>
        <time>2019-03-21T08:53:38Z</time>
      </trkpt>
      <trkpt lat="43.68899" lon="3.00425">
        <ele>699.02</ele>
        <time>2019-03-21T08:53:58Z</time>
      </trkpt>
      <trkpt lat="43.68906" lon="3.00422">
        <ele>700.46</ele>
        <time>2019-03-21T08:54:14Z</time>
      </trkpt>
      <trkpt lat="43.68912" lon="3.00416">
        <ele>702.86</ele>
        <time>2019-03-21T08:54:29Z</time>
      </trkpt>
      <trkpt lat="43.68917" lon="3.00412">
        <ele>705.26</ele>
        <time>2019-03-21T08:54:43Z</time>
      </trkpt>
      <trkpt lat="43.68925" lon="3.00412">
        <ele>707.67</ele>
        <time>2019-03-21T08:54:58Z</time>
      </trkpt>
      <trkpt lat="43.68933" lon="3.00407">
        <ele>709.59</ele>
        <time>2019-03-21T08:55:13Z</time>
      </trkpt>
      <trkpt lat="43.68934" lon="3.00406">
        <ele>709.59</ele>
        <time>2019-03-21T08:55:14Z</time>
      </trkpt>
      <trkpt lat="43.6894" lon="3.00404">
        <ele>711.99</ele>
        <time>2019-03-21T08:55:27Z</time>
      </trkpt>
      <trkpt lat="43.68948" lon="3.00402">
        <ele>714.88</ele>
        <time>2019-03-21T08:55:42Z</time>
      </trkpt>
      <trkpt lat="43.68958" lon="3.004">
        <ele>716.8</ele>
        <time>2019-03-21T08:55:57Z</time>
      </trkpt>
      <trkpt lat="43.68969" lon="3.00401">
        <ele>718.24</ele>
        <time>2019-03-21T08:56:12Z</time>
      </trkpt>
      <trkpt lat="43.68975" lon="3.00401">
        <ele>720.65</ele>
        <time>2019-03-21T08:56:26Z</time>
      </trkpt>
      <trkpt lat="43.68984" lon="3.00398">
        <ele>723.05</ele>
        <time>2019-03-21T08:56:41Z</time>
      </trkpt>
      <trkpt lat="43.68984" lon="3.00398">
        <ele>723.05</ele>
        <time>2019-03-21T08:56:42Z</time>
      </trkpt>
      <trkpt lat="43.68994" lon="3.00397">
        <ele>724.49</ele>
        <time>2019-03-21T08:56:56Z</time>
      </trkpt>
      <trkpt lat="43.69001" lon="3.00396">
        <ele>725.93</ele>
        <time>2019-03-21T08:57:06Z</time>
      </trkpt>
      <trkpt lat="43.69008" lon="3.00392">
        <ele>727.37</ele>
        <time>2019-03-21T08:57:19Z</time>
      </trkpt>
      <trkpt lat="43.69018" lon="3.00388">
        <ele>729.78</ele>
        <time>2019-03-21T08:57:33Z</time>
      </trkpt>
      <trkpt lat="43.69023" lon="3.00385">
        <ele>731.7</ele>
        <time>2019-03-21T08:57:45Z</time>
      </trkpt>
      <trkpt lat="43.69028" lon="3.00387">
        <ele>734.1</ele>
        <time>2019-03-21T08:57:59Z</time>
      </trkpt>
      <trkpt lat="43.69026" lon="3.00398">
        <ele>733.62</ele>
        <time>2019-03-21T08:58:17Z</time>
      </trkpt>
      <trkpt lat="43.69036" lon="3.00393">
        <ele>736.03</ele>
        <time>2019-03-21T08:58:33Z</time>
      </trkpt>
      <trkpt lat="43.69043" lon="3.00396">
        <ele>736.99</ele>
        <time>2019-03-21T08:58:46Z</time>
      </trkpt>
      <trkpt lat="43.69049" lon="3.00397">
        <ele>738.43</ele>
        <time>2019-03-21T08:59:05Z</time>
      </trkpt>
      <trkpt lat="43.69064" lon="3.0039">
        <ele>742.28</ele>
        <time>2019-03-21T08:59:21Z</time>
      </trkpt>
      <trkpt lat="43.69064" lon="3.00391">
        <ele>742.28</ele>
        <time>2019-03-21T08:59:22Z</time>
      </trkpt>
      <trkpt lat="43.69074" lon="3.00396">
        <ele>744.2</ele>
        <time>2019-03-21T08:59:42Z</time>
      </trkpt>
      <trkpt lat="43.69085" lon="3.004">
        <ele>747.08</ele>
        <time>2019-03-21T09:00:04Z</time>
      </trkpt>
      <trkpt lat="43.69096" lon="3.00406">
        <ele>749.97</ele>
        <time>2019-03-21T09:00:24Z</time>
      </trkpt>
      <trkpt lat="43.69099" lon="3.0042">
        <ele>751.41</ele>
        <time>2019-03-21T09:00:38Z</time>
      </trkpt>
      <trkpt lat="43.69105" lon="3.00426">
        <ele>753.33</ele>
        <time>2019-03-21T09:00:53Z</time>
      </trkpt>
      <trkpt lat="43.69112" lon="3.00435">
        <ele>755.25</ele>
        <time>2019-03-21T09:01:08Z</time>
      </trkpt>
      <trkpt lat="43.69118" lon="3.00442">
        <ele>757.18</ele>
        <time>2019-03-21T09:01:23Z</time>
      </trkpt>
      <trkpt lat="43.69123" lon="3.00451">
        <ele>758.14</ele>
        <time>2019-03-21T09:01:38Z</time>
      </trkpt>
      <trkpt lat="43.69123" lon="3.00456">
        <ele>758.62</ele>
        <time>2019-03-21T09:02:01Z</time>
      </trkpt>
      <trkpt lat="43.69127" lon="3.00469">
        <ele>759.58</ele>
        <time>2019-03-21T09:02:16Z</time>
      </trkpt>
      <trkpt lat="43.69129" lon="3.00472">
        <ele>759.58</ele>
        <time>2019-03-21T09:02:46Z</time>
      </trkpt>
      <trkpt lat="43.69132" lon="3.00485">
        <ele>761.5</ele>
        <time>2019-03-21T09:03:01Z</time>
      </trkpt>
      <trkpt lat="43.69133" lon="3.00487">
        <ele>761.98</ele>
        <time>2019-03-21T09:03:03Z</time>
      </trkpt>
      <trkpt lat="43.6914" lon="3.00493">
        <ele>765.35</ele>
        <time>2019-03-21T09:03:17Z</time>
      </trkpt>
      <trkpt lat="43.6914" lon="3.00494">
        <ele>765.35</ele>
        <time>2019-03-21T09:03:18Z</time>
      </trkpt>
      <trkpt lat="43.69147" lon="3.00498">
        <ele>766.31</ele>
        <time>2019-03-21T09:03:32Z</time>
      </trkpt>
      <trkpt lat="43.69156" lon="3.00504">
        <ele>767.75</ele>
        <time>2019-03-21T09:03:49Z</time>
      </trkpt>
      <trkpt lat="43.69168" lon="3.00509">
        <ele>768.71</ele>
        <time>2019-03-21T09:04:08Z</time>
      </trkpt>
      <trkpt lat="43.69172" lon="3.00509">
        <ele>767.75</ele>
        <time>2019-03-21T09:04:12Z</time>
      </trkpt>
      <trkpt lat="43.69176" lon="3.00507">
        <ele>768.71</ele>
        <time>2019-03-21T09:04:17Z</time>
      </trkpt>
      <trkpt lat="43.69192" lon="3.00502">
        <ele>769.19</ele>
        <time>2019-03-21T09:04:38Z</time>
      </trkpt>
      <trkpt lat="43.69204" lon="3.00505">
        <ele>769.67</ele>
        <time>2019-03-21T09:04:53Z</time>
      </trkpt>
      <trkpt lat="43.69206" lon="3.00507">
        <ele>768.23</ele>
        <time>2019-03-21T09:04:55Z</time>
      </trkpt>
      <trkpt lat="43.6921" lon="3.00511">
        <ele>769.67</ele>
        <time>2019-03-21T09:05:02Z</time>
      </trkpt>
      <trkpt lat="43.6922" lon="3.00522">
        <ele>769.19</ele>
        <time>2019-03-21T09:05:18Z</time>
      </trkpt>
      <trkpt lat="43.69233" lon="3.00535">
        <ele>767.27</ele>
        <time>2019-03-21T09:05:34Z</time>
      </trkpt>
      <trkpt lat="43.69242" lon="3.00544">
        <ele>767.27</ele>
        <time>2019-03-21T09:05:47Z</time>
      </trkpt>
      <trkpt lat="43.69249" lon="3.00551">
        <ele>767.27</ele>
        <time>2019-03-21T09:06:02Z</time>
      </trkpt>
      <trkpt lat="43.69251" lon="3.00555">
        <ele>768.71</ele>
        <time>2019-03-21T09:06:08Z</time>
      </trkpt>
      <trkpt lat="43.69253" lon="3.00567">
        <ele>771.11</ele>
        <time>2019-03-21T09:06:22Z</time>
      </trkpt>
      <trkpt lat="43.69258" lon="3.00575">
        <ele>773.04</ele>
        <time>2019-03-21T09:06:35Z</time>
      </trkpt>
      <trkpt lat="43.69263" lon="3.0058">
        <ele>774.48</ele>
        <time>2019-03-21T09:06:48Z</time>
      </trkpt>
      <trkpt lat="43.69269" lon="3.00588">
        <ele>776.88</ele>
        <time>2019-03-21T09:07:05Z</time>
      </trkpt>
      <trkpt lat="43.69277" lon="3.00596">
        <ele>778.81</ele>
        <time>2019-03-21T09:07:19Z</time>
      </trkpt>
      <trkpt lat="43.69289" lon="3.00607">
        <ele>780.73</ele>
        <time>2019-03-21T09:07:39Z</time>
      </trkpt>
      <trkpt lat="43.69295" lon="3.00613">
        <ele>782.65</ele>
        <time>2019-03-21T09:07:51Z</time>
      </trkpt>
      <trkpt lat="43.69303" lon="3.00623">
        <ele>784.57</ele>
        <time>2019-03-21T09:08:06Z</time>
      </trkpt>
      <trkpt lat="43.69312" lon="3.00633">
        <ele>786.5</ele>
        <time>2019-03-21T09:08:20Z</time>
      </trkpt>
      <trkpt lat="43.6932" lon="3.00638">
        <ele>789.38</ele>
        <time>2019-03-21T09:08:35Z</time>
      </trkpt>
      <trkpt lat="43.69324" lon="3.00647">
        <ele>790.82</ele>
        <time>2019-03-21T09:08:48Z</time>
      </trkpt>
      <trkpt lat="43.6933" lon="3.00656">
        <ele>793.22</ele>
        <time>2019-03-21T09:09:03Z</time>
      </trkpt>
      <trkpt lat="43.69336" lon="3.00666">
        <ele>794.67</ele>
        <time>2019-03-21T09:09:16Z</time>
      </trkpt>
      <trkpt lat="43.69339" lon="3.00682">
        <ele>795.15</ele>
        <time>2019-03-21T09:09:29Z</time>
      </trkpt>
      <trkpt lat="43.69343" lon="3.00699">
        <ele>797.07</ele>
        <time>2019-03-21T09:09:44Z</time>
      </trkpt>
      <trkpt lat="43.69346" lon="3.00708">
        <ele>798.99</ele>
        <time>2019-03-21T09:09:57Z</time>
      </trkpt>
      <trkpt lat="43.69346" lon="3.00717">
        <ele>801.4</ele>
        <time>2019-03-21T09:10:08Z</time>
      </trkpt>
      <trkpt lat="43.69349" lon="3.00732">
        <ele>801.88</ele>
        <time>2019-03-21T09:10:22Z</time>
      </trkpt>
      <trkpt lat="43.69352" lon="3.00748">
        <ele>803.32</ele>
        <time>2019-03-21T09:10:38Z</time>
      </trkpt>
      <trkpt lat="43.69351" lon="3.00766">
        <ele>804.28</ele>
        <time>2019-03-21T09:10:50Z</time>
      </trkpt>
      <trkpt lat="43.6935" lon="3.00783">
        <ele>805.72</ele>
        <time>2019-03-21T09:11:04Z</time>
      </trkpt>
      <trkpt lat="43.69351" lon="3.00794">
        <ele>808.13</ele>
        <time>2019-03-21T09:11:16Z</time>
      </trkpt>
      <trkpt lat="43.69353" lon="3.00805">
        <ele>809.57</ele>
        <time>2019-03-21T09:11:28Z</time>
      </trkpt>
      <trkpt lat="43.69356" lon="3.00813">
        <ele>811.97</ele>
        <time>2019-03-21T09:11:41Z</time>
      </trkpt>
      <trkpt lat="43.69357" lon="3.00825">
        <ele>813.89</ele>
        <time>2019-03-21T09:11:54Z</time>
      </trkpt>
      <trkpt lat="43.69358" lon="3.00834">
        <ele>815.34</ele>
        <time>2019-03-21T09:12:04Z</time>
      </trkpt>
      <trkpt lat="43.6936" lon="3.00842">
        <ele>817.74</ele>
        <time>2019-03-21T09:12:17Z</time>
      </trkpt>
      <trkpt lat="43.69361" lon="3.00852">
        <ele>819.66</ele>
        <time>2019-03-21T09:12:29Z</time>
      </trkpt>
      <trkpt lat="43.69366" lon="3.00858">
        <ele>821.58</ele>
        <time>2019-03-21T09:12:40Z</time>
      </trkpt>
      <trkpt lat="43.69368" lon="3.00862">
        <ele>822.55</ele>
        <time>2019-03-21T09:12:51Z</time>
      </trkpt>
      <trkpt lat="43.69368" lon="3.00863">
        <ele>823.03</ele>
        <time>2019-03-21T09:13:11Z</time>
      </trkpt>
      <trkpt lat="43.69367" lon="3.00859">
        <ele>823.03</ele>
        <time>2019-03-21T09:13:39Z</time>
      </trkpt>
      <trkpt lat="43.69368" lon="3.00861">
        <ele>823.99</ele>
        <time>2019-03-21T09:13:55Z</time>
      </trkpt>
      <trkpt lat="43.69367" lon="3.00864">
        <ele>823.99</ele>
        <time>2019-03-21T09:14:21Z</time>
      </trkpt>
      <trkpt lat="43.69366" lon="3.00858">
        <ele>823.99</ele>
        <time>2019-03-21T09:14:49Z</time>
      </trkpt>
      <trkpt lat="43.69367" lon="3.00857">
        <ele>822.55</ele>
        <time>2019-03-21T09:14:56Z</time>
      </trkpt>
      <trkpt lat="43.69369" lon="3.00858">
        <ele>822.55</ele>
        <time>2019-03-21T09:15:21Z</time>
      </trkpt>
      <trkpt lat="43.6937" lon="3.0086">
        <ele>822.55</ele>
        <time>2019-03-21T09:15:55Z</time>
      </trkpt>
      <trkpt lat="43.69368" lon="3.00854">
        <ele>822.55</ele>
        <time>2019-03-21T09:16:21Z</time>
      </trkpt>
      <trkpt lat="43.69368" lon="3.0086">
        <ele>823.03</ele>
        <time>2019-03-21T09:16:57Z</time>
      </trkpt>
      <trkpt lat="43.69367" lon="3.00864">
        <ele>824.47</ele>
        <time>2019-03-21T09:17:04Z</time>
      </trkpt>
      <trkpt lat="43.69366" lon="3.00861">
        <ele>823.51</ele>
        <time>2019-03-21T09:17:39Z</time>
      </trkpt>
      <trkpt lat="43.69367" lon="3.00858">
        <ele>823.51</ele>
        <time>2019-03-21T09:18:02Z</time>
      </trkpt>
      <trkpt lat="43.69368" lon="3.00861">
        <ele>823.51</ele>
        <time>2019-03-21T09:18:22Z</time>
      </trkpt>
      <trkpt lat="43.69369" lon="3.00859">
        <ele>823.51</ele>
        <time>2019-03-21T09:18:39Z</time>
      </trkpt>
      <trkpt lat="43.69369" lon="3.00865">
        <ele>824.95</ele>
        <time>2019-03-21T09:18:57Z</time>
      </trkpt>
      <trkpt lat="43.69369" lon="3.00867">
        <ele>824.95</ele>
        <time>2019-03-21T09:19:17Z</time>
      </trkpt>
      <trkpt lat="43.69374" lon="3.00869">
        <ele>824.95</ele>
        <time>2019-03-21T09:19:42Z</time>
      </trkpt>
      <trkpt lat="43.69373" lon="3.00871">
        <ele>825.43</ele>
        <time>2019-03-21T09:20:07Z</time>
      </trkpt>
      <trkpt lat="43.69372" lon="3.00871">
        <ele>825.43</ele>
        <time>2019-03-21T09:20:27Z</time>
      </trkpt>
      <trkpt lat="43.69372" lon="3.00871">
        <ele>825.43</ele>
        <time>2019-03-21T09:20:54Z</time>
      </trkpt>
      <trkpt lat="43.69373" lon="3.00874">
        <ele>825.43</ele>
        <time>2019-03-21T09:21:22Z</time>
      </trkpt>
      <trkpt lat="43.69374" lon="3.00882">
        <ele>826.87</ele>
        <time>2019-03-21T09:21:40Z</time>
      </trkpt>
      <trkpt lat="43.69379" lon="3.00892">
        <ele>830.24</ele>
        <time>2019-03-21T09:21:56Z</time>
      </trkpt>
      <trkpt lat="43.69383" lon="3.00911">
        <ele>832.64</ele>
        <time>2019-03-21T09:22:13Z</time>
      </trkpt>
      <trkpt lat="43.69383" lon="3.00925">
        <ele>834.56</ele>
        <time>2019-03-21T09:22:27Z</time>
      </trkpt>
      <trkpt lat="43.69384" lon="3.00937">
        <ele>837.93</ele>
        <time>2019-03-21T09:22:42Z</time>
      </trkpt>
      <trkpt lat="43.69384" lon="3.00947">
        <ele>840.33</ele>
        <time>2019-03-21T09:22:56Z</time>
      </trkpt>
      <trkpt lat="43.6938" lon="3.00955">
        <ele>843.21</ele>
        <time>2019-03-21T09:23:09Z</time>
      </trkpt>
      <trkpt lat="43.69383" lon="3.00963">
        <ele>845.62</ele>
        <time>2019-03-21T09:23:20Z</time>
      </trkpt>
      <trkpt lat="43.6939" lon="3.00971">
        <ele>846.1</ele>
        <time>2019-03-21T09:23:38Z</time>
      </trkpt>
      <trkpt lat="43.69394" lon="3.00977">
        <ele>847.06</ele>
        <time>2019-03-21T09:23:53Z</time>
      </trkpt>
      <trkpt lat="43.69398" lon="3.00978">
        <ele>848.98</ele>
        <time>2019-03-21T09:24:11Z</time>
      </trkpt>
      <trkpt lat="43.69395" lon="3.00978">
        <ele>848.98</ele>
        <time>2019-03-21T09:24:28Z</time>
      </trkpt>
      <trkpt lat="43.69391" lon="3.00982">
        <ele>848.98</ele>
        <time>2019-03-21T09:24:54Z</time>
      </trkpt>
      <trkpt lat="43.6939" lon="3.00985">
        <ele>848.98</ele>
        <time>2019-03-21T09:25:19Z</time>
      </trkpt>
      <trkpt lat="43.6939" lon="3.00982">
        <ele>848.98</ele>
        <time>2019-03-21T09:25:45Z</time>
      </trkpt>
      <trkpt lat="43.6939" lon="3.00982">
        <ele>848.98</ele>
        <time>2019-03-21T09:26:14Z</time>
      </trkpt>
      <trkpt lat="43.69391" lon="3.00976">
        <ele>848.98</ele>
        <time>2019-03-21T09:26:48Z</time>
      </trkpt>
      <trkpt lat="43.69393" lon="3.00976">
        <ele>849.46</ele>
        <time>2019-03-21T09:27:22Z</time>
      </trkpt>
      <trkpt lat="43.69392" lon="3.00975">
        <ele>849.46</ele>
        <time>2019-03-21T09:27:57Z</time>
      </trkpt>
      <trkpt lat="43.69394" lon="3.00974">
        <ele>849.46</ele>
        <time>2019-03-21T09:28:24Z</time>
      </trkpt>
      <trkpt lat="43.69397" lon="3.00976">
        <ele>849.46</ele>
        <time>2019-03-21T09:28:45Z</time>
      </trkpt>
      <trkpt lat="43.69404" lon="3.00981">
        <ele>851.38</ele>
        <time>2019-03-21T09:29:01Z</time>
      </trkpt>
      <trkpt lat="43.69412" lon="3.00991">
        <ele>852.35</ele>
        <time>2019-03-21T09:29:16Z</time>
      </trkpt>
      <trkpt lat="43.69418" lon="3.01001">
        <ele>855.23</ele>
        <time>2019-03-21T09:29:30Z</time>
      </trkpt>
      <trkpt lat="43.69426" lon="3.01014">
        <ele>857.15</ele>
        <time>2019-03-21T09:29:45Z</time>
      </trkpt>
      <trkpt lat="43.69437" lon="3.01026">
        <ele>858.59</ele>
        <time>2019-03-21T09:29:59Z</time>
      </trkpt>
      <trkpt lat="43.69444" lon="3.0104">
        <ele>860.52</ele>
        <time>2019-03-21T09:30:15Z</time>
      </trkpt>
      <trkpt lat="43.69448" lon="3.01059">
        <ele>861.96</ele>
        <time>2019-03-21T09:30:35Z</time>
      </trkpt>
      <trkpt lat="43.69458" lon="3.01074">
        <ele>864.84</ele>
        <time>2019-03-21T09:30:55Z</time>
      </trkpt>
      <trkpt lat="43.69471" lon="3.01081">
        <ele>867.25</ele>
        <time>2019-03-21T09:31:14Z</time>
      </trkpt>
      <trkpt lat="43.69478" lon="3.01081">
        <ele>870.61</ele>
        <time>2019-03-21T09:31:29Z</time>
      </trkpt>
      <trkpt lat="43.69486" lon="3.01082">
        <ele>873.98</ele>
        <time>2019-03-21T09:31:46Z</time>
      </trkpt>
      <trkpt lat="43.69495" lon="3.01081">
        <ele>876.38</ele>
        <time>2019-03-21T09:32:02Z</time>
      </trkpt>
      <trkpt lat="43.69502" lon="3.01081">
        <ele>878.3</ele>
        <time>2019-03-21T09:32:16Z</time>
      </trkpt>
      <trkpt lat="43.69501" lon="3.01083">
        <ele>879.26</ele>
        <time>2019-03-21T09:32:40Z</time>
      </trkpt>
      <trkpt lat="43.695" lon="3.01083">
        <ele>879.26</ele>
        <time>2019-03-21T09:33:02Z</time>
      </trkpt>
      <trkpt lat="43.695" lon="3.01082">
        <ele>877.82</ele>
        <time>2019-03-21T09:33:13Z</time>
      </trkpt>
      <trkpt lat="43.69499" lon="3.01084">
        <ele>877.82</ele>
        <time>2019-03-21T09:33:38Z</time>
      </trkpt>
      <trkpt lat="43.695" lon="3.01085">
        <ele>877.82</ele>
        <time>2019-03-21T09:34:08Z</time>
      </trkpt>
      <trkpt lat="43.69501" lon="3.01084">
        <ele>877.82</ele>
        <time>2019-03-21T09:34:34Z</time>
      </trkpt>
      <trkpt lat="43.69508" lon="3.01084">
        <ele>880.22</ele>
        <time>2019-03-21T09:34:50Z</time>
      </trkpt>
      <trkpt lat="43.69517" lon="3.01095">
        <ele>880.71</ele>
        <time>2019-03-21T09:35:04Z</time>
      </trkpt>
      <trkpt lat="43.69528" lon="3.01101">
        <ele>882.15</ele>
        <time>2019-03-21T09:35:20Z</time>
      </trkpt>
      <trkpt lat="43.69538" lon="3.01105">
        <ele>884.07</ele>
        <time>2019-03-21T09:35:34Z</time>
      </trkpt>
      <trkpt lat="43.69543" lon="3.0111">
        <ele>884.55</ele>
        <time>2019-03-21T09:35:40Z</time>
      </trkpt>
      <trkpt lat="43.69545" lon="3.01112">
        <ele>884.55</ele>
        <time>2019-03-21T09:35:43Z</time>
      </trkpt>
      <trkpt lat="43.69556" lon="3.01118">
        <ele>886.95</ele>
        <time>2019-03-21T09:35:57Z</time>
      </trkpt>
      <trkpt lat="43.69567" lon="3.01124">
        <ele>887.91</ele>
        <time>2019-03-21T09:36:11Z</time>
      </trkpt>
      <trkpt lat="43.69576" lon="3.0113">
        <ele>889.36</ele>
        <time>2019-03-21T09:36:24Z</time>
      </trkpt>
      <trkpt lat="43.69581" lon="3.01132">
        <ele>889.84</ele>
        <time>2019-03-21T09:36:31Z</time>
      </trkpt>
      <trkpt lat="43.6959" lon="3.01139">
        <ele>890.32</ele>
        <time>2019-03-21T09:36:45Z</time>
      </trkpt>
      <trkpt lat="43.69597" lon="3.0115">
        <ele>890.32</ele>
        <time>2019-03-21T09:36:57Z</time>
      </trkpt>
      <trkpt lat="43.69607" lon="3.01154">
        <ele>893.2</ele>
        <time>2019-03-21T09:37:11Z</time>
      </trkpt>
      <trkpt lat="43.6962" lon="3.01169">
        <ele>892.24</ele>
        <time>2019-03-21T09:37:28Z</time>
      </trkpt>
      <trkpt lat="43.69626" lon="3.01176">
        <ele>895.61</ele>
        <time>2019-03-21T09:37:42Z</time>
      </trkpt>
      <trkpt lat="43.69635" lon="3.01184">
        <ele>898.01</ele>
        <time>2019-03-21T09:37:58Z</time>
      </trkpt>
      <trkpt lat="43.69645" lon="3.01187">
        <ele>900.89</ele>
        <time>2019-03-21T09:38:15Z</time>
      </trkpt>
      <trkpt lat="43.69651" lon="3.01198">
        <ele>900.89</ele>
        <time>2019-03-21T09:38:30Z</time>
      </trkpt>
      <trkpt lat="43.69659" lon="3.01208">
        <ele>900.89</ele>
        <time>2019-03-21T09:38:46Z</time>
      </trkpt>
      <trkpt lat="43.69663" lon="3.01212">
        <ele>901.85</ele>
        <time>2019-03-21T09:40:16Z</time>
      </trkpt>
      <trkpt lat="43.69669" lon="3.01205">
        <ele>905.22</ele>
        <time>2019-03-21T09:40:32Z</time>
      </trkpt>
      <trkpt lat="43.6967" lon="3.01198">
        <ele>905.7</ele>
        <time>2019-03-21T09:40:44Z</time>
      </trkpt>
      <trkpt lat="43.69677" lon="3.01199">
        <ele>905.7</ele>
        <time>2019-03-21T09:40:58Z</time>
      </trkpt>
      <trkpt lat="43.69691" lon="3.0121">
        <ele>905.7</ele>
        <time>2019-03-21T09:41:16Z</time>
      </trkpt>
      <trkpt lat="43.697" lon="3.0121">
        <ele>905.7</ele>
        <time>2019-03-21T09:41:32Z</time>
      </trkpt>
      <trkpt lat="43.69707" lon="3.01207">
        <ele>908.1</ele>
        <time>2019-03-21T09:41:50Z</time>
      </trkpt>
      <trkpt lat="43.69714" lon="3.01218">
        <ele>908.58</ele>
        <time>2019-03-21T09:42:09Z</time>
      </trkpt>
      <trkpt lat="43.6973" lon="3.01234">
        <ele>909.06</ele>
        <time>2019-03-21T09:42:30Z</time>
      </trkpt>
      <trkpt lat="43.69743" lon="3.01243">
        <ele>910.03</ele>
        <time>2019-03-21T09:42:48Z</time>
      </trkpt>
      <trkpt lat="43.69748" lon="3.0125">
        <ele>910.03</ele>
        <time>2019-03-21T09:43:04Z</time>
      </trkpt>
      <trkpt lat="43.69755" lon="3.01251">
        <ele>909.54</ele>
        <time>2019-03-21T09:43:29Z</time>
      </trkpt>
      <trkpt lat="43.69762" lon="3.01256">
        <ele>910.99</ele>
        <time>2019-03-21T09:43:36Z</time>
      </trkpt>
      <trkpt lat="43.69771" lon="3.01263">
        <ele>911.95</ele>
        <time>2019-03-21T09:43:51Z</time>
      </trkpt>
      <trkpt lat="43.69787" lon="3.01269">
        <ele>913.39</ele>
        <time>2019-03-21T09:44:07Z</time>
      </trkpt>
      <trkpt lat="43.69799" lon="3.0127">
        <ele>914.83</ele>
        <time>2019-03-21T09:44:28Z</time>
      </trkpt>
      <trkpt lat="43.6981" lon="3.01273">
        <ele>915.31</ele>
        <time>2019-03-21T09:44:44Z</time>
      </trkpt>
      <trkpt lat="43.69824" lon="3.01272">
        <ele>916.75</ele>
        <time>2019-03-21T09:45:00Z</time>
      </trkpt>
      <trkpt lat="43.69837" lon="3.01271">
        <ele>917.72</ele>
        <time>2019-03-21T09:45:16Z</time>
      </trkpt>
      <trkpt lat="43.69854" lon="3.01263">
        <ele>919.16</ele>
        <time>2019-03-21T09:45:28Z</time>
      </trkpt>
      <trkpt lat="43.69868" lon="3.01254">
        <ele>918.68</ele>
        <time>2019-03-21T09:45:40Z</time>
      </trkpt>
      <trkpt lat="43.6988" lon="3.01247">
        <ele>920.6</ele>
        <time>2019-03-21T09:45:57Z</time>
      </trkpt>
      <trkpt lat="43.69894" lon="3.01234">
        <ele>922.04</ele>
        <time>2019-03-21T09:46:15Z</time>
      </trkpt>
      <trkpt lat="43.69911" lon="3.01236">
        <ele>923</ele>
        <time>2019-03-21T09:46:31Z</time>
      </trkpt>
      <trkpt lat="43.69912" lon="3.01237">
        <ele>923.48</ele>
        <time>2019-03-21T09:46:53Z</time>
      </trkpt>
      <trkpt lat="43.69925" lon="3.01241">
        <ele>925.41</ele>
        <time>2019-03-21T09:47:08Z</time>
      </trkpt>
      <trkpt lat="43.69931" lon="3.01247">
        <ele>926.85</ele>
        <time>2019-03-21T09:47:15Z</time>
      </trkpt>
      <trkpt lat="43.69946" lon="3.0126">
        <ele>927.81</ele>
        <time>2019-03-21T09:47:31Z</time>
      </trkpt>
      <trkpt lat="43.69956" lon="3.01262">
        <ele>928.29</ele>
        <time>2019-03-21T09:47:45Z</time>
      </trkpt>
      <trkpt lat="43.69961" lon="3.01263">
        <ele>929.25</ele>
        <time>2019-03-21T09:47:51Z</time>
      </trkpt>
      <trkpt lat="43.69975" lon="3.01265">
        <ele>929.73</ele>
        <time>2019-03-21T09:48:02Z</time>
      </trkpt>
      <trkpt lat="43.69987" lon="3.01277">
        <ele>931.17</ele>
        <time>2019-03-21T09:48:15Z</time>
      </trkpt>
      <trkpt lat="43.69998" lon="3.01281">
        <ele>931.17</ele>
        <time>2019-03-21T09:48:29Z</time>
      </trkpt>
      <trkpt lat="43.70005" lon="3.01293">
        <ele>932.14</ele>
        <time>2019-03-21T09:48:42Z</time>
      </trkpt>
      <trkpt lat="43.70009" lon="3.01301">
        <ele>933.58</ele>
        <time>2019-03-21T09:48:56Z</time>
      </trkpt>
      <trkpt lat="43.70016" lon="3.01303">
        <ele>935.02</ele>
        <time>2019-03-21T09:49:07Z</time>
      </trkpt>
      <trkpt lat="43.70029" lon="3.01305">
        <ele>935.98</ele>
        <time>2019-03-21T09:49:21Z</time>
      </trkpt>
      <trkpt lat="43.70042" lon="3.01309">
        <ele>936.94</ele>
        <time>2019-03-21T09:49:37Z</time>
      </trkpt>
      <trkpt lat="43.70053" lon="3.0131">
        <ele>938.38</ele>
        <time>2019-03-21T09:49:50Z</time>
      </trkpt>
      <trkpt lat="43.70063" lon="3.01311">
        <ele>939.35</ele>
        <time>2019-03-21T09:50:00Z</time>
      </trkpt>
      <trkpt lat="43.70071" lon="3.01311">
        <ele>940.79</ele>
        <time>2019-03-21T09:50:13Z</time>
      </trkpt>
      <trkpt lat="43.70084" lon="3.01312">
        <ele>942.23</ele>
        <time>2019-03-21T09:50:28Z</time>
      </trkpt>
      <trkpt lat="43.70094" lon="3.01314">
        <ele>943.67</ele>
        <time>2019-03-21T09:50:42Z</time>
      </trkpt>
      <trkpt lat="43.70107" lon="3.01305">
        <ele>945.11</ele>
        <time>2019-03-21T09:51:08Z</time>
      </trkpt>
      <trkpt lat="43.7013" lon="3.013">
        <ele>946.07</ele>
        <time>2019-03-21T09:51:29Z</time>
      </trkpt>
      <trkpt lat="43.70147" lon="3.01298">
        <ele>946.07</ele>
        <time>2019-03-21T09:51:51Z</time>
      </trkpt>
      <trkpt lat="43.70149" lon="3.01304">
        <ele>946.56</ele>
        <time>2019-03-21T09:52:13Z</time>
      </trkpt>
      <trkpt lat="43.70156" lon="3.01302">
        <ele>948.96</ele>
        <time>2019-03-21T09:52:27Z</time>
      </trkpt>
      <trkpt lat="43.7018" lon="3.013">
        <ele>950.88</ele>
        <time>2019-03-21T09:52:45Z</time>
      </trkpt>
      <trkpt lat="43.70195" lon="3.01296">
        <ele>951.84</ele>
        <time>2019-03-21T09:52:58Z</time>
      </trkpt>
      <trkpt lat="43.70206" lon="3.01292">
        <ele>953.77</ele>
        <time>2019-03-21T09:53:15Z</time>
      </trkpt>
      <trkpt lat="43.70227" lon="3.01281">
        <ele>955.69</ele>
        <time>2019-03-21T09:53:37Z</time>
      </trkpt>
      <trkpt lat="43.7025" lon="3.01273">
        <ele>958.09</ele>
        <time>2019-03-21T09:53:59Z</time>
      </trkpt>
      <trkpt lat="43.70262" lon="3.01275">
        <ele>960.01</ele>
        <time>2019-03-21T09:54:14Z</time>
      </trkpt>
      <trkpt lat="43.70276" lon="3.01273">
        <ele>961.46</ele>
        <time>2019-03-21T09:54:31Z</time>
      </trkpt>
      <trkpt lat="43.70288" lon="3.01278">
        <ele>963.38</ele>
        <time>2019-03-21T09:54:45Z</time>
      </trkpt>
      <trkpt lat="43.70299" lon="3.01276">
        <ele>966.26</ele>
        <time>2019-03-21T09:54:59Z</time>
      </trkpt>
      <trkpt lat="43.70308" lon="3.01274">
        <ele>968.18</ele>
        <time>2019-03-21T09:55:12Z</time>
      </trkpt>
      <trkpt lat="43.70318" lon="3.01274">
        <ele>970.11</ele>
        <time>2019-03-21T09:55:26Z</time>
      </trkpt>
      <trkpt lat="43.70327" lon="3.01273">
        <ele>971.55</ele>
        <time>2019-03-21T09:55:39Z</time>
      </trkpt>
      <trkpt lat="43.7034" lon="3.01275">
        <ele>974.91</ele>
        <time>2019-03-21T09:55:55Z</time>
      </trkpt>
      <trkpt lat="43.70348" lon="3.01268">
        <ele>976.36</ele>
        <time>2019-03-21T09:56:08Z</time>
      </trkpt>
      <trkpt lat="43.70349" lon="3.01268">
        <ele>977.32</ele>
        <time>2019-03-21T09:56:17Z</time>
      </trkpt>
      <trkpt lat="43.70351" lon="3.01256">
        <ele>977.8</ele>
        <time>2019-03-21T09:56:30Z</time>
      </trkpt>
      <trkpt lat="43.70349" lon="3.01256">
        <ele>977.8</ele>
        <time>2019-03-21T09:56:47Z</time>
      </trkpt>
      <trkpt lat="43.70351" lon="3.01255">
        <ele>977.8</ele>
        <time>2019-03-21T09:57:14Z</time>
      </trkpt>
      <trkpt lat="43.7035" lon="3.01257">
        <ele>977.8</ele>
        <time>2019-03-21T09:57:42Z</time>
      </trkpt>
      <trkpt lat="43.70348" lon="3.01248">
        <ele>977.8</ele>
        <time>2019-03-21T09:57:55Z</time>
      </trkpt>
      <trkpt lat="43.70342" lon="3.01237">
        <ele>978.28</ele>
        <time>2019-03-21T09:58:08Z</time>
      </trkpt>
      <trkpt lat="43.70331" lon="3.01221">
        <ele>978.76</ele>
        <time>2019-03-21T09:58:24Z</time>
      </trkpt>
      <trkpt lat="43.70321" lon="3.0121">
        <ele>980.2</ele>
        <time>2019-03-21T09:58:38Z</time>
      </trkpt>
      <trkpt lat="43.70315" lon="3.01201">
        <ele>981.16</ele>
        <time>2019-03-21T09:58:50Z</time>
      </trkpt>
      <trkpt lat="43.7031" lon="3.01193">
        <ele>983.57</ele>
        <time>2019-03-21T09:59:04Z</time>
      </trkpt>
      <trkpt lat="43.70302" lon="3.01183">
        <ele>985.01</ele>
        <time>2019-03-21T09:59:19Z</time>
      </trkpt>
      <trkpt lat="43.70295" lon="3.01172">
        <ele>986.93</ele>
        <time>2019-03-21T09:59:33Z</time>
      </trkpt>
      <trkpt lat="43.70288" lon="3.01161">
        <ele>989.81</ele>
        <time>2019-03-21T09:59:50Z</time>
      </trkpt>
      <trkpt lat="43.70283" lon="3.01153">
        <ele>992.22</ele>
        <time>2019-03-21T10:00:04Z</time>
      </trkpt>
      <trkpt lat="43.70277" lon="3.01146">
        <ele>995.1</ele>
        <time>2019-03-21T10:00:19Z</time>
      </trkpt>
      <trkpt lat="43.70272" lon="3.01139">
        <ele>997.02</ele>
        <time>2019-03-21T10:00:31Z</time>
      </trkpt>
      <trkpt lat="43.70271" lon="3.01138">
        <ele>997.99</ele>
        <time>2019-03-21T10:00:45Z</time>
      </trkpt>
      <trkpt lat="43.70267" lon="3.01129">
        <ele>1000.39</ele>
        <time>2019-03-21T10:00:59Z</time>
      </trkpt>
      <trkpt lat="43.7026" lon="3.0112">
        <ele>1003.27</ele>
        <time>2019-03-21T10:01:15Z</time>
      </trkpt>
      <trkpt lat="43.70255" lon="3.01113">
        <ele>1005.68</ele>
        <time>2019-03-21T10:01:29Z</time>
      </trkpt>
      <trkpt lat="43.70249" lon="3.01106">
        <ele>1009.04</ele>
        <time>2019-03-21T10:01:44Z</time>
      </trkpt>
      <trkpt lat="43.70244" lon="3.011">
        <ele>1011.44</ele>
        <time>2019-03-21T10:01:58Z</time>
      </trkpt>
      <trkpt lat="43.70239" lon="3.01094">
        <ele>1013.37</ele>
        <time>2019-03-21T10:02:11Z</time>
      </trkpt>
      <trkpt lat="43.70237" lon="3.01095">
        <ele>1014.33</ele>
        <time>2019-03-21T10:02:26Z</time>
      </trkpt>
      <trkpt lat="43.70239" lon="3.01097">
        <ele>1014.33</ele>
        <time>2019-03-21T10:02:49Z</time>
      </trkpt>
      <trkpt lat="43.70234" lon="3.0109">
        <ele>1015.29</ele>
        <time>2019-03-21T10:03:11Z</time>
      </trkpt>
      <trkpt lat="43.7023" lon="3.01084">
        <ele>1017.69</ele>
        <time>2019-03-21T10:03:21Z</time>
      </trkpt>
      <trkpt lat="43.70228" lon="3.01083">
        <ele>1019.13</ele>
        <time>2019-03-21T10:03:32Z</time>
      </trkpt>
      <trkpt lat="43.70228" lon="3.01086">
        <ele>1019.13</ele>
        <time>2019-03-21T10:03:49Z</time>
      </trkpt>
      <trkpt lat="43.70229" lon="3.01086">
        <ele>1019.13</ele>
        <time>2019-03-21T10:03:54Z</time>
      </trkpt>
      <trkpt lat="43.70227" lon="3.01086">
        <ele>1019.13</ele>
        <time>2019-03-21T10:03:56Z</time>
      </trkpt>
      <trkpt lat="43.70218" lon="3.01087">
        <ele>1020.1</ele>
        <time>2019-03-21T10:04:05Z</time>
      </trkpt>
      <trkpt lat="43.70216" lon="3.01088">
        <ele>1020.58</ele>
        <time>2019-03-21T10:04:07Z</time>
      </trkpt>
      <trkpt lat="43.70203" lon="3.0109">
        <ele>1021.54</ele>
        <time>2019-03-21T10:04:20Z</time>
      </trkpt>
      <trkpt lat="43.70192" lon="3.0109">
        <ele>1023.46</ele>
        <time>2019-03-21T10:04:33Z</time>
      </trkpt>
      <trkpt lat="43.7019" lon="3.01089">
        <ele>1023.46</ele>
        <time>2019-03-21T10:04:35Z</time>
      </trkpt>
      <trkpt lat="43.70186" lon="3.01089">
        <ele>1024.42</ele>
        <time>2019-03-21T10:04:39Z</time>
      </trkpt>
      <trkpt lat="43.70172" lon="3.01082">
        <ele>1025.38</ele>
        <time>2019-03-21T10:04:53Z</time>
      </trkpt>
      <trkpt lat="43.70158" lon="3.01073">
        <ele>1026.34</ele>
        <time>2019-03-21T10:05:08Z</time>
      </trkpt>
      <trkpt lat="43.70147" lon="3.01065">
        <ele>1027.31</ele>
        <time>2019-03-21T10:05:21Z</time>
      </trkpt>
      <trkpt lat="43.70137" lon="3.01056">
        <ele>1028.27</ele>
        <time>2019-03-21T10:05:32Z</time>
      </trkpt>
      <trkpt lat="43.70124" lon="3.01042">
        <ele>1030.19</ele>
        <time>2019-03-21T10:05:49Z</time>
      </trkpt>
      <trkpt lat="43.70115" lon="3.01026">
        <ele>1031.63</ele>
        <time>2019-03-21T10:06:07Z</time>
      </trkpt>
      <trkpt lat="43.70109" lon="3.01012">
        <ele>1033.07</ele>
        <time>2019-03-21T10:06:34Z</time>
      </trkpt>
      <trkpt lat="43.70106" lon="3.01006">
        <ele>1033.07</ele>
        <time>2019-03-21T10:06:39Z</time>
      </trkpt>
      <trkpt lat="43.70096" lon="3.00984">
        <ele>1034.52</ele>
        <time>2019-03-21T10:06:58Z</time>
      </trkpt>
      <trkpt lat="43.70095" lon="3.00981">
        <ele>1035</ele>
        <time>2019-03-21T10:07:01Z</time>
      </trkpt>
      <trkpt lat="43.70092" lon="3.00976">
        <ele>1035.48</ele>
        <time>2019-03-21T10:07:06Z</time>
      </trkpt>
      <trkpt lat="43.70085" lon="3.00964">
        <ele>1036.44</ele>
        <time>2019-03-21T10:07:18Z</time>
      </trkpt>
      <trkpt lat="43.70082" lon="3.00957">
        <ele>1036.92</ele>
        <time>2019-03-21T10:07:23Z</time>
      </trkpt>
      <trkpt lat="43.70081" lon="3.00955">
        <ele>1036.92</ele>
        <time>2019-03-21T10:07:25Z</time>
      </trkpt>
      <trkpt lat="43.70079" lon="3.0095">
        <ele>1037.4</ele>
        <time>2019-03-21T10:07:29Z</time>
      </trkpt>
      <trkpt lat="43.70077" lon="3.00948">
        <ele>1037.4</ele>
        <time>2019-03-21T10:07:31Z</time>
      </trkpt>
      <trkpt lat="43.70071" lon="3.00934">
        <ele>1038.84</ele>
        <time>2019-03-21T10:07:42Z</time>
      </trkpt>
      <trkpt lat="43.70068" lon="3.0093">
        <ele>1039.32</ele>
        <time>2019-03-21T10:07:46Z</time>
      </trkpt>
      <trkpt lat="43.70067" lon="3.00928">
        <ele>1039.32</ele>
        <time>2019-03-21T10:07:48Z</time>
      </trkpt>
      <trkpt lat="43.70061" lon="3.00914">
        <ele>1041.25</ele>
        <time>2019-03-21T10:08:03Z</time>
      </trkpt>
      <trkpt lat="43.70055" lon="3.00902">
        <ele>1041.25</ele>
        <time>2019-03-21T10:08:15Z</time>
      </trkpt>
      <trkpt lat="43.70047" lon="3.00892">
        <ele>1041.73</ele>
        <time>2019-03-21T10:08:30Z</time>
      </trkpt>
      <trkpt lat="43.70046" lon="3.0089">
        <ele>1041.73</ele>
        <time>2019-03-21T10:08:45Z</time>
      </trkpt>
      <trkpt lat="43.70041" lon="3.00881">
        <ele>1039.32</ele>
        <time>2019-03-21T10:09:03Z</time>
      </trkpt>
      <trkpt lat="43.70034" lon="3.0087">
        <ele>1038.36</ele>
        <time>2019-03-21T10:09:16Z</time>
      </trkpt>
      <trkpt lat="43.70026" lon="3.00859">
        <ele>1037.4</ele>
        <time>2019-03-21T10:09:26Z</time>
      </trkpt>
      <trkpt lat="43.70024" lon="3.00856">
        <ele>1036.92</ele>
        <time>2019-03-21T10:09:28Z</time>
      </trkpt>
      <trkpt lat="43.70022" lon="3.00853">
        <ele>1036.92</ele>
        <time>2019-03-21T10:09:31Z</time>
      </trkpt>
      <trkpt lat="43.70018" lon="3.00849">
        <ele>1036.92</ele>
        <time>2019-03-21T10:09:35Z</time>
      </trkpt>
      <trkpt lat="43.70012" lon="3.00841">
        <ele>1036.92</ele>
        <time>2019-03-21T10:09:43Z</time>
      </trkpt>
      <trkpt lat="43.70007" lon="3.00836">
        <ele>1038.36</ele>
        <time>2019-03-21T10:09:50Z</time>
      </trkpt>
      <trkpt lat="43.70001" lon="3.00831">
        <ele>1039.8</ele>
        <time>2019-03-21T10:10:03Z</time>
      </trkpt>
      <trkpt lat="43.70001" lon="3.00825">
        <ele>1039.8</ele>
        <time>2019-03-21T10:10:18Z</time>
      </trkpt>
      <trkpt lat="43.69991" lon="3.00819">
        <ele>1041.73</ele>
        <time>2019-03-21T10:10:31Z</time>
      </trkpt>
      <trkpt lat="43.69984" lon="3.00814">
        <ele>1043.17</ele>
        <time>2019-03-21T10:10:42Z</time>
      </trkpt>
      <trkpt lat="43.69976" lon="3.00809">
        <ele>1045.09</ele>
        <time>2019-03-21T10:10:53Z</time>
      </trkpt>
      <trkpt lat="43.69967" lon="3.00802">
        <ele>1047.97</ele>
        <time>2019-03-21T10:11:07Z</time>
      </trkpt>
      <trkpt lat="43.69959" lon="3.00794">
        <ele>1049.9</ele>
        <time>2019-03-21T10:11:22Z</time>
      </trkpt>
      <trkpt lat="43.69951" lon="3.00788">
        <ele>1052.3</ele>
        <time>2019-03-21T10:11:35Z</time>
      </trkpt>
      <trkpt lat="43.69938" lon="3.00777">
        <ele>1055.18</ele>
        <time>2019-03-21T10:11:54Z</time>
      </trkpt>
      <trkpt lat="43.69938" lon="3.00777">
        <ele>1055.67</ele>
        <time>2019-03-21T10:11:55Z</time>
      </trkpt>
      <trkpt lat="43.69929" lon="3.0077">
        <ele>1057.59</ele>
        <time>2019-03-21T10:12:09Z</time>
      </trkpt>
      <trkpt lat="43.69923" lon="3.00765">
        <ele>1059.99</ele>
        <time>2019-03-21T10:12:22Z</time>
      </trkpt>
      <trkpt lat="43.69915" lon="3.0076">
        <ele>1061.91</ele>
        <time>2019-03-21T10:12:36Z</time>
      </trkpt>
      <trkpt lat="43.69911" lon="3.00758">
        <ele>1062.39</ele>
        <time>2019-03-21T10:12:43Z</time>
      </trkpt>
      <trkpt lat="43.69904" lon="3.00753">
        <ele>1064.32</ele>
        <time>2019-03-21T10:12:55Z</time>
      </trkpt>
      <trkpt lat="43.69895" lon="3.00747">
        <ele>1066.72</ele>
        <time>2019-03-21T10:13:07Z</time>
      </trkpt>
      <trkpt lat="43.69884" lon="3.00743">
        <ele>1068.64</ele>
        <time>2019-03-21T10:13:21Z</time>
      </trkpt>
      <trkpt lat="43.69879" lon="3.0074">
        <ele>1070.08</ele>
        <time>2019-03-21T10:13:28Z</time>
      </trkpt>
      <trkpt lat="43.69876" lon="3.00739">
        <ele>1070.57</ele>
        <time>2019-03-21T10:13:32Z</time>
      </trkpt>
      <trkpt lat="43.69874" lon="3.00737">
        <ele>1071.05</ele>
        <time>2019-03-21T10:13:34Z</time>
      </trkpt>
      <trkpt lat="43.69867" lon="3.00732">
        <ele>1072.97</ele>
        <time>2019-03-21T10:13:46Z</time>
      </trkpt>
      <trkpt lat="43.69857" lon="3.00726">
        <ele>1074.41</ele>
        <time>2019-03-21T10:13:59Z</time>
      </trkpt>
      <trkpt lat="43.6985" lon="3.00717">
        <ele>1076.81</ele>
        <time>2019-03-21T10:14:12Z</time>
      </trkpt>
      <trkpt lat="43.6984" lon="3.00706">
        <ele>1079.22</ele>
        <time>2019-03-21T10:14:28Z</time>
      </trkpt>
      <trkpt lat="43.69834" lon="3.00697">
        <ele>1081.14</ele>
        <time>2019-03-21T10:14:41Z</time>
      </trkpt>
      <trkpt lat="43.69833" lon="3.00696">
        <ele>1081.62</ele>
        <time>2019-03-21T10:14:43Z</time>
      </trkpt>
      <trkpt lat="43.69825" lon="3.00687">
        <ele>1082.58</ele>
        <time>2019-03-21T10:14:55Z</time>
      </trkpt>
      <trkpt lat="43.69818" lon="3.00676">
        <ele>1084.99</ele>
        <time>2019-03-21T10:15:08Z</time>
      </trkpt>
      <trkpt lat="43.69812" lon="3.00662">
        <ele>1087.39</ele>
        <time>2019-03-21T10:15:24Z</time>
      </trkpt>
      <trkpt lat="43.69802" lon="3.00656">
        <ele>1088.35</ele>
        <time>2019-03-21T10:15:39Z</time>
      </trkpt>
      <trkpt lat="43.69799" lon="3.00654">
        <ele>1088.35</ele>
        <time>2019-03-21T10:15:54Z</time>
      </trkpt>
      <trkpt lat="43.69799" lon="3.00654">
        <ele>1088.35</ele>
        <time>2019-03-21T10:16:07Z</time>
      </trkpt>
      <trkpt lat="43.69799" lon="3.00653">
        <ele>1088.35</ele>
        <time>2019-03-21T10:16:26Z</time>
      </trkpt>
      <trkpt lat="43.69799" lon="3.00654">
        <ele>1088.35</ele>
        <time>2019-03-21T10:16:43Z</time>
      </trkpt>
      <trkpt lat="43.69797" lon="3.00653">
        <ele>1088.35</ele>
        <time>2019-03-21T10:16:56Z</time>
      </trkpt>
      <trkpt lat="43.69798" lon="3.00653">
        <ele>1088.83</ele>
        <time>2019-03-21T10:17:18Z</time>
      </trkpt>
      <trkpt lat="43.69797" lon="3.00653">
        <ele>1088.83</ele>
        <time>2019-03-21T10:17:44Z</time>
      </trkpt>
      <trkpt lat="43.69796" lon="3.00653">
        <ele>1088.83</ele>
        <time>2019-03-21T10:18:01Z</time>
      </trkpt>
      <trkpt lat="43.69796" lon="3.00652">
        <ele>1088.83</ele>
        <time>2019-03-21T10:18:26Z</time>
      </trkpt>
      <trkpt lat="43.69798" lon="3.00652">
        <ele>1088.35</ele>
        <time>2019-03-21T10:18:59Z</time>
      </trkpt>
      <trkpt lat="43.69796" lon="3.00652">
        <ele>1088.35</ele>
        <time>2019-03-21T10:19:03Z</time>
      </trkpt>
      <trkpt lat="43.69793" lon="3.0065">
        <ele>1086.91</ele>
        <time>2019-03-21T10:19:07Z</time>
      </trkpt>
      <trkpt lat="43.69789" lon="3.00647">
        <ele>1085.95</ele>
        <time>2019-03-21T10:19:23Z</time>
      </trkpt>
      <trkpt lat="43.69788" lon="3.00646">
        <ele>1085.95</ele>
        <time>2019-03-21T10:19:43Z</time>
      </trkpt>
      <trkpt lat="43.69784" lon="3.00647">
        <ele>1085.95</ele>
        <time>2019-03-21T10:20:03Z</time>
      </trkpt>
      <trkpt lat="43.69782" lon="3.00649">
        <ele>1085.95</ele>
        <time>2019-03-21T10:20:22Z</time>
      </trkpt>
      <trkpt lat="43.69787" lon="3.00647">
        <ele>1085.95</ele>
        <time>2019-03-21T10:20:38Z</time>
      </trkpt>
      <trkpt lat="43.69788" lon="3.00648">
        <ele>1085.95</ele>
        <time>2019-03-21T10:20:39Z</time>
      </trkpt>
      <trkpt lat="43.69792" lon="3.00649">
        <ele>1086.91</ele>
        <time>2019-03-21T10:20:48Z</time>
      </trkpt>
      <trkpt lat="43.69794" lon="3.00649">
        <ele>1086.91</ele>
        <time>2019-03-21T10:20:54Z</time>
      </trkpt>
      <trkpt lat="43.69795" lon="3.00649">
        <ele>1087.39</ele>
        <time>2019-03-21T10:21:03Z</time>
      </trkpt>
      <trkpt lat="43.69795" lon="3.00648">
        <ele>1087.39</ele>
        <time>2019-03-21T10:21:21Z</time>
      </trkpt>
      <trkpt lat="43.69795" lon="3.00646">
        <ele>1087.87</ele>
        <time>2019-03-21T10:21:46Z</time>
      </trkpt>
      <trkpt lat="43.69795" lon="3.00647">
        <ele>1087.87</ele>
        <time>2019-03-21T10:22:13Z</time>
      </trkpt>
      <trkpt lat="43.69795" lon="3.00647">
        <ele>1086.91</ele>
        <time>2019-03-21T10:22:23Z</time>
      </trkpt>
      <trkpt lat="43.69792" lon="3.00645">
        <ele>1086.91</ele>
        <time>2019-03-21T10:22:41Z</time>
      </trkpt>
      <trkpt lat="43.6979" lon="3.00639">
        <ele>1086.43</ele>
        <time>2019-03-21T10:22:54Z</time>
      </trkpt>
      <trkpt lat="43.69787" lon="3.00634">
        <ele>1086.43</ele>
        <time>2019-03-21T10:27:29Z</time>
      </trkpt>
      <trkpt lat="43.6979" lon="3.00648">
        <ele>1086.43</ele>
        <time>2019-03-21T10:27:44Z</time>
      </trkpt>
      <trkpt lat="43.69791" lon="3.00651">
        <ele>1084.99</ele>
        <time>2019-03-21T10:27:51Z</time>
      </trkpt>
      <trkpt lat="43.69794" lon="3.00648">
        <ele>1086.43</ele>
        <time>2019-03-21T10:28:07Z</time>
      </trkpt>
      <trkpt lat="43.69795" lon="3.0065">
        <ele>1087.39</ele>
        <time>2019-03-21T10:28:22Z</time>
      </trkpt>
      <trkpt lat="43.69795" lon="3.00651">
        <ele>1087.39</ele>
        <time>2019-03-21T10:28:51Z</time>
      </trkpt>
      <trkpt lat="43.69795" lon="3.00651">
        <ele>1085.95</ele>
        <time>2019-03-21T10:28:55Z</time>
      </trkpt>
      <trkpt lat="43.69794" lon="3.00651">
        <ele>1085.47</ele>
        <time>2019-03-21T10:29:21Z</time>
      </trkpt>
      <trkpt lat="43.69795" lon="3.00651">
        <ele>1086.43</ele>
        <time>2019-03-21T10:29:38Z</time>
      </trkpt>
      <trkpt lat="43.69796" lon="3.00652">
        <ele>1086.43</ele>
        <time>2019-03-21T10:29:47Z</time>
      </trkpt>
      <trkpt lat="43.69798" lon="3.0065">
        <ele>1085.95</ele>
        <time>2019-03-21T10:29:59Z</time>
      </trkpt>
      <trkpt lat="43.69796" lon="3.00649">
        <ele>1086.91</ele>
        <time>2019-03-21T10:30:10Z</time>
      </trkpt>
      <trkpt lat="43.69797" lon="3.00651">
        <ele>1086.91</ele>
        <time>2019-03-21T10:30:23Z</time>
      </trkpt>
      <trkpt lat="43.698" lon="3.00652">
        <ele>1086.91</ele>
        <time>2019-03-21T10:30:34Z</time>
      </trkpt>
      <trkpt lat="43.69799" lon="3.00653">
        <ele>1087.39</ele>
        <time>2019-03-21T10:30:57Z</time>
      </trkpt>
      <trkpt lat="43.698" lon="3.00655">
        <ele>1087.39</ele>
        <time>2019-03-21T10:31:10Z</time>
      </trkpt>
      <trkpt lat="43.69799" lon="3.00653">
        <ele>1087.39</ele>
        <time>2019-03-21T10:31:23Z</time>
      </trkpt>
      <trkpt lat="43.69799" lon="3.00652">
        <ele>1087.39</ele>
        <time>2019-03-21T10:31:41Z</time>
      </trkpt>
      <trkpt lat="43.69809" lon="3.00654">
        <ele>1087.39</ele>
        <time>2019-03-21T10:31:49Z</time>
      </trkpt>
      <trkpt lat="43.69812" lon="3.00658">
        <ele>1085.95</ele>
        <time>2019-03-21T10:31:52Z</time>
      </trkpt>
      <trkpt lat="43.69822" lon="3.00668">
        <ele>1083.54</ele>
        <time>2019-03-21T10:32:04Z</time>
      </trkpt>
      <trkpt lat="43.69825" lon="3.00671">
        <ele>1082.58</ele>
        <time>2019-03-21T10:32:07Z</time>
      </trkpt>
      <trkpt lat="43.69828" lon="3.00674">
        <ele>1082.1</ele>
        <time>2019-03-21T10:32:11Z</time>
      </trkpt>
      <trkpt lat="43.69835" lon="3.00674">
        <ele>1079.22</ele>
        <time>2019-03-21T10:32:20Z</time>
      </trkpt>
      <trkpt lat="43.69839" lon="3.00673">
        <ele>1078.26</ele>
        <time>2019-03-21T10:32:27Z</time>
      </trkpt>
      <trkpt lat="43.69845" lon="3.0067">
        <ele>1075.37</ele>
        <time>2019-03-21T10:32:44Z</time>
      </trkpt>
      <trkpt lat="43.69854" lon="3.00669">
        <ele>1072.49</ele>
        <time>2019-03-21T10:32:56Z</time>
      </trkpt>
      <trkpt lat="43.69861" lon="3.00662">
        <ele>1069.12</ele>
        <time>2019-03-21T10:33:07Z</time>
      </trkpt>
      <trkpt lat="43.69865" lon="3.00647">
        <ele>1067.2</ele>
        <time>2019-03-21T10:33:23Z</time>
      </trkpt>
      <trkpt lat="43.69864" lon="3.00632">
        <ele>1065.76</ele>
        <time>2019-03-21T10:33:37Z</time>
      </trkpt>
      <trkpt lat="43.69863" lon="3.00614">
        <ele>1064.8</ele>
        <time>2019-03-21T10:33:53Z</time>
      </trkpt>
      <trkpt lat="43.6986" lon="3.00594">
        <ele>1063.84</ele>
        <time>2019-03-21T10:34:11Z</time>
      </trkpt>
      <trkpt lat="43.69857" lon="3.00582">
        <ele>1063.36</ele>
        <time>2019-03-21T10:34:25Z</time>
      </trkpt>
      <trkpt lat="43.69854" lon="3.00575">
        <ele>1063.36</ele>
        <time>2019-03-21T10:34:39Z</time>
      </trkpt>
      <trkpt lat="43.69851" lon="3.00562">
        <ele>1062.39</ele>
        <time>2019-03-21T10:34:53Z</time>
      </trkpt>
      <trkpt lat="43.6985" lon="3.00547">
        <ele>1059.51</ele>
        <time>2019-03-21T10:35:09Z</time>
      </trkpt>
      <trkpt lat="43.69852" lon="3.00537">
        <ele>1057.59</ele>
        <time>2019-03-21T10:35:22Z</time>
      </trkpt>
      <trkpt lat="43.69855" lon="3.00527">
        <ele>1054.22</ele>
        <time>2019-03-21T10:35:38Z</time>
      </trkpt>
      <trkpt lat="43.69861" lon="3.00519">
        <ele>1050.86</ele>
        <time>2019-03-21T10:35:51Z</time>
      </trkpt>
      <trkpt lat="43.69861" lon="3.00517">
        <ele>1050.38</ele>
        <time>2019-03-21T10:35:53Z</time>
      </trkpt>
      <trkpt lat="43.6986" lon="3.00505">
        <ele>1048.45</ele>
        <time>2019-03-21T10:36:07Z</time>
      </trkpt>
      <trkpt lat="43.69858" lon="3.00494">
        <ele>1046.53</ele>
        <time>2019-03-21T10:36:23Z</time>
      </trkpt>
      <trkpt lat="43.69857" lon="3.00485">
        <ele>1044.13</ele>
        <time>2019-03-21T10:36:41Z</time>
      </trkpt>
      <trkpt lat="43.69858" lon="3.00479">
        <ele>1040.76</ele>
        <time>2019-03-21T10:36:55Z</time>
      </trkpt>
      <trkpt lat="43.6986" lon="3.00477">
        <ele>1039.8</ele>
        <time>2019-03-21T10:37:14Z</time>
      </trkpt>
      <trkpt lat="43.69859" lon="3.00467">
        <ele>1037.88</ele>
        <time>2019-03-21T10:37:32Z</time>
      </trkpt>
      <trkpt lat="43.69863" lon="3.00461">
        <ele>1035.48</ele>
        <time>2019-03-21T10:37:47Z</time>
      </trkpt>
      <trkpt lat="43.69869" lon="3.00462">
        <ele>1034.52</ele>
        <time>2019-03-21T10:38:01Z</time>
      </trkpt>
      <trkpt lat="43.69873" lon="3.00458">
        <ele>1031.63</ele>
        <time>2019-03-21T10:38:13Z</time>
      </trkpt>
      <trkpt lat="43.69874" lon="3.0045">
        <ele>1028.75</ele>
        <time>2019-03-21T10:38:24Z</time>
      </trkpt>
      <trkpt lat="43.69876" lon="3.00441">
        <ele>1025.86</ele>
        <time>2019-03-21T10:38:37Z</time>
      </trkpt>
      <trkpt lat="43.69879" lon="3.00432">
        <ele>1023.46</ele>
        <time>2019-03-21T10:38:50Z</time>
      </trkpt>
      <trkpt lat="43.69881" lon="3.00429">
        <ele>1022.5</ele>
        <time>2019-03-21T10:38:55Z</time>
      </trkpt>
      <trkpt lat="43.69883" lon="3.00419">
        <ele>1019.13</ele>
        <time>2019-03-21T10:39:10Z</time>
      </trkpt>
      <trkpt lat="43.69887" lon="3.00409">
        <ele>1015.77</ele>
        <time>2019-03-21T10:39:25Z</time>
      </trkpt>
      <trkpt lat="43.69894" lon="3.00399">
        <ele>1012.41</ele>
        <time>2019-03-21T10:39:42Z</time>
      </trkpt>
      <trkpt lat="43.69901" lon="3.00392">
        <ele>1009.52</ele>
        <time>2019-03-21T10:39:59Z</time>
      </trkpt>
      <trkpt lat="43.69907" lon="3.00385">
        <ele>1006.16</ele>
        <time>2019-03-21T10:40:13Z</time>
      </trkpt>
      <trkpt lat="43.69916" lon="3.00383">
        <ele>1003.27</ele>
        <time>2019-03-21T10:40:29Z</time>
      </trkpt>
      <trkpt lat="43.69922" lon="3.00377">
        <ele>999.91</ele>
        <time>2019-03-21T10:40:42Z</time>
      </trkpt>
      <trkpt lat="43.69924" lon="3.00366">
        <ele>997.99</ele>
        <time>2019-03-21T10:40:53Z</time>
      </trkpt>
      <trkpt lat="43.69924" lon="3.00353">
        <ele>994.62</ele>
        <time>2019-03-21T10:41:05Z</time>
      </trkpt>
      <trkpt lat="43.69924" lon="3.0034">
        <ele>991.74</ele>
        <time>2019-03-21T10:41:18Z</time>
      </trkpt>
      <trkpt lat="43.69926" lon="3.00333">
        <ele>988.85</ele>
        <time>2019-03-21T10:41:30Z</time>
      </trkpt>
      <trkpt lat="43.69932" lon="3.00332">
        <ele>986.93</ele>
        <time>2019-03-21T10:41:42Z</time>
      </trkpt>
      <trkpt lat="43.69931" lon="3.00323">
        <ele>984.05</ele>
        <time>2019-03-21T10:41:54Z</time>
      </trkpt>
      <trkpt lat="43.69935" lon="3.00318">
        <ele>982.6</ele>
        <time>2019-03-21T10:42:06Z</time>
      </trkpt>
      <trkpt lat="43.69942" lon="3.00318">
        <ele>979.72</ele>
        <time>2019-03-21T10:42:22Z</time>
      </trkpt>
      <trkpt lat="43.69947" lon="3.00317">
        <ele>977.8</ele>
        <time>2019-03-21T10:42:34Z</time>
      </trkpt>
      <trkpt lat="43.69949" lon="3.00313">
        <ele>974.91</ele>
        <time>2019-03-21T10:42:46Z</time>
      </trkpt>
      <trkpt lat="43.69949" lon="3.00305">
        <ele>972.51</ele>
        <time>2019-03-21T10:43:00Z</time>
      </trkpt>
      <trkpt lat="43.69953" lon="3.003">
        <ele>970.11</ele>
        <time>2019-03-21T10:43:13Z</time>
      </trkpt>
      <trkpt lat="43.69953" lon="3.00289">
        <ele>968.67</ele>
        <time>2019-03-21T10:43:24Z</time>
      </trkpt>
      <trkpt lat="43.69952" lon="3.00282">
        <ele>966.26</ele>
        <time>2019-03-21T10:43:38Z</time>
      </trkpt>
      <trkpt lat="43.6995" lon="3.00273">
        <ele>964.34</ele>
        <time>2019-03-21T10:43:52Z</time>
      </trkpt>
      <trkpt lat="43.6995" lon="3.00268">
        <ele>962.42</ele>
        <time>2019-03-21T10:44:03Z</time>
      </trkpt>
      <trkpt lat="43.69949" lon="3.00264">
        <ele>960.01</ele>
        <time>2019-03-21T10:44:17Z</time>
      </trkpt>
      <trkpt lat="43.69953" lon="3.00261">
        <ele>958.57</ele>
        <time>2019-03-21T10:44:32Z</time>
      </trkpt>
      <trkpt lat="43.69958" lon="3.00258">
        <ele>956.17</ele>
        <time>2019-03-21T10:44:49Z</time>
      </trkpt>
      <trkpt lat="43.69962" lon="3.00252">
        <ele>953.28</ele>
        <time>2019-03-21T10:45:01Z</time>
      </trkpt>
      <trkpt lat="43.69967" lon="3.00247">
        <ele>949.92</ele>
        <time>2019-03-21T10:45:14Z</time>
      </trkpt>
      <trkpt lat="43.69971" lon="3.00241">
        <ele>946.56</ele>
        <time>2019-03-21T10:45:29Z</time>
      </trkpt>
      <trkpt lat="43.69973" lon="3.00227">
        <ele>943.67</ele>
        <time>2019-03-21T10:45:45Z</time>
      </trkpt>
      <trkpt lat="43.69978" lon="3.00223">
        <ele>942.23</ele>
        <time>2019-03-21T10:45:56Z</time>
      </trkpt>
      <trkpt lat="43.69981" lon="3.00215">
        <ele>939.35</ele>
        <time>2019-03-21T10:46:09Z</time>
      </trkpt>
      <trkpt lat="43.69986" lon="3.0021">
        <ele>937.42</ele>
        <time>2019-03-21T10:46:17Z</time>
      </trkpt>
      <trkpt lat="43.69985" lon="3.00199">
        <ele>935.98</ele>
        <time>2019-03-21T10:46:29Z</time>
      </trkpt>
      <trkpt lat="43.69989" lon="3.00191">
        <ele>933.58</ele>
        <time>2019-03-21T10:46:41Z</time>
      </trkpt>
      <trkpt lat="43.69997" lon="3.00189">
        <ele>930.69</ele>
        <time>2019-03-21T10:46:55Z</time>
      </trkpt>
      <trkpt lat="43.70002" lon="3.00183">
        <ele>929.25</ele>
        <time>2019-03-21T10:47:07Z</time>
      </trkpt>
      <trkpt lat="43.70004" lon="3.0018">
        <ele>928.77</ele>
        <time>2019-03-21T10:47:11Z</time>
      </trkpt>
      <trkpt lat="43.70005" lon="3.00167">
        <ele>928.77</ele>
        <time>2019-03-21T10:47:24Z</time>
      </trkpt>
      <trkpt lat="43.70001" lon="3.00154">
        <ele>929.73</ele>
        <time>2019-03-21T10:47:38Z</time>
      </trkpt>
      <trkpt lat="43.69998" lon="3.00148">
        <ele>929.73</ele>
        <time>2019-03-21T10:47:46Z</time>
      </trkpt>
      <trkpt lat="43.69993" lon="3.00141">
        <ele>928.29</ele>
        <time>2019-03-21T10:47:54Z</time>
      </trkpt>
      <trkpt lat="43.69986" lon="3.00127">
        <ele>926.85</ele>
        <time>2019-03-21T10:48:09Z</time>
      </trkpt>
      <trkpt lat="43.69979" lon="3.00119">
        <ele>924.45</ele>
        <time>2019-03-21T10:48:25Z</time>
      </trkpt>
      <trkpt lat="43.69975" lon="3.00114">
        <ele>923.48</ele>
        <time>2019-03-21T10:48:41Z</time>
      </trkpt>
      <trkpt lat="43.69974" lon="3.00112">
        <ele>923</ele>
        <time>2019-03-21T10:49:00Z</time>
      </trkpt>
      <trkpt lat="43.6997" lon="3.00106">
        <ele>922.52</ele>
        <time>2019-03-21T10:49:15Z</time>
      </trkpt>
      <trkpt lat="43.69963" lon="3.00097">
        <ele>919.64</ele>
        <time>2019-03-21T10:49:31Z</time>
      </trkpt>
      <trkpt lat="43.69959" lon="3.00089">
        <ele>918.2</ele>
        <time>2019-03-21T10:49:46Z</time>
      </trkpt>
      <trkpt lat="43.69953" lon="3.00081">
        <ele>915.31</ele>
        <time>2019-03-21T10:50:00Z</time>
      </trkpt>
      <trkpt lat="43.69947" lon="3.00076">
        <ele>912.43</ele>
        <time>2019-03-21T10:50:12Z</time>
      </trkpt>
      <trkpt lat="43.69943" lon="3.00067">
        <ele>910.99</ele>
        <time>2019-03-21T10:50:25Z</time>
      </trkpt>
      <trkpt lat="43.69939" lon="3.00065">
        <ele>909.54</ele>
        <time>2019-03-21T10:50:34Z</time>
      </trkpt>
      <trkpt lat="43.69932" lon="3.00051">
        <ele>908.1</ele>
        <time>2019-03-21T10:50:48Z</time>
      </trkpt>
      <trkpt lat="43.69924" lon="3.00047">
        <ele>907.62</ele>
        <time>2019-03-21T10:51:02Z</time>
      </trkpt>
      <trkpt lat="43.6992" lon="3.00043">
        <ele>905.7</ele>
        <time>2019-03-21T10:51:15Z</time>
      </trkpt>
      <trkpt lat="43.69914" lon="3.0004">
        <ele>902.82</ele>
        <time>2019-03-21T10:51:27Z</time>
      </trkpt>
      <trkpt lat="43.69907" lon="3.00034">
        <ele>901.37</ele>
        <time>2019-03-21T10:51:39Z</time>
      </trkpt>
      <trkpt lat="43.69906" lon="3.00033">
        <ele>900.89</ele>
        <time>2019-03-21T10:51:50Z</time>
      </trkpt>
      <trkpt lat="43.69905" lon="3.00027">
        <ele>900.89</ele>
        <time>2019-03-21T10:52:00Z</time>
      </trkpt>
      <trkpt lat="43.69904" lon="3.00024">
        <ele>902.33</ele>
        <time>2019-03-21T10:52:04Z</time>
      </trkpt>
      <trkpt lat="43.69901" lon="3.0002">
        <ele>901.37</ele>
        <time>2019-03-21T10:52:13Z</time>
      </trkpt>
      <trkpt lat="43.69898" lon="3.00019">
        <ele>899.45</ele>
        <time>2019-03-21T10:52:25Z</time>
      </trkpt>
      <trkpt lat="43.69895" lon="3.00016">
        <ele>898.97</ele>
        <time>2019-03-21T10:52:44Z</time>
      </trkpt>
      <trkpt lat="43.69893" lon="3.00015">
        <ele>897.05</ele>
        <time>2019-03-21T10:52:54Z</time>
      </trkpt>
      <trkpt lat="43.69892" lon="3.00007">
        <ele>896.57</ele>
        <time>2019-03-21T10:53:09Z</time>
      </trkpt>
      <trkpt lat="43.69893" lon="3.00009">
        <ele>898.01</ele>
        <time>2019-03-21T10:53:11Z</time>
      </trkpt>
      <trkpt lat="43.69898" lon="3.0001">
        <ele>900.89</ele>
        <time>2019-03-21T10:53:21Z</time>
      </trkpt>
      <trkpt lat="43.69901" lon="3.00001">
        <ele>903.3</ele>
        <time>2019-03-21T10:53:35Z</time>
      </trkpt>
      <trkpt lat="43.69899" lon="2.99994">
        <ele>904.26</ele>
        <time>2019-03-21T10:53:50Z</time>
      </trkpt>
      <trkpt lat="43.699" lon="2.99987">
        <ele>905.22</ele>
        <time>2019-03-21T10:54:05Z</time>
      </trkpt>
      <trkpt lat="43.69899" lon="2.99978">
        <ele>905.22</ele>
        <time>2019-03-21T10:54:18Z</time>
      </trkpt>
      <trkpt lat="43.699" lon="2.99966">
        <ele>903.3</ele>
        <time>2019-03-21T10:54:31Z</time>
      </trkpt>
      <trkpt lat="43.69902" lon="2.99957">
        <ele>904.74</ele>
        <time>2019-03-21T10:54:38Z</time>
      </trkpt>
      <trkpt lat="43.69901" lon="2.99946">
        <ele>904.26</ele>
        <time>2019-03-21T10:54:49Z</time>
      </trkpt>
      <trkpt lat="43.69905" lon="2.99936">
        <ele>905.22</ele>
        <time>2019-03-21T10:55:01Z</time>
      </trkpt>
      <trkpt lat="43.69908" lon="2.99928">
        <ele>905.22</ele>
        <time>2019-03-21T10:55:09Z</time>
      </trkpt>
      <trkpt lat="43.69909" lon="2.99911">
        <ele>904.26</ele>
        <time>2019-03-21T10:55:21Z</time>
      </trkpt>
      <trkpt lat="43.69908" lon="2.99895">
        <ele>903.78</ele>
        <time>2019-03-21T10:55:35Z</time>
      </trkpt>
      <trkpt lat="43.69908" lon="2.99884">
        <ele>903.78</ele>
        <time>2019-03-21T10:55:46Z</time>
      </trkpt>
      <trkpt lat="43.69908" lon="2.9988">
        <ele>902.82</ele>
        <time>2019-03-21T10:55:50Z</time>
      </trkpt>
      <trkpt lat="43.69905" lon="2.9987">
        <ele>902.33</ele>
        <time>2019-03-21T10:56:03Z</time>
      </trkpt>
      <trkpt lat="43.69903" lon="2.99869">
        <ele>901.85</ele>
        <time>2019-03-21T10:56:18Z</time>
      </trkpt>
      <trkpt lat="43.69901" lon="2.99865">
        <ele>901.37</ele>
        <time>2019-03-21T10:56:36Z</time>
      </trkpt>
      <trkpt lat="43.699" lon="2.99857">
        <ele>899.45</ele>
        <time>2019-03-21T10:56:47Z</time>
      </trkpt>
      <trkpt lat="43.69897" lon="2.99853">
        <ele>898.49</ele>
        <time>2019-03-21T10:57:04Z</time>
      </trkpt>
      <trkpt lat="43.69891" lon="2.99852">
        <ele>897.53</ele>
        <time>2019-03-21T10:57:16Z</time>
      </trkpt>
      <trkpt lat="43.6989" lon="2.99847">
        <ele>896.57</ele>
        <time>2019-03-21T10:57:34Z</time>
      </trkpt>
      <trkpt lat="43.69888" lon="2.99844">
        <ele>896.09</ele>
        <time>2019-03-21T10:57:37Z</time>
      </trkpt>
      <trkpt lat="43.69893" lon="2.99831">
        <ele>893.2</ele>
        <time>2019-03-21T10:57:51Z</time>
      </trkpt>
      <trkpt lat="43.69892" lon="2.99828">
        <ele>892.72</ele>
        <time>2019-03-21T10:57:54Z</time>
      </trkpt>
      <trkpt lat="43.69889" lon="2.99815">
        <ele>890.32</ele>
        <time>2019-03-21T10:58:06Z</time>
      </trkpt>
      <trkpt lat="43.69888" lon="2.99807">
        <ele>889.36</ele>
        <time>2019-03-21T10:58:18Z</time>
      </trkpt>
      <trkpt lat="43.69884" lon="2.99794">
        <ele>886.95</ele>
        <time>2019-03-21T10:58:32Z</time>
      </trkpt>
      <trkpt lat="43.69884" lon="2.99783">
        <ele>884.07</ele>
        <time>2019-03-21T10:58:48Z</time>
      </trkpt>
      <trkpt lat="43.69884" lon="2.99772">
        <ele>881.67</ele>
        <time>2019-03-21T10:59:01Z</time>
      </trkpt>
      <trkpt lat="43.69879" lon="2.99762">
        <ele>879.26</ele>
        <time>2019-03-21T10:59:16Z</time>
      </trkpt>
      <trkpt lat="43.69877" lon="2.9975">
        <ele>876.86</ele>
        <time>2019-03-21T10:59:30Z</time>
      </trkpt>
      <trkpt lat="43.69875" lon="2.99738">
        <ele>875.42</ele>
        <time>2019-03-21T10:59:45Z</time>
      </trkpt>
      <trkpt lat="43.69877" lon="2.99731">
        <ele>875.42</ele>
        <time>2019-03-21T11:00:02Z</time>
      </trkpt>
      <trkpt lat="43.69876" lon="2.99726">
        <ele>874.46</ele>
        <time>2019-03-21T11:00:32Z</time>
      </trkpt>
      <trkpt lat="43.69875" lon="2.99719">
        <ele>873.98</ele>
        <time>2019-03-21T11:00:44Z</time>
      </trkpt>
      <trkpt lat="43.69875" lon="2.99717">
        <ele>873.5</ele>
        <time>2019-03-21T11:01:05Z</time>
      </trkpt>
      <trkpt lat="43.69875" lon="2.99719">
        <ele>873.01</ele>
        <time>2019-03-21T11:01:28Z</time>
      </trkpt>
      <trkpt lat="43.69877" lon="2.99719">
        <ele>872.53</ele>
        <time>2019-03-21T11:01:46Z</time>
      </trkpt>
      <trkpt lat="43.69876" lon="2.99721">
        <ele>872.53</ele>
        <time>2019-03-21T11:02:12Z</time>
      </trkpt>
      <trkpt lat="43.69876" lon="2.9972">
        <ele>872.53</ele>
        <time>2019-03-21T11:02:38Z</time>
      </trkpt>
      <trkpt lat="43.69876" lon="2.99719">
        <ele>872.53</ele>
        <time>2019-03-21T11:03:05Z</time>
      </trkpt>
      <trkpt lat="43.69876" lon="2.99719">
        <ele>872.53</ele>
        <time>2019-03-21T11:03:31Z</time>
      </trkpt>
      <trkpt lat="43.69877" lon="2.99718">
        <ele>873.01</ele>
        <time>2019-03-21T11:04:07Z</time>
      </trkpt>
      <trkpt lat="43.69876" lon="2.99719">
        <ele>873.01</ele>
        <time>2019-03-21T11:04:38Z</time>
      </trkpt>
      <trkpt lat="43.69876" lon="2.99719">
        <ele>873.01</ele>
        <time>2019-03-21T11:05:10Z</time>
      </trkpt>
      <trkpt lat="43.69876" lon="2.99718">
        <ele>873.01</ele>
        <time>2019-03-21T11:05:38Z</time>
      </trkpt>
      <trkpt lat="43.69875" lon="2.99719">
        <ele>873.01</ele>
        <time>2019-03-21T11:06:12Z</time>
      </trkpt>
      <trkpt lat="43.69875" lon="2.99718">
        <ele>873.01</ele>
        <time>2019-03-21T11:06:47Z</time>
      </trkpt>
      <trkpt lat="43.69875" lon="2.99718">
        <ele>873.01</ele>
        <time>2019-03-21T11:07:19Z</time>
      </trkpt>
      <trkpt lat="43.69874" lon="2.9972">
        <ele>873.01</ele>
        <time>2019-03-21T11:07:46Z</time>
      </trkpt>
      <trkpt lat="43.69876" lon="2.99719">
        <ele>873.5</ele>
        <time>2019-03-21T11:08:10Z</time>
      </trkpt>
      <trkpt lat="43.69876" lon="2.99719">
        <ele>873.5</ele>
        <time>2019-03-21T11:08:35Z</time>
      </trkpt>
      <trkpt lat="43.69876" lon="2.99719">
        <ele>873.5</ele>
        <time>2019-03-21T11:09:03Z</time>
      </trkpt>
      <trkpt lat="43.69875" lon="2.99718">
        <ele>873.5</ele>
        <time>2019-03-21T11:09:35Z</time>
      </trkpt>
      <trkpt lat="43.69875" lon="2.9972">
        <ele>873.5</ele>
        <time>2019-03-21T11:10:06Z</time>
      </trkpt>
      <trkpt lat="43.69876" lon="2.99719">
        <ele>873.5</ele>
        <time>2019-03-21T11:10:48Z</time>
      </trkpt>
      <trkpt lat="43.69875" lon="2.99719">
        <ele>873.5</ele>
        <time>2019-03-21T11:11:26Z</time>
      </trkpt>
      <trkpt lat="43.69876" lon="2.99718">
        <ele>873.5</ele>
        <time>2019-03-21T11:11:58Z</time>
      </trkpt>
      <trkpt lat="43.69876" lon="2.99718">
        <ele>873.5</ele>
        <time>2019-03-21T11:12:37Z</time>
      </trkpt>
      <trkpt lat="43.69876" lon="2.99719">
        <ele>873.5</ele>
        <time>2019-03-21T11:13:02Z</time>
      </trkpt>
      <trkpt lat="43.69876" lon="2.99719">
        <ele>873.5</ele>
        <time>2019-03-21T11:13:25Z</time>
      </trkpt>
      <trkpt lat="43.69877" lon="2.99719">
        <ele>873.5</ele>
        <time>2019-03-21T11:14:03Z</time>
      </trkpt>
      <trkpt lat="43.69878" lon="2.99719">
        <ele>873.5</ele>
        <time>2019-03-21T11:14:33Z</time>
      </trkpt>
      <trkpt lat="43.69878" lon="2.99719">
        <ele>873.5</ele>
        <time>2019-03-21T11:15:03Z</time>
      </trkpt>
      <trkpt lat="43.69878" lon="2.99719">
        <ele>873.98</ele>
        <time>2019-03-21T11:15:40Z</time>
      </trkpt>
      <trkpt lat="43.69878" lon="2.99718">
        <ele>873.98</ele>
        <time>2019-03-21T11:16:19Z</time>
      </trkpt>
      <trkpt lat="43.69878" lon="2.99718">
        <ele>873.98</ele>
        <time>2019-03-21T11:16:48Z</time>
      </trkpt>
      <trkpt lat="43.69877" lon="2.99719">
        <ele>873.98</ele>
        <time>2019-03-21T11:17:19Z</time>
      </trkpt>
      <trkpt lat="43.69876" lon="2.99718">
        <ele>873.98</ele>
        <time>2019-03-21T11:17:47Z</time>
      </trkpt>
      <trkpt lat="43.69877" lon="2.99719">
        <ele>873.98</ele>
        <time>2019-03-21T11:18:15Z</time>
      </trkpt>
      <trkpt lat="43.69877" lon="2.99719">
        <ele>873.98</ele>
        <time>2019-03-21T11:18:45Z</time>
      </trkpt>
      <trkpt lat="43.69876" lon="2.99719">
        <ele>873.98</ele>
        <time>2019-03-21T11:19:11Z</time>
      </trkpt>
      <trkpt lat="43.69876" lon="2.99719">
        <ele>873.98</ele>
        <time>2019-03-21T11:19:33Z</time>
      </trkpt>
      <trkpt lat="43.69876" lon="2.99719">
        <ele>873.98</ele>
        <time>2019-03-21T11:20:02Z</time>
      </trkpt>
      <trkpt lat="43.69875" lon="2.99719">
        <ele>874.94</ele>
        <time>2019-03-21T11:20:36Z</time>
      </trkpt>
      <trkpt lat="43.69876" lon="2.99719">
        <ele>874.94</ele>
        <time>2019-03-21T11:20:58Z</time>
      </trkpt>
      <trkpt lat="43.69876" lon="2.99718">
        <ele>874.94</ele>
        <time>2019-03-21T11:21:23Z</time>
      </trkpt>
      <trkpt lat="43.69876" lon="2.99717">
        <ele>874.94</ele>
        <time>2019-03-21T11:21:41Z</time>
      </trkpt>
      <trkpt lat="43.69877" lon="2.99716">
        <ele>875.42</ele>
        <time>2019-03-21T11:21:55Z</time>
      </trkpt>
      <trkpt lat="43.69875" lon="2.99712">
        <ele>875.42</ele>
        <time>2019-03-21T11:22:06Z</time>
      </trkpt>
      <trkpt lat="43.69875" lon="2.99712">
        <ele>875.42</ele>
        <time>2019-03-21T11:22:32Z</time>
      </trkpt>
      <trkpt lat="43.69877" lon="2.99713">
        <ele>875.42</ele>
        <time>2019-03-21T11:23:00Z</time>
      </trkpt>
      <trkpt lat="43.69875" lon="2.99715">
        <ele>875.42</ele>
        <time>2019-03-21T11:23:14Z</time>
      </trkpt>
      <trkpt lat="43.69875" lon="2.99714">
        <ele>875.42</ele>
        <time>2019-03-21T11:23:30Z</time>
      </trkpt>
      <trkpt lat="43.69876" lon="2.99716">
        <ele>875.42</ele>
        <time>2019-03-21T11:23:58Z</time>
      </trkpt>
      <trkpt lat="43.69877" lon="2.99717">
        <ele>875.42</ele>
        <time>2019-03-21T11:24:24Z</time>
      </trkpt>
      <trkpt lat="43.69876" lon="2.99717">
        <ele>875.42</ele>
        <time>2019-03-21T11:24:42Z</time>
      </trkpt>
      <trkpt lat="43.69877" lon="2.99717">
        <ele>875.42</ele>
        <time>2019-03-21T11:24:55Z</time>
      </trkpt>
      <trkpt lat="43.69876" lon="2.99716">
        <ele>875.42</ele>
        <time>2019-03-21T11:25:09Z</time>
      </trkpt>
      <trkpt lat="43.69877" lon="2.99712">
        <ele>875.42</ele>
        <time>2019-03-21T11:25:25Z</time>
      </trkpt>
      <trkpt lat="43.69875" lon="2.99715">
        <ele>875.42</ele>
        <time>2019-03-21T11:25:49Z</time>
      </trkpt>
      <trkpt lat="43.69877" lon="2.99716">
        <ele>875.42</ele>
        <time>2019-03-21T11:26:02Z</time>
      </trkpt>
      <trkpt lat="43.69877" lon="2.99717">
        <ele>875.42</ele>
        <time>2019-03-21T11:26:17Z</time>
      </trkpt>
      <trkpt lat="43.69878" lon="2.99718">
        <ele>875.42</ele>
        <time>2019-03-21T11:26:51Z</time>
      </trkpt>
      <trkpt lat="43.69876" lon="2.99716">
        <ele>875.42</ele>
        <time>2019-03-21T11:27:09Z</time>
      </trkpt>
      <trkpt lat="43.69876" lon="2.99717">
        <ele>875.42</ele>
        <time>2019-03-21T11:27:22Z</time>
      </trkpt>
      <trkpt lat="43.69879" lon="2.99719">
        <ele>875.42</ele>
        <time>2019-03-21T11:27:33Z</time>
      </trkpt>
      <trkpt lat="43.69878" lon="2.99716">
        <ele>875.42</ele>
        <time>2019-03-21T11:28:00Z</time>
      </trkpt>
      <trkpt lat="43.69879" lon="2.99718">
        <ele>875.42</ele>
        <time>2019-03-21T11:28:34Z</time>
      </trkpt>
      <trkpt lat="43.6988" lon="2.99719">
        <ele>875.42</ele>
        <time>2019-03-21T11:29:12Z</time>
      </trkpt>
      <trkpt lat="43.69878" lon="2.99717">
        <ele>875.42</ele>
        <time>2019-03-21T11:29:36Z</time>
      </trkpt>
      <trkpt lat="43.69878" lon="2.99718">
        <ele>875.42</ele>
        <time>2019-03-21T11:30:01Z</time>
      </trkpt>
      <trkpt lat="43.69878" lon="2.99717">
        <ele>875.42</ele>
        <time>2019-03-21T11:30:22Z</time>
      </trkpt>
      <trkpt lat="43.69879" lon="2.99719">
        <ele>875.42</ele>
        <time>2019-03-21T11:30:52Z</time>
      </trkpt>
      <trkpt lat="43.69881" lon="2.99719">
        <ele>875.42</ele>
        <time>2019-03-21T11:31:32Z</time>
      </trkpt>
      <trkpt lat="43.69878" lon="2.99718">
        <ele>875.42</ele>
        <time>2019-03-21T11:31:58Z</time>
      </trkpt>
      <trkpt lat="43.69879" lon="2.99717">
        <ele>875.9</ele>
        <time>2019-03-21T11:32:25Z</time>
      </trkpt>
      <trkpt lat="43.69878" lon="2.99717">
        <ele>875.9</ele>
        <time>2019-03-21T11:32:54Z</time>
      </trkpt>
      <trkpt lat="43.69879" lon="2.99716">
        <ele>875.9</ele>
        <time>2019-03-21T11:33:14Z</time>
      </trkpt>
      <trkpt lat="43.6988" lon="2.99717">
        <ele>875.9</ele>
        <time>2019-03-21T11:33:41Z</time>
      </trkpt>
      <trkpt lat="43.69877" lon="2.99721">
        <ele>875.9</ele>
        <time>2019-03-21T11:33:58Z</time>
      </trkpt>
      <trkpt lat="43.69877" lon="2.99717">
        <ele>875.42</ele>
        <time>2019-03-21T11:34:12Z</time>
      </trkpt>
      <trkpt lat="43.69878" lon="2.99718">
        <ele>874.46</ele>
        <time>2019-03-21T11:34:29Z</time>
      </trkpt>
      <trkpt lat="43.69877" lon="2.99717">
        <ele>874.46</ele>
        <time>2019-03-21T11:34:54Z</time>
      </trkpt>
      <trkpt lat="43.69877" lon="2.99718">
        <ele>874.46</ele>
        <time>2019-03-21T11:35:12Z</time>
      </trkpt>
      <trkpt lat="43.69876" lon="2.99716">
        <ele>874.46</ele>
        <time>2019-03-21T11:35:33Z</time>
      </trkpt>
      <trkpt lat="43.69876" lon="2.99718">
        <ele>874.46</ele>
        <time>2019-03-21T11:36:01Z</time>
      </trkpt>
      <trkpt lat="43.69876" lon="2.99719">
        <ele>875.9</ele>
        <time>2019-03-21T11:36:03Z</time>
      </trkpt>
      <trkpt lat="43.69872" lon="2.99721">
        <ele>875.9</ele>
        <time>2019-03-21T11:36:19Z</time>
      </trkpt>
      <trkpt lat="43.69872" lon="2.99721">
        <ele>875.9</ele>
        <time>2019-03-21T11:36:47Z</time>
      </trkpt>
      <trkpt lat="43.69873" lon="2.99722">
        <ele>874.46</ele>
        <time>2019-03-21T11:37:10Z</time>
      </trkpt>
      <trkpt lat="43.69875" lon="2.99719">
        <ele>874.46</ele>
        <time>2019-03-21T11:37:26Z</time>
      </trkpt>
      <trkpt lat="43.69876" lon="2.99715">
        <ele>875.42</ele>
        <time>2019-03-21T11:37:39Z</time>
      </trkpt>
      <trkpt lat="43.69875" lon="2.99708">
        <ele>875.42</ele>
        <time>2019-03-21T11:37:52Z</time>
      </trkpt>
      <trkpt lat="43.69873" lon="2.99707">
        <ele>874.46</ele>
        <time>2019-03-21T11:37:55Z</time>
      </trkpt>
      <trkpt lat="43.6987" lon="2.99699">
        <ele>873.01</ele>
        <time>2019-03-21T11:38:06Z</time>
      </trkpt>
      <trkpt lat="43.69869" lon="2.99691">
        <ele>871.09</ele>
        <time>2019-03-21T11:38:17Z</time>
      </trkpt>
      <trkpt lat="43.69864" lon="2.99685">
        <ele>869.65</ele>
        <time>2019-03-21T11:38:30Z</time>
      </trkpt>
      <trkpt lat="43.69859" lon="2.99679">
        <ele>866.29</ele>
        <time>2019-03-21T11:38:41Z</time>
      </trkpt>
      <trkpt lat="43.69857" lon="2.9967">
        <ele>866.77</ele>
        <time>2019-03-21T11:38:53Z</time>
      </trkpt>
      <trkpt lat="43.69856" lon="2.99669">
        <ele>863.88</ele>
        <time>2019-03-21T11:38:55Z</time>
      </trkpt>
      <trkpt lat="43.69855" lon="2.99657">
        <ele>862.92</ele>
        <time>2019-03-21T11:39:08Z</time>
      </trkpt>
      <trkpt lat="43.69855" lon="2.99656">
        <ele>862.92</ele>
        <time>2019-03-21T11:39:11Z</time>
      </trkpt>
      <trkpt lat="43.69854" lon="2.99646">
        <ele>861.96</ele>
        <time>2019-03-21T11:39:21Z</time>
      </trkpt>
      <trkpt lat="43.69853" lon="2.9964">
        <ele>860.04</ele>
        <time>2019-03-21T11:39:30Z</time>
      </trkpt>
      <trkpt lat="43.6985" lon="2.99634">
        <ele>858.59</ele>
        <time>2019-03-21T11:39:42Z</time>
      </trkpt>
      <trkpt lat="43.69846" lon="2.99628">
        <ele>854.75</ele>
        <time>2019-03-21T11:39:55Z</time>
      </trkpt>
      <trkpt lat="43.69845" lon="2.99618">
        <ele>853.31</ele>
        <time>2019-03-21T11:40:08Z</time>
      </trkpt>
      <trkpt lat="43.69845" lon="2.99605">
        <ele>852.35</ele>
        <time>2019-03-21T11:40:21Z</time>
      </trkpt>
      <trkpt lat="43.69845" lon="2.996">
        <ele>850.42</ele>
        <time>2019-03-21T11:40:28Z</time>
      </trkpt>
      <trkpt lat="43.69843" lon="2.99587">
        <ele>848.5</ele>
        <time>2019-03-21T11:40:41Z</time>
      </trkpt>
      <trkpt lat="43.69844" lon="2.99579">
        <ele>846.58</ele>
        <time>2019-03-21T11:40:47Z</time>
      </trkpt>
      <trkpt lat="43.69841" lon="2.99564">
        <ele>843.21</ele>
        <time>2019-03-21T11:41:01Z</time>
      </trkpt>
      <trkpt lat="43.69839" lon="2.99556">
        <ele>841.29</ele>
        <time>2019-03-21T11:41:08Z</time>
      </trkpt>
      <trkpt lat="43.6984" lon="2.99554">
        <ele>841.29</ele>
        <time>2019-03-21T11:41:10Z</time>
      </trkpt>
      <trkpt lat="43.69837" lon="2.99535">
        <ele>837.93</ele>
        <time>2019-03-21T11:41:26Z</time>
      </trkpt>
      <trkpt lat="43.69833" lon="2.99523">
        <ele>835.52</ele>
        <time>2019-03-21T11:41:39Z</time>
      </trkpt>
      <trkpt lat="43.69832" lon="2.99514">
        <ele>833.6</ele>
        <time>2019-03-21T11:41:55Z</time>
      </trkpt>
      <trkpt lat="43.69832" lon="2.9951">
        <ele>833.12</ele>
        <time>2019-03-21T11:42:15Z</time>
      </trkpt>
      <trkpt lat="43.6983" lon="2.99505">
        <ele>831.68</ele>
        <time>2019-03-21T11:42:40Z</time>
      </trkpt>
      <trkpt lat="43.69831" lon="2.99495">
        <ele>830.72</ele>
        <time>2019-03-21T11:42:58Z</time>
      </trkpt>
      <trkpt lat="43.69835" lon="2.99489">
        <ele>829.27</ele>
        <time>2019-03-21T11:43:09Z</time>
      </trkpt>
      <trkpt lat="43.69833" lon="2.99489">
        <ele>827.83</ele>
        <time>2019-03-21T11:43:24Z</time>
      </trkpt>
      <trkpt lat="43.6983" lon="2.99491">
        <ele>828.79</ele>
        <time>2019-03-21T11:43:29Z</time>
      </trkpt>
      <trkpt lat="43.69825" lon="2.99486">
        <ele>827.35</ele>
        <time>2019-03-21T11:43:41Z</time>
      </trkpt>
      <trkpt lat="43.6982" lon="2.99476">
        <ele>824.95</ele>
        <time>2019-03-21T11:43:57Z</time>
      </trkpt>
      <trkpt lat="43.69819" lon="2.99477">
        <ele>824.47</ele>
        <time>2019-03-21T11:44:11Z</time>
      </trkpt>
      <trkpt lat="43.69814" lon="2.99471">
        <ele>823.03</ele>
        <time>2019-03-21T11:44:24Z</time>
      </trkpt>
      <trkpt lat="43.69808" lon="2.9946">
        <ele>821.1</ele>
        <time>2019-03-21T11:44:38Z</time>
      </trkpt>
      <trkpt lat="43.69802" lon="2.99453">
        <ele>818.22</ele>
        <time>2019-03-21T11:44:53Z</time>
      </trkpt>
      <trkpt lat="43.69802" lon="2.99446">
        <ele>817.26</ele>
        <time>2019-03-21T11:45:08Z</time>
      </trkpt>
      <trkpt lat="43.69796" lon="2.99441">
        <ele>814.85</ele>
        <time>2019-03-21T11:45:21Z</time>
      </trkpt>
      <trkpt lat="43.69787" lon="2.99434">
        <ele>811.97</ele>
        <time>2019-03-21T11:45:35Z</time>
      </trkpt>
      <trkpt lat="43.69785" lon="2.99434">
        <ele>811.01</ele>
        <time>2019-03-21T11:45:37Z</time>
      </trkpt>
      <trkpt lat="43.69771" lon="2.99435">
        <ele>807.64</ele>
        <time>2019-03-21T11:45:51Z</time>
      </trkpt>
      <trkpt lat="43.6976" lon="2.99438">
        <ele>805.72</ele>
        <time>2019-03-21T11:46:00Z</time>
      </trkpt>
      <trkpt lat="43.69753" lon="2.99442">
        <ele>804.28</ele>
        <time>2019-03-21T11:46:07Z</time>
      </trkpt>
      <trkpt lat="43.69741" lon="2.9945">
        <ele>800.92</ele>
        <time>2019-03-21T11:46:23Z</time>
      </trkpt>
      <trkpt lat="43.69735" lon="2.99452">
        <ele>801.88</ele>
        <time>2019-03-21T11:46:31Z</time>
      </trkpt>
      <trkpt lat="43.69733" lon="2.9945">
        <ele>802.84</ele>
        <time>2019-03-21T11:46:33Z</time>
      </trkpt>
      <trkpt lat="43.69726" lon="2.99434">
        <ele>805.24</ele>
        <time>2019-03-21T11:46:47Z</time>
      </trkpt>
      <trkpt lat="43.69726" lon="2.99418">
        <ele>806.2</ele>
        <time>2019-03-21T11:47:01Z</time>
      </trkpt>
      <trkpt lat="43.69726" lon="2.99416">
        <ele>806.2</ele>
        <time>2019-03-21T11:47:02Z</time>
      </trkpt>
      <trkpt lat="43.69721" lon="2.99393">
        <ele>806.2</ele>
        <time>2019-03-21T11:47:16Z</time>
      </trkpt>
      <trkpt lat="43.69718" lon="2.99383">
        <ele>804.76</ele>
        <time>2019-03-21T11:47:23Z</time>
      </trkpt>
      <trkpt lat="43.69708" lon="2.99362">
        <ele>802.84</ele>
        <time>2019-03-21T11:47:40Z</time>
      </trkpt>
      <trkpt lat="43.69707" lon="2.99359">
        <ele>802.36</ele>
        <time>2019-03-21T11:47:43Z</time>
      </trkpt>
      <trkpt lat="43.69705" lon="2.99354">
        <ele>801.4</ele>
        <time>2019-03-21T11:47:48Z</time>
      </trkpt>
      <trkpt lat="43.69703" lon="2.99347">
        <ele>800.92</ele>
        <time>2019-03-21T11:47:53Z</time>
      </trkpt>
      <trkpt lat="43.69702" lon="2.99343">
        <ele>799.95</ele>
        <time>2019-03-21T11:47:57Z</time>
      </trkpt>
      <trkpt lat="43.69692" lon="2.99324">
        <ele>796.59</ele>
        <time>2019-03-21T11:48:13Z</time>
      </trkpt>
      <trkpt lat="43.69687" lon="2.99314">
        <ele>796.11</ele>
        <time>2019-03-21T11:48:21Z</time>
      </trkpt>
      <trkpt lat="43.69681" lon="2.99293">
        <ele>794.67</ele>
        <time>2019-03-21T11:48:37Z</time>
      </trkpt>
      <trkpt lat="43.69679" lon="2.99289">
        <ele>794.19</ele>
        <time>2019-03-21T11:48:40Z</time>
      </trkpt>
      <trkpt lat="43.69677" lon="2.99277">
        <ele>792.26</ele>
        <time>2019-03-21T11:48:53Z</time>
      </trkpt>
      <trkpt lat="43.69677" lon="2.99271">
        <ele>791.3</ele>
        <time>2019-03-21T11:49:01Z</time>
      </trkpt>
      <trkpt lat="43.69689" lon="2.99251">
        <ele>787.94</ele>
        <time>2019-03-21T11:49:18Z</time>
      </trkpt>
      <trkpt lat="43.69694" lon="2.99226">
        <ele>786.98</ele>
        <time>2019-03-21T11:49:35Z</time>
      </trkpt>
      <trkpt lat="43.69695" lon="2.99217">
        <ele>786.98</ele>
        <time>2019-03-21T11:49:50Z</time>
      </trkpt>
      <trkpt lat="43.69695" lon="2.99215">
        <ele>786.5</ele>
        <time>2019-03-21T11:50:04Z</time>
      </trkpt>
      <trkpt lat="43.69698" lon="2.9922">
        <ele>786.5</ele>
        <time>2019-03-21T11:50:20Z</time>
      </trkpt>
      <trkpt lat="43.69698" lon="2.99221">
        <ele>786.5</ele>
        <time>2019-03-21T11:50:37Z</time>
      </trkpt>
      <trkpt lat="43.697" lon="2.99221">
        <ele>786.5</ele>
        <time>2019-03-21T11:51:03Z</time>
      </trkpt>
      <trkpt lat="43.69703" lon="2.99219">
        <ele>786.5</ele>
        <time>2019-03-21T11:51:10Z</time>
      </trkpt>
      <trkpt lat="43.69709" lon="2.99214">
        <ele>788.42</ele>
        <time>2019-03-21T11:51:21Z</time>
      </trkpt>
      <trkpt lat="43.69725" lon="2.99213">
        <ele>789.38</ele>
        <time>2019-03-21T11:51:37Z</time>
      </trkpt>
      <trkpt lat="43.6974" lon="2.99216">
        <ele>789.86</ele>
        <time>2019-03-21T11:51:51Z</time>
      </trkpt>
      <trkpt lat="43.69756" lon="2.99215">
        <ele>789.38</ele>
        <time>2019-03-21T11:52:05Z</time>
      </trkpt>
      <trkpt lat="43.69761" lon="2.99212">
        <ele>788.9</ele>
        <time>2019-03-21T11:52:09Z</time>
      </trkpt>
      <trkpt lat="43.69778" lon="2.99193">
        <ele>786.02</ele>
        <time>2019-03-21T11:52:28Z</time>
      </trkpt>
      <trkpt lat="43.69792" lon="2.99178">
        <ele>784.09</ele>
        <time>2019-03-21T11:52:43Z</time>
      </trkpt>
      <trkpt lat="43.69799" lon="2.99171">
        <ele>784.09</ele>
        <time>2019-03-21T11:52:50Z</time>
      </trkpt>
      <trkpt lat="43.69813" lon="2.99169">
        <ele>784.09</ele>
        <time>2019-03-21T11:53:02Z</time>
      </trkpt>
      <trkpt lat="43.69828" lon="2.99169">
        <ele>784.09</ele>
        <time>2019-03-21T11:53:15Z</time>
      </trkpt>
      <trkpt lat="43.69843" lon="2.99168">
        <ele>784.09</ele>
        <time>2019-03-21T11:53:26Z</time>
      </trkpt>
      <trkpt lat="43.69847" lon="2.99164">
        <ele>784.09</ele>
        <time>2019-03-21T11:53:31Z</time>
      </trkpt>
      <trkpt lat="43.69854" lon="2.99148">
        <ele>785.05</ele>
        <time>2019-03-21T11:53:46Z</time>
      </trkpt>
      <trkpt lat="43.69853" lon="2.99139">
        <ele>786.02</ele>
        <time>2019-03-21T11:54:03Z</time>
      </trkpt>
      <trkpt lat="43.69849" lon="2.99134">
        <ele>786.5</ele>
        <time>2019-03-21T11:54:17Z</time>
      </trkpt>
      <trkpt lat="43.69848" lon="2.99137">
        <ele>786.5</ele>
        <time>2019-03-21T11:54:32Z</time>
      </trkpt>
      <trkpt lat="43.69846" lon="2.99133">
        <ele>786.5</ele>
        <time>2019-03-21T11:54:47Z</time>
      </trkpt>
      <trkpt lat="43.69845" lon="2.99131">
        <ele>786.5</ele>
        <time>2019-03-21T11:54:56Z</time>
      </trkpt>
      <trkpt lat="43.69849" lon="2.99112">
        <ele>788.42</ele>
        <time>2019-03-21T11:55:10Z</time>
      </trkpt>
      <trkpt lat="43.69847" lon="2.99099">
        <ele>789.38</ele>
        <time>2019-03-21T11:55:25Z</time>
      </trkpt>
      <trkpt lat="43.69845" lon="2.99095">
        <ele>789.86</ele>
        <time>2019-03-21T11:55:35Z</time>
      </trkpt>
      <trkpt lat="43.69844" lon="2.99094">
        <ele>789.86</ele>
        <time>2019-03-21T11:55:39Z</time>
      </trkpt>
      <trkpt lat="43.69842" lon="2.9909">
        <ele>789.86</ele>
        <time>2019-03-21T11:55:42Z</time>
      </trkpt>
      <trkpt lat="43.69838" lon="2.99084">
        <ele>789.86</ele>
        <time>2019-03-21T11:55:48Z</time>
      </trkpt>
      <trkpt lat="43.69834" lon="2.99078">
        <ele>791.3</ele>
        <time>2019-03-21T11:55:53Z</time>
      </trkpt>
      <trkpt lat="43.69822" lon="2.99062">
        <ele>792.74</ele>
        <time>2019-03-21T11:56:09Z</time>
      </trkpt>
      <trkpt lat="43.69818" lon="2.99058">
        <ele>793.22</ele>
        <time>2019-03-21T11:56:13Z</time>
      </trkpt>
      <trkpt lat="43.69817" lon="2.99054">
        <ele>793.71</ele>
        <time>2019-03-21T11:56:16Z</time>
      </trkpt>
      <trkpt lat="43.69806" lon="2.99041">
        <ele>794.67</ele>
        <time>2019-03-21T11:56:31Z</time>
      </trkpt>
      <trkpt lat="43.69795" lon="2.99031">
        <ele>796.59</ele>
        <time>2019-03-21T11:56:43Z</time>
      </trkpt>
      <trkpt lat="43.69793" lon="2.9903">
        <ele>796.59</ele>
        <time>2019-03-21T11:56:45Z</time>
      </trkpt>
      <trkpt lat="43.6979" lon="2.99028">
        <ele>797.07</ele>
        <time>2019-03-21T11:56:48Z</time>
      </trkpt>
      <trkpt lat="43.69783" lon="2.99022">
        <ele>798.03</ele>
        <time>2019-03-21T11:56:55Z</time>
      </trkpt>
      <trkpt lat="43.69778" lon="2.98997">
        <ele>798.03</ele>
        <time>2019-03-21T11:57:10Z</time>
      </trkpt>
      <trkpt lat="43.6977" lon="2.98978">
        <ele>798.03</ele>
        <time>2019-03-21T11:57:19Z</time>
      </trkpt>
      <trkpt lat="43.69757" lon="2.98972">
        <ele>798.99</ele>
        <time>2019-03-21T11:57:30Z</time>
      </trkpt>
      <trkpt lat="43.69753" lon="2.98971">
        <ele>799.47</ele>
        <time>2019-03-21T11:57:33Z</time>
      </trkpt>
      <trkpt lat="43.69737" lon="2.98975">
        <ele>800.44</ele>
        <time>2019-03-21T11:57:46Z</time>
      </trkpt>
      <trkpt lat="43.69735" lon="2.98975">
        <ele>800.44</ele>
        <time>2019-03-21T11:57:48Z</time>
      </trkpt>
      <trkpt lat="43.69729" lon="2.98977">
        <ele>801.88</ele>
        <time>2019-03-21T11:57:54Z</time>
      </trkpt>
      <trkpt lat="43.69724" lon="2.98972">
        <ele>804.76</ele>
        <time>2019-03-21T11:58:02Z</time>
      </trkpt>
      <trkpt lat="43.69725" lon="2.98968">
        <ele>802.84</ele>
        <time>2019-03-21T11:58:05Z</time>
      </trkpt>
      <trkpt lat="43.69738" lon="2.98961">
        <ele>803.8</ele>
        <time>2019-03-21T11:58:16Z</time>
      </trkpt>
      <trkpt lat="43.69739" lon="2.98959">
        <ele>803.8</ele>
        <time>2019-03-21T11:58:18Z</time>
      </trkpt>
      <trkpt lat="43.69746" lon="2.98952">
        <ele>805.72</ele>
        <time>2019-03-21T11:58:31Z</time>
      </trkpt>
      <trkpt lat="43.69744" lon="2.98952">
        <ele>805.72</ele>
        <time>2019-03-21T11:58:51Z</time>
      </trkpt>
      <trkpt lat="43.69747" lon="2.98952">
        <ele>804.28</ele>
        <time>2019-03-21T11:58:58Z</time>
      </trkpt>
      <trkpt lat="43.69745" lon="2.98949">
        <ele>804.28</ele>
        <time>2019-03-21T11:59:07Z</time>
      </trkpt>
      <trkpt lat="43.69744" lon="2.98944">
        <ele>805.72</ele>
        <time>2019-03-21T11:59:11Z</time>
      </trkpt>
      <trkpt lat="43.69743" lon="2.98943">
        <ele>805.72</ele>
        <time>2019-03-21T11:59:12Z</time>
      </trkpt>
      <trkpt lat="43.69738" lon="2.98938">
        <ele>806.68</ele>
        <time>2019-03-21T11:59:18Z</time>
      </trkpt>
      <trkpt lat="43.69736" lon="2.98937">
        <ele>806.68</ele>
        <time>2019-03-21T11:59:20Z</time>
      </trkpt>
      <trkpt lat="43.69732" lon="2.98934">
        <ele>807.64</ele>
        <time>2019-03-21T11:59:25Z</time>
      </trkpt>
      <trkpt lat="43.69721" lon="2.98931">
        <ele>809.57</ele>
        <time>2019-03-21T11:59:37Z</time>
      </trkpt>
      <trkpt lat="43.69715" lon="2.98926">
        <ele>810.53</ele>
        <time>2019-03-21T11:59:43Z</time>
      </trkpt>
      <trkpt lat="43.69706" lon="2.98917">
        <ele>810.53</ele>
        <time>2019-03-21T11:59:50Z</time>
      </trkpt>
      <trkpt lat="43.6969" lon="2.98897">
        <ele>811.49</ele>
        <time>2019-03-21T12:00:06Z</time>
      </trkpt>
      <trkpt lat="43.69678" lon="2.98869">
        <ele>812.45</ele>
        <time>2019-03-21T12:00:24Z</time>
      </trkpt>
      <trkpt lat="43.69672" lon="2.98854">
        <ele>812.93</ele>
        <time>2019-03-21T12:00:35Z</time>
      </trkpt>
      <trkpt lat="43.69671" lon="2.9885">
        <ele>812.93</ele>
        <time>2019-03-21T12:00:37Z</time>
      </trkpt>
      <trkpt lat="43.69669" lon="2.98843">
        <ele>812.93</ele>
        <time>2019-03-21T12:00:41Z</time>
      </trkpt>
      <trkpt lat="43.69665" lon="2.98827">
        <ele>812.93</ele>
        <time>2019-03-21T12:00:51Z</time>
      </trkpt>
      <trkpt lat="43.69659" lon="2.98809">
        <ele>812.93</ele>
        <time>2019-03-21T12:01:07Z</time>
      </trkpt>
      <trkpt lat="43.6966" lon="2.98808">
        <ele>812.93</ele>
        <time>2019-03-21T12:01:29Z</time>
      </trkpt>
      <trkpt lat="43.69659" lon="2.98807">
        <ele>813.41</ele>
        <time>2019-03-21T12:01:57Z</time>
      </trkpt>
      <trkpt lat="43.69659" lon="2.98805">
        <ele>813.41</ele>
        <time>2019-03-21T12:02:28Z</time>
      </trkpt>
      <trkpt lat="43.69658" lon="2.98806">
        <ele>813.41</ele>
        <time>2019-03-21T12:02:58Z</time>
      </trkpt>
      <trkpt lat="43.69656" lon="2.98802">
        <ele>813.41</ele>
        <time>2019-03-21T12:03:13Z</time>
      </trkpt>
      <trkpt lat="43.69658" lon="2.98801">
        <ele>813.41</ele>
        <time>2019-03-21T12:03:29Z</time>
      </trkpt>
      <trkpt lat="43.69656" lon="2.98804">
        <ele>813.41</ele>
        <time>2019-03-21T12:03:52Z</time>
      </trkpt>
      <trkpt lat="43.69659" lon="2.98801">
        <ele>813.41</ele>
        <time>2019-03-21T12:04:19Z</time>
      </trkpt>
      <trkpt lat="43.69665" lon="2.98801">
        <ele>813.41</ele>
        <time>2019-03-21T12:04:45Z</time>
      </trkpt>
      <trkpt lat="43.69661" lon="2.98803">
        <ele>813.89</ele>
        <time>2019-03-21T12:05:09Z</time>
      </trkpt>
      <trkpt lat="43.69665" lon="2.98788">
        <ele>814.37</ele>
        <time>2019-03-21T12:05:27Z</time>
      </trkpt>
      <trkpt lat="43.69672" lon="2.98767">
        <ele>815.82</ele>
        <time>2019-03-21T12:05:43Z</time>
      </trkpt>
      <trkpt lat="43.6968" lon="2.98754">
        <ele>816.3</ele>
        <time>2019-03-21T12:05:56Z</time>
      </trkpt>
      <trkpt lat="43.69684" lon="2.98749">
        <ele>816.78</ele>
        <time>2019-03-21T12:06:01Z</time>
      </trkpt>
      <trkpt lat="43.69692" lon="2.98739">
        <ele>817.26</ele>
        <time>2019-03-21T12:06:10Z</time>
      </trkpt>
      <trkpt lat="43.69707" lon="2.98729">
        <ele>818.7</ele>
        <time>2019-03-21T12:06:24Z</time>
      </trkpt>
      <trkpt lat="43.69721" lon="2.98723">
        <ele>819.18</ele>
        <time>2019-03-21T12:06:36Z</time>
      </trkpt>
      <trkpt lat="43.6974" lon="2.98715">
        <ele>819.18</ele>
        <time>2019-03-21T12:06:50Z</time>
      </trkpt>
      <trkpt lat="43.69759" lon="2.98709">
        <ele>819.18</ele>
        <time>2019-03-21T12:07:04Z</time>
      </trkpt>
      <trkpt lat="43.69773" lon="2.98705">
        <ele>819.66</ele>
        <time>2019-03-21T12:07:17Z</time>
      </trkpt>
      <trkpt lat="43.69777" lon="2.98704">
        <ele>819.66</ele>
        <time>2019-03-21T12:07:20Z</time>
      </trkpt>
      <trkpt lat="43.69788" lon="2.98702">
        <ele>819.66</ele>
        <time>2019-03-21T12:07:28Z</time>
      </trkpt>
      <trkpt lat="43.69793" lon="2.98699">
        <ele>819.66</ele>
        <time>2019-03-21T12:07:32Z</time>
      </trkpt>
      <trkpt lat="43.69807" lon="2.98693">
        <ele>819.66</ele>
        <time>2019-03-21T12:07:46Z</time>
      </trkpt>
      <trkpt lat="43.69823" lon="2.98684">
        <ele>819.66</ele>
        <time>2019-03-21T12:08:00Z</time>
      </trkpt>
      <trkpt lat="43.69827" lon="2.98679">
        <ele>819.66</ele>
        <time>2019-03-21T12:08:04Z</time>
      </trkpt>
      <trkpt lat="43.6983" lon="2.98663">
        <ele>819.66</ele>
        <time>2019-03-21T12:08:13Z</time>
      </trkpt>
      <trkpt lat="43.69829" lon="2.98659">
        <ele>819.66</ele>
        <time>2019-03-21T12:08:16Z</time>
      </trkpt>
      <trkpt lat="43.69827" lon="2.98655">
        <ele>820.14</ele>
        <time>2019-03-21T12:08:19Z</time>
      </trkpt>
      <trkpt lat="43.69825" lon="2.98631">
        <ele>822.55</ele>
        <time>2019-03-21T12:08:34Z</time>
      </trkpt>
      <trkpt lat="43.69838" lon="2.98615">
        <ele>823.99</ele>
        <time>2019-03-21T12:08:48Z</time>
      </trkpt>
      <trkpt lat="43.6985" lon="2.98608">
        <ele>825.91</ele>
        <time>2019-03-21T12:09:00Z</time>
      </trkpt>
      <trkpt lat="43.69851" lon="2.98608">
        <ele>825.91</ele>
        <time>2019-03-21T12:09:01Z</time>
      </trkpt>
      <trkpt lat="43.69865" lon="2.98594">
        <ele>826.39</ele>
        <time>2019-03-21T12:09:16Z</time>
      </trkpt>
      <trkpt lat="43.6987" lon="2.98587">
        <ele>826.87</ele>
        <time>2019-03-21T12:09:23Z</time>
      </trkpt>
      <trkpt lat="43.69871" lon="2.98584">
        <ele>827.35</ele>
        <time>2019-03-21T12:09:25Z</time>
      </trkpt>
      <trkpt lat="43.69883" lon="2.98565">
        <ele>828.79</ele>
        <time>2019-03-21T12:09:41Z</time>
      </trkpt>
      <trkpt lat="43.69885" lon="2.98557">
        <ele>829.27</ele>
        <time>2019-03-21T12:09:47Z</time>
      </trkpt>
      <trkpt lat="43.69889" lon="2.98539">
        <ele>830.24</ele>
        <time>2019-03-21T12:09:59Z</time>
      </trkpt>
      <trkpt lat="43.69889" lon="2.98536">
        <ele>830.24</ele>
        <time>2019-03-21T12:10:01Z</time>
      </trkpt>
      <trkpt lat="43.69891" lon="2.98523">
        <ele>830.24</ele>
        <time>2019-03-21T12:10:09Z</time>
      </trkpt>
      <trkpt lat="43.69893" lon="2.98514">
        <ele>830.24</ele>
        <time>2019-03-21T12:10:14Z</time>
      </trkpt>
      <trkpt lat="43.69894" lon="2.98504">
        <ele>830.24</ele>
        <time>2019-03-21T12:10:20Z</time>
      </trkpt>
      <trkpt lat="43.69895" lon="2.98492">
        <ele>830.24</ele>
        <time>2019-03-21T12:10:27Z</time>
      </trkpt>
      <trkpt lat="43.69896" lon="2.98458">
        <ele>830.24</ele>
        <time>2019-03-21T12:10:47Z</time>
      </trkpt>
      <trkpt lat="43.69897" lon="2.98441">
        <ele>828.79</ele>
        <time>2019-03-21T12:10:58Z</time>
      </trkpt>
      <trkpt lat="43.69895" lon="2.98413">
        <ele>829.27</ele>
        <time>2019-03-21T12:11:15Z</time>
      </trkpt>
      <trkpt lat="43.69884" lon="2.98393">
        <ele>828.79</ele>
        <time>2019-03-21T12:11:32Z</time>
      </trkpt>
      <trkpt lat="43.6987" lon="2.98378">
        <ele>827.83</ele>
        <time>2019-03-21T12:11:49Z</time>
      </trkpt>
      <trkpt lat="43.69851" lon="2.98359">
        <ele>826.87</ele>
        <time>2019-03-21T12:12:07Z</time>
      </trkpt>
      <trkpt lat="43.69838" lon="2.98341">
        <ele>825.91</ele>
        <time>2019-03-21T12:12:22Z</time>
      </trkpt>
      <trkpt lat="43.69837" lon="2.9834">
        <ele>825.91</ele>
        <time>2019-03-21T12:12:24Z</time>
      </trkpt>
      <trkpt lat="43.69833" lon="2.98326">
        <ele>824.47</ele>
        <time>2019-03-21T12:12:39Z</time>
      </trkpt>
      <trkpt lat="43.69835" lon="2.98303">
        <ele>823.03</ele>
        <time>2019-03-21T12:12:55Z</time>
      </trkpt>
      <trkpt lat="43.69835" lon="2.98301">
        <ele>822.55</ele>
        <time>2019-03-21T12:12:56Z</time>
      </trkpt>
      <trkpt lat="43.69836" lon="2.98273">
        <ele>821.1</ele>
        <time>2019-03-21T12:13:08Z</time>
      </trkpt>
      <trkpt lat="43.69837" lon="2.98242">
        <ele>820.14</ele>
        <time>2019-03-21T12:13:26Z</time>
      </trkpt>
      <trkpt lat="43.69838" lon="2.98228">
        <ele>819.66</ele>
        <time>2019-03-21T12:13:34Z</time>
      </trkpt>
      <trkpt lat="43.69847" lon="2.98209">
        <ele>818.22</ele>
        <time>2019-03-21T12:13:50Z</time>
      </trkpt>
      <trkpt lat="43.69859" lon="2.98199">
        <ele>817.74</ele>
        <time>2019-03-21T12:14:03Z</time>
      </trkpt>
      <trkpt lat="43.69875" lon="2.98188">
        <ele>816.3</ele>
        <time>2019-03-21T12:14:17Z</time>
      </trkpt>
      <trkpt lat="43.69887" lon="2.98181">
        <ele>816.3</ele>
        <time>2019-03-21T12:14:27Z</time>
      </trkpt>
      <trkpt lat="43.69893" lon="2.98182">
        <ele>815.34</ele>
        <time>2019-03-21T12:14:32Z</time>
      </trkpt>
      <trkpt lat="43.6991" lon="2.98191">
        <ele>812.45</ele>
        <time>2019-03-21T12:14:50Z</time>
      </trkpt>
      <trkpt lat="43.69925" lon="2.98196">
        <ele>811.01</ele>
        <time>2019-03-21T12:15:04Z</time>
      </trkpt>
      <trkpt lat="43.69947" lon="2.98201">
        <ele>809.09</ele>
        <time>2019-03-21T12:15:21Z</time>
      </trkpt>
      <trkpt lat="43.69968" lon="2.98203">
        <ele>806.2</ele>
        <time>2019-03-21T12:15:39Z</time>
      </trkpt>
      <trkpt lat="43.69979" lon="2.982">
        <ele>805.72</ele>
        <time>2019-03-21T12:15:47Z</time>
      </trkpt>
      <trkpt lat="43.69983" lon="2.98177">
        <ele>805.24</ele>
        <time>2019-03-21T12:16:03Z</time>
      </trkpt>
      <trkpt lat="43.69971" lon="2.98155">
        <ele>803.8</ele>
        <time>2019-03-21T12:16:21Z</time>
      </trkpt>
      <trkpt lat="43.69968" lon="2.9815">
        <ele>803.32</ele>
        <time>2019-03-21T12:16:25Z</time>
      </trkpt>
      <trkpt lat="43.69952" lon="2.98131">
        <ele>801.88</ele>
        <time>2019-03-21T12:16:44Z</time>
      </trkpt>
      <trkpt lat="43.69938" lon="2.98113">
        <ele>799.95</ele>
        <time>2019-03-21T12:16:59Z</time>
      </trkpt>
      <trkpt lat="43.69923" lon="2.98093">
        <ele>798.99</ele>
        <time>2019-03-21T12:17:16Z</time>
      </trkpt>
      <trkpt lat="43.69905" lon="2.98072">
        <ele>796.11</ele>
        <time>2019-03-21T12:17:35Z</time>
      </trkpt>
      <trkpt lat="43.69887" lon="2.98051">
        <ele>795.15</ele>
        <time>2019-03-21T12:17:54Z</time>
      </trkpt>
      <trkpt lat="43.69872" lon="2.98035">
        <ele>795.15</ele>
        <time>2019-03-21T12:18:09Z</time>
      </trkpt>
      <trkpt lat="43.69851" lon="2.98015">
        <ele>795.15</ele>
        <time>2019-03-21T12:18:29Z</time>
      </trkpt>
      <trkpt lat="43.69835" lon="2.97992">
        <ele>795.15</ele>
        <time>2019-03-21T12:18:47Z</time>
      </trkpt>
      <trkpt lat="43.69819" lon="2.97965">
        <ele>794.19</ele>
        <time>2019-03-21T12:19:07Z</time>
      </trkpt>
      <trkpt lat="43.69802" lon="2.97939">
        <ele>792.26</ele>
        <time>2019-03-21T12:19:27Z</time>
      </trkpt>
      <trkpt lat="43.69793" lon="2.97913">
        <ele>790.82</ele>
        <time>2019-03-21T12:19:44Z</time>
      </trkpt>
      <trkpt lat="43.69795" lon="2.97883">
        <ele>790.82</ele>
        <time>2019-03-21T12:20:00Z</time>
      </trkpt>
      <trkpt lat="43.69797" lon="2.97859">
        <ele>790.82</ele>
        <time>2019-03-21T12:20:18Z</time>
      </trkpt>
      <trkpt lat="43.69797" lon="2.97843">
        <ele>792.26</ele>
        <time>2019-03-21T12:20:33Z</time>
      </trkpt>
      <trkpt lat="43.69795" lon="2.97814">
        <ele>793.71</ele>
        <time>2019-03-21T12:20:51Z</time>
      </trkpt>
      <trkpt lat="43.69792" lon="2.97789">
        <ele>795.63</ele>
        <time>2019-03-21T12:21:09Z</time>
      </trkpt>
      <trkpt lat="43.69792" lon="2.97762">
        <ele>798.03</ele>
        <time>2019-03-21T12:21:29Z</time>
      </trkpt>
      <trkpt lat="43.69796" lon="2.97733">
        <ele>800.92</ele>
        <time>2019-03-21T12:21:51Z</time>
      </trkpt>
      <trkpt lat="43.69793" lon="2.97702">
        <ele>802.84</ele>
        <time>2019-03-21T12:22:07Z</time>
      </trkpt>
      <trkpt lat="43.69777" lon="2.97714">
        <ele>804.76</ele>
        <time>2019-03-21T12:22:24Z</time>
      </trkpt>
      <trkpt lat="43.69763" lon="2.97743">
        <ele>807.16</ele>
        <time>2019-03-21T12:22:46Z</time>
      </trkpt>
      <trkpt lat="43.69753" lon="2.97767">
        <ele>810.53</ele>
        <time>2019-03-21T12:23:07Z</time>
      </trkpt>
      <trkpt lat="43.69735" lon="2.97779">
        <ele>811.97</ele>
        <time>2019-03-21T12:23:25Z</time>
      </trkpt>
      <trkpt lat="43.69723" lon="2.97775">
        <ele>814.37</ele>
        <time>2019-03-21T12:23:40Z</time>
      </trkpt>
      <trkpt lat="43.69729" lon="2.97758">
        <ele>816.78</ele>
        <time>2019-03-21T12:23:57Z</time>
      </trkpt>
      <trkpt lat="43.69737" lon="2.97737">
        <ele>817.26</ele>
        <time>2019-03-21T12:24:09Z</time>
      </trkpt>
      <trkpt lat="43.69736" lon="2.97728">
        <ele>817.74</ele>
        <time>2019-03-21T12:24:14Z</time>
      </trkpt>
      <trkpt lat="43.6973" lon="2.977">
        <ele>818.22</ele>
        <time>2019-03-21T12:24:32Z</time>
      </trkpt>
      <trkpt lat="43.69724" lon="2.97671">
        <ele>818.7</ele>
        <time>2019-03-21T12:24:50Z</time>
      </trkpt>
      <trkpt lat="43.69723" lon="2.97661">
        <ele>818.7</ele>
        <time>2019-03-21T12:24:55Z</time>
      </trkpt>
      <trkpt lat="43.69734" lon="2.97634">
        <ele>820.62</ele>
        <time>2019-03-21T12:25:12Z</time>
      </trkpt>
      <trkpt lat="43.69738" lon="2.97629">
        <ele>821.1</ele>
        <time>2019-03-21T12:25:16Z</time>
      </trkpt>
      <trkpt lat="43.69742" lon="2.97625">
        <ele>821.58</ele>
        <time>2019-03-21T12:25:20Z</time>
      </trkpt>
      <trkpt lat="43.69754" lon="2.97604">
        <ele>823.99</ele>
        <time>2019-03-21T12:25:37Z</time>
      </trkpt>
      <trkpt lat="43.69757" lon="2.97579">
        <ele>825.91</ele>
        <time>2019-03-21T12:25:54Z</time>
      </trkpt>
      <trkpt lat="43.69759" lon="2.97546">
        <ele>826.87</ele>
        <time>2019-03-21T12:26:14Z</time>
      </trkpt>
      <trkpt lat="43.6976" lon="2.97522">
        <ele>828.79</ele>
        <time>2019-03-21T12:26:29Z</time>
      </trkpt>
      <trkpt lat="43.69755" lon="2.97493">
        <ele>829.27</ele>
        <time>2019-03-21T12:26:46Z</time>
      </trkpt>
      <trkpt lat="43.69746" lon="2.97463">
        <ele>830.72</ele>
        <time>2019-03-21T12:27:05Z</time>
      </trkpt>
      <trkpt lat="43.6974" lon="2.97432">
        <ele>831.2</ele>
        <time>2019-03-21T12:27:24Z</time>
      </trkpt>
      <trkpt lat="43.69738" lon="2.97425">
        <ele>829.76</ele>
        <time>2019-03-21T12:27:28Z</time>
      </trkpt>
      <trkpt lat="43.69729" lon="2.97395">
        <ele>828.79</ele>
        <time>2019-03-21T12:27:46Z</time>
      </trkpt>
      <trkpt lat="43.69727" lon="2.97391">
        <ele>828.79</ele>
        <time>2019-03-21T12:27:49Z</time>
      </trkpt>
      <trkpt lat="43.69725" lon="2.97381">
        <ele>828.31</ele>
        <time>2019-03-21T12:27:54Z</time>
      </trkpt>
      <trkpt lat="43.69719" lon="2.9737">
        <ele>827.83</ele>
        <time>2019-03-21T12:28:01Z</time>
      </trkpt>
      <trkpt lat="43.69714" lon="2.97353">
        <ele>827.35</ele>
        <time>2019-03-21T12:28:11Z</time>
      </trkpt>
      <trkpt lat="43.6971" lon="2.97338">
        <ele>827.35</ele>
        <time>2019-03-21T12:28:20Z</time>
      </trkpt>
      <trkpt lat="43.6971" lon="2.97328">
        <ele>827.35</ele>
        <time>2019-03-21T12:28:25Z</time>
      </trkpt>
      <trkpt lat="43.69705" lon="2.97311">
        <ele>827.35</ele>
        <time>2019-03-21T12:28:35Z</time>
      </trkpt>
      <trkpt lat="43.69702" lon="2.97301">
        <ele>827.35</ele>
        <time>2019-03-21T12:28:42Z</time>
      </trkpt>
      <trkpt lat="43.69689" lon="2.97272">
        <ele>827.35</ele>
        <time>2019-03-21T12:29:02Z</time>
      </trkpt>
      <trkpt lat="43.69675" lon="2.97236">
        <ele>828.31</ele>
        <time>2019-03-21T12:29:25Z</time>
      </trkpt>
      <trkpt lat="43.69664" lon="2.97205">
        <ele>828.31</ele>
        <time>2019-03-21T12:29:46Z</time>
      </trkpt>
      <trkpt lat="43.69663" lon="2.97199">
        <ele>827.35</ele>
        <time>2019-03-21T12:29:49Z</time>
      </trkpt>
      <trkpt lat="43.69652" lon="2.97158">
        <ele>824.47</ele>
        <time>2019-03-21T12:30:13Z</time>
      </trkpt>
      <trkpt lat="43.69644" lon="2.97115">
        <ele>823.03</ele>
        <time>2019-03-21T12:30:37Z</time>
      </trkpt>
      <trkpt lat="43.69637" lon="2.97081">
        <ele>822.06</ele>
        <time>2019-03-21T12:30:57Z</time>
      </trkpt>
      <trkpt lat="43.69627" lon="2.97052">
        <ele>822.06</ele>
        <time>2019-03-21T12:31:16Z</time>
      </trkpt>
      <trkpt lat="43.6962" lon="2.97041">
        <ele>820.62</ele>
        <time>2019-03-21T12:31:25Z</time>
      </trkpt>
      <trkpt lat="43.69618" lon="2.97038">
        <ele>820.62</ele>
        <time>2019-03-21T12:31:27Z</time>
      </trkpt>
      <trkpt lat="43.69608" lon="2.9702">
        <ele>819.66</ele>
        <time>2019-03-21T12:31:43Z</time>
      </trkpt>
      <trkpt lat="43.69591" lon="2.97002">
        <ele>818.22</ele>
        <time>2019-03-21T12:32:00Z</time>
      </trkpt>
      <trkpt lat="43.69586" lon="2.96998">
        <ele>818.7</ele>
        <time>2019-03-21T12:32:04Z</time>
      </trkpt>
      <trkpt lat="43.69582" lon="2.96997">
        <ele>818.22</ele>
        <time>2019-03-21T12:32:07Z</time>
      </trkpt>
      <trkpt lat="43.6957" lon="2.96989">
        <ele>817.26</ele>
        <time>2019-03-21T12:32:16Z</time>
      </trkpt>
      <trkpt lat="43.69551" lon="2.96979">
        <ele>817.74</ele>
        <time>2019-03-21T12:32:33Z</time>
      </trkpt>
      <trkpt lat="43.69532" lon="2.96967">
        <ele>816.3</ele>
        <time>2019-03-21T12:32:49Z</time>
      </trkpt>
      <trkpt lat="43.69517" lon="2.9696">
        <ele>815.82</ele>
        <time>2019-03-21T12:33:03Z</time>
      </trkpt>
      <trkpt lat="43.69501" lon="2.96957">
        <ele>814.85</ele>
        <time>2019-03-21T12:33:17Z</time>
      </trkpt>
      <trkpt lat="43.69492" lon="2.96962">
        <ele>814.85</ele>
        <time>2019-03-21T12:33:27Z</time>
      </trkpt>
      <trkpt lat="43.69463" lon="2.96975">
        <ele>812.93</ele>
        <time>2019-03-21T12:33:48Z</time>
      </trkpt>
      <trkpt lat="43.69454" lon="2.96982">
        <ele>814.37</ele>
        <time>2019-03-21T12:34:03Z</time>
      </trkpt>
      <trkpt lat="43.69449" lon="2.9699">
        <ele>814.37</ele>
        <time>2019-03-21T12:34:10Z</time>
      </trkpt>
      <trkpt lat="43.69442" lon="2.96996">
        <ele>814.85</ele>
        <time>2019-03-21T12:34:26Z</time>
      </trkpt>
      <trkpt lat="43.69442" lon="2.96998">
        <ele>814.85</ele>
        <time>2019-03-21T12:34:48Z</time>
      </trkpt>
      <trkpt lat="43.69444" lon="2.97">
        <ele>814.85</ele>
        <time>2019-03-21T12:35:10Z</time>
      </trkpt>
      <trkpt lat="43.69441" lon="2.97006">
        <ele>814.85</ele>
        <time>2019-03-21T12:35:29Z</time>
      </trkpt>
      <trkpt lat="43.69445" lon="2.97009">
        <ele>814.85</ele>
        <time>2019-03-21T12:35:46Z</time>
      </trkpt>
      <trkpt lat="43.69451" lon="2.97018">
        <ele>814.85</ele>
        <time>2019-03-21T12:36:00Z</time>
      </trkpt>
      <trkpt lat="43.69454" lon="2.97024">
        <ele>814.85</ele>
        <time>2019-03-21T12:36:17Z</time>
      </trkpt>
      <trkpt lat="43.69455" lon="2.97025">
        <ele>814.85</ele>
        <time>2019-03-21T12:36:38Z</time>
      </trkpt>
      <trkpt lat="43.69456" lon="2.97026">
        <ele>815.34</ele>
        <time>2019-03-21T12:36:58Z</time>
      </trkpt>
      <trkpt lat="43.69455" lon="2.97028">
        <ele>815.34</ele>
        <time>2019-03-21T12:37:17Z</time>
      </trkpt>
      <trkpt lat="43.69455" lon="2.97022">
        <ele>815.34</ele>
        <time>2019-03-21T12:37:37Z</time>
      </trkpt>
      <trkpt lat="43.69455" lon="2.9702">
        <ele>815.34</ele>
        <time>2019-03-21T12:38:02Z</time>
      </trkpt>
      <trkpt lat="43.69456" lon="2.97016">
        <ele>815.34</ele>
        <time>2019-03-21T12:38:17Z</time>
      </trkpt>
      <trkpt lat="43.69457" lon="2.97016">
        <ele>815.34</ele>
        <time>2019-03-21T12:38:35Z</time>
      </trkpt>
      <trkpt lat="43.69452" lon="2.97014">
        <ele>815.34</ele>
        <time>2019-03-21T12:39:01Z</time>
      </trkpt>
      <trkpt lat="43.69449" lon="2.9701">
        <ele>815.34</ele>
        <time>2019-03-21T12:39:18Z</time>
      </trkpt>
      <trkpt lat="43.69447" lon="2.97006">
        <ele>815.34</ele>
        <time>2019-03-21T12:39:22Z</time>
      </trkpt>
      <trkpt lat="43.69444" lon="2.97">
        <ele>814.37</ele>
        <time>2019-03-21T12:39:28Z</time>
      </trkpt>
      <trkpt lat="43.69445" lon="2.96996">
        <ele>814.37</ele>
        <time>2019-03-21T12:39:37Z</time>
      </trkpt>
      <trkpt lat="43.69446" lon="2.96994">
        <ele>814.37</ele>
        <time>2019-03-21T12:39:39Z</time>
      </trkpt>
      <trkpt lat="43.69454" lon="2.96981">
        <ele>814.37</ele>
        <time>2019-03-21T12:39:52Z</time>
      </trkpt>
      <trkpt lat="43.69447" lon="2.96979">
        <ele>812.45</ele>
        <time>2019-03-21T12:40:06Z</time>
      </trkpt>
      <trkpt lat="43.69436" lon="2.96981">
        <ele>811.97</ele>
        <time>2019-03-21T12:40:22Z</time>
      </trkpt>
      <trkpt lat="43.69427" lon="2.96982">
        <ele>811.01</ele>
        <time>2019-03-21T12:40:38Z</time>
      </trkpt>
      <trkpt lat="43.69415" lon="2.96984">
        <ele>808.13</ele>
        <time>2019-03-21T12:40:54Z</time>
      </trkpt>
      <trkpt lat="43.69402" lon="2.96983">
        <ele>807.16</ele>
        <time>2019-03-21T12:41:10Z</time>
      </trkpt>
      <trkpt lat="43.6939" lon="2.96979">
        <ele>806.68</ele>
        <time>2019-03-21T12:41:22Z</time>
      </trkpt>
      <trkpt lat="43.69376" lon="2.96964">
        <ele>808.13</ele>
        <time>2019-03-21T12:41:38Z</time>
      </trkpt>
      <trkpt lat="43.69364" lon="2.96947">
        <ele>810.05</ele>
        <time>2019-03-21T12:41:56Z</time>
      </trkpt>
      <trkpt lat="43.69363" lon="2.96932">
        <ele>810.53</ele>
        <time>2019-03-21T12:42:07Z</time>
      </trkpt>
      <trkpt lat="43.69361" lon="2.96916">
        <ele>811.01</ele>
        <time>2019-03-21T12:42:19Z</time>
      </trkpt>
      <trkpt lat="43.69361" lon="2.96913">
        <ele>811.01</ele>
        <time>2019-03-21T12:42:22Z</time>
      </trkpt>
      <trkpt lat="43.69353" lon="2.96898">
        <ele>811.97</ele>
        <time>2019-03-21T12:42:36Z</time>
      </trkpt>
      <trkpt lat="43.69352" lon="2.96884">
        <ele>812.45</ele>
        <time>2019-03-21T12:42:47Z</time>
      </trkpt>
      <trkpt lat="43.69346" lon="2.96866">
        <ele>813.41</ele>
        <time>2019-03-21T12:43:02Z</time>
      </trkpt>
      <trkpt lat="43.69338" lon="2.96854">
        <ele>813.89</ele>
        <time>2019-03-21T12:43:15Z</time>
      </trkpt>
      <trkpt lat="43.69334" lon="2.96851">
        <ele>814.37</ele>
        <time>2019-03-21T12:43:20Z</time>
      </trkpt>
      <trkpt lat="43.69321" lon="2.9684">
        <ele>814.85</ele>
        <time>2019-03-21T12:43:32Z</time>
      </trkpt>
      <trkpt lat="43.69303" lon="2.96837">
        <ele>815.34</ele>
        <time>2019-03-21T12:43:49Z</time>
      </trkpt>
      <trkpt lat="43.6929" lon="2.96839">
        <ele>815.34</ele>
        <time>2019-03-21T12:44:01Z</time>
      </trkpt>
      <trkpt lat="43.69279" lon="2.96843">
        <ele>813.89</ele>
        <time>2019-03-21T12:44:15Z</time>
      </trkpt>
      <trkpt lat="43.69267" lon="2.96826">
        <ele>813.89</ele>
        <time>2019-03-21T12:44:32Z</time>
      </trkpt>
      <trkpt lat="43.69265" lon="2.96823">
        <ele>813.89</ele>
        <time>2019-03-21T12:44:35Z</time>
      </trkpt>
      <trkpt lat="43.69254" lon="2.968">
        <ele>812.93</ele>
        <time>2019-03-21T12:44:50Z</time>
      </trkpt>
      <trkpt lat="43.69251" lon="2.96783">
        <ele>812.45</ele>
        <time>2019-03-21T12:45:02Z</time>
      </trkpt>
      <trkpt lat="43.69245" lon="2.96773">
        <ele>811.01</ele>
        <time>2019-03-21T12:45:16Z</time>
      </trkpt>
      <trkpt lat="43.69231" lon="2.96765">
        <ele>810.05</ele>
        <time>2019-03-21T12:45:28Z</time>
      </trkpt>
      <trkpt lat="43.69222" lon="2.96758">
        <ele>808.61</ele>
        <time>2019-03-21T12:45:42Z</time>
      </trkpt>
      <trkpt lat="43.69208" lon="2.96763">
        <ele>806.68</ele>
        <time>2019-03-21T12:45:57Z</time>
      </trkpt>
      <trkpt lat="43.69201" lon="2.96765">
        <ele>806.2</ele>
        <time>2019-03-21T12:46:05Z</time>
      </trkpt>
      <trkpt lat="43.69198" lon="2.96764">
        <ele>806.2</ele>
        <time>2019-03-21T12:46:08Z</time>
      </trkpt>
      <trkpt lat="43.69194" lon="2.96763">
        <ele>805.72</ele>
        <time>2019-03-21T12:46:11Z</time>
      </trkpt>
      <trkpt lat="43.69186" lon="2.96754">
        <ele>805.24</ele>
        <time>2019-03-21T12:46:21Z</time>
      </trkpt>
      <trkpt lat="43.69182" lon="2.9674">
        <ele>804.76</ele>
        <time>2019-03-21T12:46:32Z</time>
      </trkpt>
      <trkpt lat="43.6918" lon="2.96728">
        <ele>804.76</ele>
        <time>2019-03-21T12:46:42Z</time>
      </trkpt>
      <trkpt lat="43.69178" lon="2.96723">
        <ele>804.76</ele>
        <time>2019-03-21T12:46:57Z</time>
      </trkpt>
      <trkpt lat="43.69176" lon="2.96719">
        <ele>804.76</ele>
        <time>2019-03-21T12:47:09Z</time>
      </trkpt>
      <trkpt lat="43.69171" lon="2.96709">
        <ele>803.8</ele>
        <time>2019-03-21T12:47:23Z</time>
      </trkpt>
      <trkpt lat="43.69165" lon="2.96701">
        <ele>802.84</ele>
        <time>2019-03-21T12:47:36Z</time>
      </trkpt>
      <trkpt lat="43.69158" lon="2.96701">
        <ele>802.36</ele>
        <time>2019-03-21T12:47:43Z</time>
      </trkpt>
      <trkpt lat="43.69152" lon="2.96704">
        <ele>802.36</ele>
        <time>2019-03-21T12:47:49Z</time>
      </trkpt>
      <trkpt lat="43.69139" lon="2.96705">
        <ele>800.92</ele>
        <time>2019-03-21T12:48:04Z</time>
      </trkpt>
      <trkpt lat="43.69138" lon="2.96705">
        <ele>800.92</ele>
        <time>2019-03-21T12:48:05Z</time>
      </trkpt>
      <trkpt lat="43.69118" lon="2.96699">
        <ele>800.44</ele>
        <time>2019-03-21T12:48:23Z</time>
      </trkpt>
      <trkpt lat="43.69105" lon="2.96697">
        <ele>798.51</ele>
        <time>2019-03-21T12:48:39Z</time>
      </trkpt>
      <trkpt lat="43.69093" lon="2.96695">
        <ele>797.07</ele>
        <time>2019-03-21T12:48:53Z</time>
      </trkpt>
      <trkpt lat="43.6908" lon="2.96696">
        <ele>795.63</ele>
        <time>2019-03-21T12:49:08Z</time>
      </trkpt>
      <trkpt lat="43.69074" lon="2.967">
        <ele>795.15</ele>
        <time>2019-03-21T12:49:20Z</time>
      </trkpt>
      <trkpt lat="43.69066" lon="2.96706">
        <ele>794.67</ele>
        <time>2019-03-21T12:49:35Z</time>
      </trkpt>
      <trkpt lat="43.69062" lon="2.96713">
        <ele>793.71</ele>
        <time>2019-03-21T12:49:53Z</time>
      </trkpt>
      <trkpt lat="43.6905" lon="2.96727">
        <ele>793.22</ele>
        <time>2019-03-21T12:50:08Z</time>
      </trkpt>
      <trkpt lat="43.69038" lon="2.96736">
        <ele>793.22</ele>
        <time>2019-03-21T12:50:23Z</time>
      </trkpt>
      <trkpt lat="43.69024" lon="2.96738">
        <ele>793.22</ele>
        <time>2019-03-21T12:50:40Z</time>
      </trkpt>
      <trkpt lat="43.69014" lon="2.96738">
        <ele>794.67</ele>
        <time>2019-03-21T12:50:53Z</time>
      </trkpt>
      <trkpt lat="43.69002" lon="2.96737">
        <ele>793.71</ele>
        <time>2019-03-21T12:51:06Z</time>
      </trkpt>
      <trkpt lat="43.68985" lon="2.96733">
        <ele>794.19</ele>
        <time>2019-03-21T12:51:26Z</time>
      </trkpt>
      <trkpt lat="43.6896" lon="2.96728">
        <ele>792.74</ele>
        <time>2019-03-21T12:51:45Z</time>
      </trkpt>
      <trkpt lat="43.6895" lon="2.96722">
        <ele>789.86</ele>
        <time>2019-03-21T12:52:00Z</time>
      </trkpt>
      <trkpt lat="43.68944" lon="2.9672">
        <ele>787.46</ele>
        <time>2019-03-21T12:52:11Z</time>
      </trkpt>
      <trkpt lat="43.68939" lon="2.96715">
        <ele>784.09</ele>
        <time>2019-03-21T12:52:24Z</time>
      </trkpt>
      <trkpt lat="43.68934" lon="2.96719">
        <ele>780.73</ele>
        <time>2019-03-21T12:52:39Z</time>
      </trkpt>
      <trkpt lat="43.68923" lon="2.96727">
        <ele>777.84</ele>
        <time>2019-03-21T12:52:52Z</time>
      </trkpt>
      <trkpt lat="43.68924" lon="2.96736">
        <ele>774.48</ele>
        <time>2019-03-21T12:53:06Z</time>
      </trkpt>
      <trkpt lat="43.68923" lon="2.96752">
        <ele>771.11</ele>
        <time>2019-03-21T12:53:18Z</time>
      </trkpt>
      <trkpt lat="43.68922" lon="2.96773">
        <ele>768.23</ele>
        <time>2019-03-21T12:53:31Z</time>
      </trkpt>
      <trkpt lat="43.68917" lon="2.96793">
        <ele>764.87</ele>
        <time>2019-03-21T12:53:45Z</time>
      </trkpt>
      <trkpt lat="43.68913" lon="2.9681">
        <ele>761.98</ele>
        <time>2019-03-21T12:54:03Z</time>
      </trkpt>
      <trkpt lat="43.68909" lon="2.9683">
        <ele>758.62</ele>
        <time>2019-03-21T12:54:16Z</time>
      </trkpt>
      <trkpt lat="43.68906" lon="2.96822">
        <ele>755.73</ele>
        <time>2019-03-21T12:54:28Z</time>
      </trkpt>
      <trkpt lat="43.68906" lon="2.96802">
        <ele>752.37</ele>
        <time>2019-03-21T12:54:43Z</time>
      </trkpt>
      <trkpt lat="43.68904" lon="2.96788">
        <ele>749</ele>
        <time>2019-03-21T12:54:56Z</time>
      </trkpt>
      <trkpt lat="43.68902" lon="2.96774">
        <ele>745.64</ele>
        <time>2019-03-21T12:55:09Z</time>
      </trkpt>
      <trkpt lat="43.68896" lon="2.96762">
        <ele>742.28</ele>
        <time>2019-03-21T12:55:21Z</time>
      </trkpt>
      <trkpt lat="43.68889" lon="2.96768">
        <ele>739.87</ele>
        <time>2019-03-21T12:55:32Z</time>
      </trkpt>
      <trkpt lat="43.68879" lon="2.96777">
        <ele>736.99</ele>
        <time>2019-03-21T12:55:44Z</time>
      </trkpt>
      <trkpt lat="43.68873" lon="2.96787">
        <ele>734.1</ele>
        <time>2019-03-21T12:55:56Z</time>
      </trkpt>
      <trkpt lat="43.68869" lon="2.96796">
        <ele>730.74</ele>
        <time>2019-03-21T12:56:08Z</time>
      </trkpt>
      <trkpt lat="43.68862" lon="2.96806">
        <ele>727.86</ele>
        <time>2019-03-21T12:56:17Z</time>
      </trkpt>
      <trkpt lat="43.68856" lon="2.96824">
        <ele>724.97</ele>
        <time>2019-03-21T12:56:31Z</time>
      </trkpt>
      <trkpt lat="43.68854" lon="2.96834">
        <ele>723.05</ele>
        <time>2019-03-21T12:56:39Z</time>
      </trkpt>
      <trkpt lat="43.68851" lon="2.96839">
        <ele>720.65</ele>
        <time>2019-03-21T12:56:50Z</time>
      </trkpt>
      <trkpt lat="43.68848" lon="2.96829">
        <ele>717.76</ele>
        <time>2019-03-21T12:57:02Z</time>
      </trkpt>
      <trkpt lat="43.68842" lon="2.96816">
        <ele>714.4</ele>
        <time>2019-03-21T12:57:14Z</time>
      </trkpt>
      <trkpt lat="43.68842" lon="2.96819">
        <ele>715.84</ele>
        <time>2019-03-21T12:59:53Z</time>
      </trkpt>
      <trkpt lat="43.68841" lon="2.96825">
        <ele>715.84</ele>
        <time>2019-03-21T13:00:09Z</time>
      </trkpt>
      <trkpt lat="43.68836" lon="2.96831">
        <ele>713.44</ele>
        <time>2019-03-21T13:00:26Z</time>
      </trkpt>
      <trkpt lat="43.68833" lon="2.96833">
        <ele>711.99</ele>
        <time>2019-03-21T13:00:39Z</time>
      </trkpt>
      <trkpt lat="43.68831" lon="2.96835">
        <ele>708.63</ele>
        <time>2019-03-21T13:00:49Z</time>
      </trkpt>
      <trkpt lat="43.68825" lon="2.96843">
        <ele>706.71</ele>
        <time>2019-03-21T13:01:02Z</time>
      </trkpt>
      <trkpt lat="43.68824" lon="2.96845">
        <ele>707.19</ele>
        <time>2019-03-21T13:01:18Z</time>
      </trkpt>
      <trkpt lat="43.68823" lon="2.96845">
        <ele>706.23</ele>
        <time>2019-03-21T13:01:20Z</time>
      </trkpt>
      <trkpt lat="43.68822" lon="2.9685">
        <ele>703.82</ele>
        <time>2019-03-21T13:01:31Z</time>
      </trkpt>
      <trkpt lat="43.68821" lon="2.96863">
        <ele>702.86</ele>
        <time>2019-03-21T13:01:46Z</time>
      </trkpt>
      <trkpt lat="43.6882" lon="2.96864">
        <ele>703.34</ele>
        <time>2019-03-21T13:01:53Z</time>
      </trkpt>
      <trkpt lat="43.68814" lon="2.96877">
        <ele>699.98</ele>
        <time>2019-03-21T13:02:09Z</time>
      </trkpt>
      <trkpt lat="43.68809" lon="2.96875">
        <ele>697.09</ele>
        <time>2019-03-21T13:02:22Z</time>
      </trkpt>
      <trkpt lat="43.68803" lon="2.96869">
        <ele>694.21</ele>
        <time>2019-03-21T13:02:37Z</time>
      </trkpt>
      <trkpt lat="43.68794" lon="2.9687">
        <ele>690.84</ele>
        <time>2019-03-21T13:02:51Z</time>
      </trkpt>
      <trkpt lat="43.6879" lon="2.96878">
        <ele>687.96</ele>
        <time>2019-03-21T13:03:06Z</time>
      </trkpt>
      <trkpt lat="43.68784" lon="2.96878">
        <ele>686.04</ele>
        <time>2019-03-21T13:03:19Z</time>
      </trkpt>
      <trkpt lat="43.6878" lon="2.96876">
        <ele>683.15</ele>
        <time>2019-03-21T13:03:31Z</time>
      </trkpt>
      <trkpt lat="43.68776" lon="2.96873">
        <ele>680.75</ele>
        <time>2019-03-21T13:03:42Z</time>
      </trkpt>
      <trkpt lat="43.68772" lon="2.96874">
        <ele>679.79</ele>
        <time>2019-03-21T13:03:46Z</time>
      </trkpt>
      <trkpt lat="43.68767" lon="2.96873">
        <ele>679.31</ele>
        <time>2019-03-21T13:04:00Z</time>
      </trkpt>
      <trkpt lat="43.68767" lon="2.96875">
        <ele>678.83</ele>
        <time>2019-03-21T13:04:24Z</time>
      </trkpt>
      <trkpt lat="43.68768" lon="2.96875">
        <ele>678.83</ele>
        <time>2019-03-21T13:04:47Z</time>
      </trkpt>
      <trkpt lat="43.68767" lon="2.96876">
        <ele>678.83</ele>
        <time>2019-03-21T13:05:13Z</time>
      </trkpt>
      <trkpt lat="43.68767" lon="2.96875">
        <ele>678.83</ele>
        <time>2019-03-21T13:05:27Z</time>
      </trkpt>
      <trkpt lat="43.68765" lon="2.96875">
        <ele>678.35</ele>
        <time>2019-03-21T13:05:51Z</time>
      </trkpt>
      <trkpt lat="43.68767" lon="2.96881">
        <ele>678.35</ele>
        <time>2019-03-21T13:06:12Z</time>
      </trkpt>
      <trkpt lat="43.6877" lon="2.96888">
        <ele>676.91</ele>
        <time>2019-03-21T13:06:26Z</time>
      </trkpt>
      <trkpt lat="43.68776" lon="2.96897">
        <ele>673.54</ele>
        <time>2019-03-21T13:06:42Z</time>
      </trkpt>
      <trkpt lat="43.68782" lon="2.96905">
        <ele>671.62</ele>
        <time>2019-03-21T13:06:56Z</time>
      </trkpt>
      <trkpt lat="43.68783" lon="2.96916">
        <ele>668.73</ele>
        <time>2019-03-21T13:07:07Z</time>
      </trkpt>
      <trkpt lat="43.68783" lon="2.96925">
        <ele>666.81</ele>
        <time>2019-03-21T13:07:19Z</time>
      </trkpt>
      <trkpt lat="43.68783" lon="2.96934">
        <ele>665.85</ele>
        <time>2019-03-21T13:07:35Z</time>
      </trkpt>
      <trkpt lat="43.68777" lon="2.96936">
        <ele>663.45</ele>
        <time>2019-03-21T13:07:48Z</time>
      </trkpt>
      <trkpt lat="43.68771" lon="2.96941">
        <ele>661.52</ele>
        <time>2019-03-21T13:08:00Z</time>
      </trkpt>
      <trkpt lat="43.68766" lon="2.96948">
        <ele>659.6</ele>
        <time>2019-03-21T13:08:14Z</time>
      </trkpt>
      <trkpt lat="43.68764" lon="2.96949">
        <ele>658.64</ele>
        <time>2019-03-21T13:08:24Z</time>
      </trkpt>
      <trkpt lat="43.6876" lon="2.96952">
        <ele>657.2</ele>
        <time>2019-03-21T13:08:35Z</time>
      </trkpt>
      <trkpt lat="43.68756" lon="2.96958">
        <ele>655.76</ele>
        <time>2019-03-21T13:08:45Z</time>
      </trkpt>
      <trkpt lat="43.68754" lon="2.96964">
        <ele>653.35</ele>
        <time>2019-03-21T13:08:55Z</time>
      </trkpt>
      <trkpt lat="43.68746" lon="2.96964">
        <ele>650.95</ele>
        <time>2019-03-21T13:09:08Z</time>
      </trkpt>
      <trkpt lat="43.68737" lon="2.96963">
        <ele>649.03</ele>
        <time>2019-03-21T13:09:21Z</time>
      </trkpt>
      <trkpt lat="43.68733" lon="2.9697">
        <ele>647.1</ele>
        <time>2019-03-21T13:09:29Z</time>
      </trkpt>
      <trkpt lat="43.68734" lon="2.96981">
        <ele>645.66</ele>
        <time>2019-03-21T13:09:44Z</time>
      </trkpt>
      <trkpt lat="43.68735" lon="2.96986">
        <ele>644.22</ele>
        <time>2019-03-21T13:09:52Z</time>
      </trkpt>
      <trkpt lat="43.68735" lon="2.96999">
        <ele>641.34</ele>
        <time>2019-03-21T13:10:05Z</time>
      </trkpt>
      <trkpt lat="43.68733" lon="2.97011">
        <ele>640.38</ele>
        <time>2019-03-21T13:10:17Z</time>
      </trkpt>
      <trkpt lat="43.68734" lon="2.97019">
        <ele>638.93</ele>
        <time>2019-03-21T13:10:29Z</time>
      </trkpt>
      <trkpt lat="43.68735" lon="2.97022">
        <ele>637.01</ele>
        <time>2019-03-21T13:10:40Z</time>
      </trkpt>
      <trkpt lat="43.68736" lon="2.97032">
        <ele>635.09</ele>
        <time>2019-03-21T13:10:51Z</time>
      </trkpt>
      <trkpt lat="43.68734" lon="2.97041">
        <ele>632.68</ele>
        <time>2019-03-21T13:11:06Z</time>
      </trkpt>
      <trkpt lat="43.68734" lon="2.97044">
        <ele>630.76</ele>
        <time>2019-03-21T13:11:17Z</time>
      </trkpt>
      <trkpt lat="43.68732" lon="2.97048">
        <ele>628.84</ele>
        <time>2019-03-21T13:11:28Z</time>
      </trkpt>
      <trkpt lat="43.68732" lon="2.9705">
        <ele>629.32</ele>
        <time>2019-03-21T13:11:54Z</time>
      </trkpt>
      <trkpt lat="43.68733" lon="2.97059">
        <ele>627.4</ele>
        <time>2019-03-21T13:12:07Z</time>
      </trkpt>
      <trkpt lat="43.68734" lon="2.97067">
        <ele>626.44</ele>
        <time>2019-03-21T13:12:21Z</time>
      </trkpt>
      <trkpt lat="43.68731" lon="2.97079">
        <ele>626.44</ele>
        <time>2019-03-21T13:12:34Z</time>
      </trkpt>
      <trkpt lat="43.68731" lon="2.97089">
        <ele>624.99</ele>
        <time>2019-03-21T13:12:50Z</time>
      </trkpt>
      <trkpt lat="43.68731" lon="2.97101">
        <ele>621.15</ele>
        <time>2019-03-21T13:13:05Z</time>
      </trkpt>
      <trkpt lat="43.68741" lon="2.97112">
        <ele>618.26</ele>
        <time>2019-03-21T13:13:21Z</time>
      </trkpt>
      <trkpt lat="43.68745" lon="2.97118">
        <ele>615.86</ele>
        <time>2019-03-21T13:13:33Z</time>
      </trkpt>
      <trkpt lat="43.68749" lon="2.97123">
        <ele>615.38</ele>
        <time>2019-03-21T13:13:45Z</time>
      </trkpt>
      <trkpt lat="43.68752" lon="2.9713">
        <ele>613.46</ele>
        <time>2019-03-21T13:14:01Z</time>
      </trkpt>
      <trkpt lat="43.6875" lon="2.9714">
        <ele>611.06</ele>
        <time>2019-03-21T13:14:20Z</time>
      </trkpt>
      <trkpt lat="43.68749" lon="2.97149">
        <ele>609.13</ele>
        <time>2019-03-21T13:14:37Z</time>
      </trkpt>
      <trkpt lat="43.68753" lon="2.97161">
        <ele>608.17</ele>
        <time>2019-03-21T13:14:50Z</time>
      </trkpt>
      <trkpt lat="43.68754" lon="2.97166">
        <ele>607.21</ele>
        <time>2019-03-21T13:15:07Z</time>
      </trkpt>
      <trkpt lat="43.68751" lon="2.97172">
        <ele>606.25</ele>
        <time>2019-03-21T13:15:23Z</time>
      </trkpt>
      <trkpt lat="43.68752" lon="2.97178">
        <ele>605.77</ele>
        <time>2019-03-21T13:15:43Z</time>
      </trkpt>
      <trkpt lat="43.6875" lon="2.97179">
        <ele>604.33</ele>
        <time>2019-03-21T13:16:03Z</time>
      </trkpt>
      <trkpt lat="43.68749" lon="2.97183">
        <ele>603.85</ele>
        <time>2019-03-21T13:16:15Z</time>
      </trkpt>
      <trkpt lat="43.68751" lon="2.97186">
        <ele>605.29</ele>
        <time>2019-03-21T13:16:19Z</time>
      </trkpt>
      <trkpt lat="43.68751" lon="2.97194">
        <ele>605.77</ele>
        <time>2019-03-21T13:16:34Z</time>
      </trkpt>
      <trkpt lat="43.68752" lon="2.97195">
        <ele>605.77</ele>
        <time>2019-03-21T13:16:59Z</time>
      </trkpt>
      <trkpt lat="43.68749" lon="2.972">
        <ele>604.33</ele>
        <time>2019-03-21T13:17:04Z</time>
      </trkpt>
      <trkpt lat="43.68746" lon="2.97204">
        <ele>603.85</ele>
        <time>2019-03-21T13:17:23Z</time>
      </trkpt>
      <trkpt lat="43.68748" lon="2.97205">
        <ele>603.85</ele>
        <time>2019-03-21T13:17:43Z</time>
      </trkpt>
      <trkpt lat="43.68747" lon="2.97207">
        <ele>603.36</ele>
        <time>2019-03-21T13:18:03Z</time>
      </trkpt>
      <trkpt lat="43.68744" lon="2.97216">
        <ele>600.96</ele>
        <time>2019-03-21T13:18:17Z</time>
      </trkpt>
      <trkpt lat="43.68744" lon="2.97227">
        <ele>599.04</ele>
        <time>2019-03-21T13:18:31Z</time>
      </trkpt>
      <trkpt lat="43.68747" lon="2.97234">
        <ele>596.64</ele>
        <time>2019-03-21T13:18:48Z</time>
      </trkpt>
      <trkpt lat="43.6875" lon="2.97238">
        <ele>596.64</ele>
        <time>2019-03-21T13:19:01Z</time>
      </trkpt>
      <trkpt lat="43.68753" lon="2.97241">
        <ele>595.67</ele>
        <time>2019-03-21T13:19:06Z</time>
      </trkpt>
      <trkpt lat="43.68759" lon="2.97247">
        <ele>594.23</ele>
        <time>2019-03-21T13:19:17Z</time>
      </trkpt>
      <trkpt lat="43.68761" lon="2.9725">
        <ele>593.27</ele>
        <time>2019-03-21T13:19:27Z</time>
      </trkpt>
      <trkpt lat="43.68763" lon="2.97254">
        <ele>592.31</ele>
        <time>2019-03-21T13:19:39Z</time>
      </trkpt>
      <trkpt lat="43.68764" lon="2.9726">
        <ele>590.39</ele>
        <time>2019-03-21T13:19:52Z</time>
      </trkpt>
      <trkpt lat="43.68765" lon="2.97268">
        <ele>588.95</ele>
        <time>2019-03-21T13:20:11Z</time>
      </trkpt>
      <trkpt lat="43.68764" lon="2.97268">
        <ele>588.95</ele>
        <time>2019-03-21T13:20:12Z</time>
      </trkpt>
      <trkpt lat="43.6876" lon="2.97274">
        <ele>587.02</ele>
        <time>2019-03-21T13:20:28Z</time>
      </trkpt>
      <trkpt lat="43.68758" lon="2.97279">
        <ele>586.54</ele>
        <time>2019-03-21T13:20:45Z</time>
      </trkpt>
      <trkpt lat="43.68755" lon="2.97287">
        <ele>585.58</ele>
        <time>2019-03-21T13:21:05Z</time>
      </trkpt>
      <trkpt lat="43.68755" lon="2.97293">
        <ele>585.58</ele>
        <time>2019-03-21T13:21:23Z</time>
      </trkpt>
      <trkpt lat="43.68755" lon="2.97296">
        <ele>587.02</ele>
        <time>2019-03-21T13:21:44Z</time>
      </trkpt>
      <trkpt lat="43.6875" lon="2.97303">
        <ele>587.5</ele>
        <time>2019-03-21T13:22:07Z</time>
      </trkpt>
      <trkpt lat="43.68746" lon="2.97307">
        <ele>586.06</ele>
        <time>2019-03-21T13:22:14Z</time>
      </trkpt>
      <trkpt lat="43.6874" lon="2.97307">
        <ele>582.7</ele>
        <time>2019-03-21T13:22:26Z</time>
      </trkpt>
      <trkpt lat="43.68732" lon="2.97316">
        <ele>581.73</ele>
        <time>2019-03-21T13:22:41Z</time>
      </trkpt>
      <trkpt lat="43.68726" lon="2.97317">
        <ele>578.37</ele>
        <time>2019-03-21T13:22:52Z</time>
      </trkpt>
      <trkpt lat="43.68727" lon="2.97322">
        <ele>576.93</ele>
        <time>2019-03-21T13:23:07Z</time>
      </trkpt>
      <trkpt lat="43.68724" lon="2.97329">
        <ele>575.49</ele>
        <time>2019-03-21T13:23:22Z</time>
      </trkpt>
      <trkpt lat="43.6872" lon="2.97332">
        <ele>574.04</ele>
        <time>2019-03-21T13:23:32Z</time>
      </trkpt>
      <trkpt lat="43.68717" lon="2.97335">
        <ele>573.08</ele>
        <time>2019-03-21T13:23:38Z</time>
      </trkpt>
      <trkpt lat="43.68712" lon="2.97341">
        <ele>572.12</ele>
        <time>2019-03-21T13:23:51Z</time>
      </trkpt>
      <trkpt lat="43.68709" lon="2.97348">
        <ele>572.12</ele>
        <time>2019-03-21T13:24:07Z</time>
      </trkpt>
      <trkpt lat="43.68705" lon="2.97352">
        <ele>571.64</ele>
        <time>2019-03-21T13:24:27Z</time>
      </trkpt>
      <trkpt lat="43.68704" lon="2.97357">
        <ele>570.2</ele>
        <time>2019-03-21T13:24:40Z</time>
      </trkpt>
      <trkpt lat="43.68699" lon="2.97361">
        <ele>568.28</ele>
        <time>2019-03-21T13:24:54Z</time>
      </trkpt>
      <trkpt lat="43.68695" lon="2.97362">
        <ele>566.83</ele>
        <time>2019-03-21T13:25:05Z</time>
      </trkpt>
      <trkpt lat="43.68689" lon="2.97362">
        <ele>565.87</ele>
        <time>2019-03-21T13:25:15Z</time>
      </trkpt>
      <trkpt lat="43.68684" lon="2.97372">
        <ele>564.91</ele>
        <time>2019-03-21T13:25:27Z</time>
      </trkpt>
      <trkpt lat="43.68677" lon="2.97385">
        <ele>562.99</ele>
        <time>2019-03-21T13:25:49Z</time>
      </trkpt>
      <trkpt lat="43.68665" lon="2.97398">
        <ele>560.11</ele>
        <time>2019-03-21T13:26:10Z</time>
      </trkpt>
      <trkpt lat="43.68654" lon="2.9741">
        <ele>559.14</ele>
        <time>2019-03-21T13:26:28Z</time>
      </trkpt>
      <trkpt lat="43.68651" lon="2.97418">
        <ele>559.14</ele>
        <time>2019-03-21T13:26:44Z</time>
      </trkpt>
      <trkpt lat="43.68648" lon="2.97426">
        <ele>557.22</ele>
        <time>2019-03-21T13:27:05Z</time>
      </trkpt>
      <trkpt lat="43.68644" lon="2.9743">
        <ele>554.82</ele>
        <time>2019-03-21T13:27:22Z</time>
      </trkpt>
      <trkpt lat="43.68637" lon="2.97433">
        <ele>551.93</ele>
        <time>2019-03-21T13:27:38Z</time>
      </trkpt>
      <trkpt lat="43.68632" lon="2.97442">
        <ele>549.53</ele>
        <time>2019-03-21T13:27:55Z</time>
      </trkpt>
      <trkpt lat="43.68637" lon="2.97447">
        <ele>548.57</ele>
        <time>2019-03-21T13:28:12Z</time>
      </trkpt>
      <trkpt lat="43.68638" lon="2.97451">
        <ele>546.65</ele>
        <time>2019-03-21T13:28:31Z</time>
      </trkpt>
      <trkpt lat="43.68638" lon="2.9745">
        <ele>547.13</ele>
        <time>2019-03-21T13:28:47Z</time>
      </trkpt>
      <trkpt lat="43.68637" lon="2.97453">
        <ele>547.13</ele>
        <time>2019-03-21T13:29:10Z</time>
      </trkpt>
      <trkpt lat="43.68639" lon="2.97454">
        <ele>547.13</ele>
        <time>2019-03-21T13:29:38Z</time>
      </trkpt>
      <trkpt lat="43.68639" lon="2.97449">
        <ele>547.13</ele>
        <time>2019-03-21T13:29:54Z</time>
      </trkpt>
      <trkpt lat="43.68638" lon="2.9745">
        <ele>546.65</ele>
        <time>2019-03-21T13:30:10Z</time>
      </trkpt>
      <trkpt lat="43.68638" lon="2.97452">
        <ele>547.13</ele>
        <time>2019-03-21T13:30:49Z</time>
      </trkpt>
      <trkpt lat="43.68638" lon="2.97452">
        <ele>546.17</ele>
        <time>2019-03-21T13:30:58Z</time>
      </trkpt>
      <trkpt lat="43.68638" lon="2.97457">
        <ele>547.13</ele>
        <time>2019-03-21T13:31:18Z</time>
      </trkpt>
      <trkpt lat="43.68638" lon="2.9747">
        <ele>547.13</ele>
        <time>2019-03-21T13:31:29Z</time>
      </trkpt>
      <trkpt lat="43.68637" lon="2.97489">
        <ele>547.13</ele>
        <time>2019-03-21T13:31:44Z</time>
      </trkpt>
      <trkpt lat="43.68632" lon="2.97508">
        <ele>547.13</ele>
        <time>2019-03-21T13:32:00Z</time>
      </trkpt>
      <trkpt lat="43.68627" lon="2.97524">
        <ele>547.13</ele>
        <time>2019-03-21T13:32:16Z</time>
      </trkpt>
      <trkpt lat="43.68624" lon="2.97533">
        <ele>547.13</ele>
        <time>2019-03-21T13:32:22Z</time>
      </trkpt>
      <trkpt lat="43.68619" lon="2.97545">
        <ele>547.13</ele>
        <time>2019-03-21T13:32:33Z</time>
      </trkpt>
      <trkpt lat="43.68616" lon="2.97551">
        <ele>547.13</ele>
        <time>2019-03-21T13:32:38Z</time>
      </trkpt>
      <trkpt lat="43.68615" lon="2.97556">
        <ele>547.13</ele>
        <time>2019-03-21T13:32:42Z</time>
      </trkpt>
      <trkpt lat="43.68615" lon="2.97567">
        <ele>546.65</ele>
        <time>2019-03-21T13:32:55Z</time>
      </trkpt>
      <trkpt lat="43.68622" lon="2.97585">
        <ele>545.69</ele>
        <time>2019-03-21T13:33:11Z</time>
      </trkpt>
      <trkpt lat="43.68623" lon="2.97593">
        <ele>545.69</ele>
        <time>2019-03-21T13:33:18Z</time>
      </trkpt>
      <trkpt lat="43.68624" lon="2.97598">
        <ele>545.69</ele>
        <time>2019-03-21T13:33:22Z</time>
      </trkpt>
      <trkpt lat="43.68624" lon="2.97601">
        <ele>545.69</ele>
        <time>2019-03-21T13:33:24Z</time>
      </trkpt>
      <trkpt lat="43.68626" lon="2.9762">
        <ele>545.69</ele>
        <time>2019-03-21T13:33:37Z</time>
      </trkpt>
      <trkpt lat="43.68627" lon="2.97623">
        <ele>545.69</ele>
        <time>2019-03-21T13:33:39Z</time>
      </trkpt>
      <trkpt lat="43.68628" lon="2.97625">
        <ele>545.69</ele>
        <time>2019-03-21T13:33:41Z</time>
      </trkpt>
      <trkpt lat="43.68633" lon="2.97633">
        <ele>545.69</ele>
        <time>2019-03-21T13:33:57Z</time>
      </trkpt>
      <trkpt lat="43.68642" lon="2.97639">
        <ele>545.69</ele>
        <time>2019-03-21T13:34:11Z</time>
      </trkpt>
      <trkpt lat="43.68654" lon="2.9764">
        <ele>545.2</ele>
        <time>2019-03-21T13:34:25Z</time>
      </trkpt>
      <trkpt lat="43.68657" lon="2.9764">
        <ele>546.17</ele>
        <time>2019-03-21T13:34:28Z</time>
      </trkpt>
      <trkpt lat="43.68666" lon="2.97643">
        <ele>546.17</ele>
        <time>2019-03-21T13:34:43Z</time>
      </trkpt>
      <trkpt lat="43.68673" lon="2.97647">
        <ele>546.17</ele>
        <time>2019-03-21T13:35:00Z</time>
      </trkpt>
      <trkpt lat="43.68681" lon="2.97651">
        <ele>546.17</ele>
        <time>2019-03-21T13:35:22Z</time>
      </trkpt>
      <trkpt lat="43.68683" lon="2.97657">
        <ele>546.17</ele>
        <time>2019-03-21T13:35:36Z</time>
      </trkpt>
      <trkpt lat="43.68687" lon="2.97661">
        <ele>545.2</ele>
        <time>2019-03-21T13:35:41Z</time>
      </trkpt>
      <trkpt lat="43.68689" lon="2.97662">
        <ele>544.72</ele>
        <time>2019-03-21T13:35:43Z</time>
      </trkpt>
      <trkpt lat="43.68695" lon="2.97664">
        <ele>544.72</ele>
        <time>2019-03-21T13:35:57Z</time>
      </trkpt>
      <trkpt lat="43.687" lon="2.97671">
        <ele>543.28</ele>
        <time>2019-03-21T13:36:12Z</time>
      </trkpt>
      <trkpt lat="43.68705" lon="2.97671">
        <ele>542.32</ele>
        <time>2019-03-21T13:36:26Z</time>
      </trkpt>
      <trkpt lat="43.68711" lon="2.97674">
        <ele>541.84</ele>
        <time>2019-03-21T13:36:44Z</time>
      </trkpt>
      <trkpt lat="43.68716" lon="2.97673">
        <ele>541.84</ele>
        <time>2019-03-21T13:37:11Z</time>
      </trkpt>
      <trkpt lat="43.68722" lon="2.97674">
        <ele>543.28</ele>
        <time>2019-03-21T13:37:18Z</time>
      </trkpt>
      <trkpt lat="43.68725" lon="2.97679">
        <ele>542.32</ele>
        <time>2019-03-21T13:37:27Z</time>
      </trkpt>
      <trkpt lat="43.68733" lon="2.97684">
        <ele>543.76</ele>
        <time>2019-03-21T13:37:39Z</time>
      </trkpt>
      <trkpt lat="43.68734" lon="2.97684">
        <ele>543.76</ele>
        <time>2019-03-21T13:37:40Z</time>
      </trkpt>
      <trkpt lat="43.68741" lon="2.97689">
        <ele>545.2</ele>
        <time>2019-03-21T13:37:54Z</time>
      </trkpt>
      <trkpt lat="43.68746" lon="2.97694">
        <ele>546.17</ele>
        <time>2019-03-21T13:38:07Z</time>
      </trkpt>
      <trkpt lat="43.6875" lon="2.97701">
        <ele>546.17</ele>
        <time>2019-03-21T13:38:18Z</time>
      </trkpt>
      <trkpt lat="43.68751" lon="2.97706">
        <ele>546.17</ele>
        <time>2019-03-21T13:38:22Z</time>
      </trkpt>
      <trkpt lat="43.68753" lon="2.97708">
        <ele>544.72</ele>
        <time>2019-03-21T13:38:24Z</time>
      </trkpt>
      <trkpt lat="43.68755" lon="2.97714">
        <ele>544.72</ele>
        <time>2019-03-21T13:38:37Z</time>
      </trkpt>
      <trkpt lat="43.68756" lon="2.97726">
        <ele>544.72</ele>
        <time>2019-03-21T13:38:50Z</time>
      </trkpt>
      <trkpt lat="43.68759" lon="2.9773">
        <ele>544.72</ele>
        <time>2019-03-21T13:39:11Z</time>
      </trkpt>
      <trkpt lat="43.68761" lon="2.97733">
        <ele>544.72</ele>
        <time>2019-03-21T13:39:28Z</time>
      </trkpt>
      <trkpt lat="43.68757" lon="2.9774">
        <ele>544.24</ele>
        <time>2019-03-21T13:39:42Z</time>
      </trkpt>
      <trkpt lat="43.68756" lon="2.97742">
        <ele>543.76</ele>
        <time>2019-03-21T13:39:45Z</time>
      </trkpt>
      <trkpt lat="43.68759" lon="2.97749">
        <ele>542.8</ele>
        <time>2019-03-21T13:39:57Z</time>
      </trkpt>
      <trkpt lat="43.68762" lon="2.97757">
        <ele>546.17</ele>
        <time>2019-03-21T13:40:16Z</time>
      </trkpt>
      <trkpt lat="43.68765" lon="2.9777">
        <ele>547.13</ele>
        <time>2019-03-21T13:40:30Z</time>
      </trkpt>
      <trkpt lat="43.68765" lon="2.97779">
        <ele>549.53</ele>
        <time>2019-03-21T13:40:44Z</time>
      </trkpt>
      <trkpt lat="43.68762" lon="2.97796">
        <ele>550.01</ele>
        <time>2019-03-21T13:40:59Z</time>
      </trkpt>
      <trkpt lat="43.6876" lon="2.9781">
        <ele>549.53</ele>
        <time>2019-03-21T13:41:09Z</time>
      </trkpt>
      <trkpt lat="43.68759" lon="2.9783">
        <ele>550.01</ele>
        <time>2019-03-21T13:41:25Z</time>
      </trkpt>
      <trkpt lat="43.68757" lon="2.97842">
        <ele>550.01</ele>
        <time>2019-03-21T13:41:36Z</time>
      </trkpt>
      <trkpt lat="43.6875" lon="2.97862">
        <ele>550.97</ele>
        <time>2019-03-21T13:41:52Z</time>
      </trkpt>
      <trkpt lat="43.6875" lon="2.97863">
        <ele>550.97</ele>
        <time>2019-03-21T13:41:58Z</time>
      </trkpt>
      <trkpt lat="43.68748" lon="2.97876">
        <ele>551.45</ele>
        <time>2019-03-21T13:42:11Z</time>
      </trkpt>
      <trkpt lat="43.68749" lon="2.97878">
        <ele>551.93</ele>
        <time>2019-03-21T13:42:21Z</time>
      </trkpt>
      <trkpt lat="43.68751" lon="2.97892">
        <ele>552.41</ele>
        <time>2019-03-21T13:42:34Z</time>
      </trkpt>
      <trkpt lat="43.68753" lon="2.97896">
        <ele>550.97</ele>
        <time>2019-03-21T13:42:38Z</time>
      </trkpt>
      <trkpt lat="43.68757" lon="2.97908">
        <ele>550.01</ele>
        <time>2019-03-21T13:42:49Z</time>
      </trkpt>
      <trkpt lat="43.68763" lon="2.97919">
        <ele>548.57</ele>
        <time>2019-03-21T13:43:03Z</time>
      </trkpt>
      <trkpt lat="43.6877" lon="2.97926">
        <ele>546.65</ele>
        <time>2019-03-21T13:43:18Z</time>
      </trkpt>
      <trkpt lat="43.68776" lon="2.97933">
        <ele>546.17</ele>
        <time>2019-03-21T13:43:38Z</time>
      </trkpt>
      <trkpt lat="43.68776" lon="2.97944">
        <ele>548.09</ele>
        <time>2019-03-21T13:43:51Z</time>
      </trkpt>
      <trkpt lat="43.68772" lon="2.97949">
        <ele>548.57</ele>
        <time>2019-03-21T13:44:01Z</time>
      </trkpt>
      <trkpt lat="43.6877" lon="2.97959">
        <ele>549.05</ele>
        <time>2019-03-21T13:44:15Z</time>
      </trkpt>
      <trkpt lat="43.68765" lon="2.97973">
        <ele>550.49</ele>
        <time>2019-03-21T13:44:31Z</time>
      </trkpt>
      <trkpt lat="43.68763" lon="2.97973">
        <ele>550.49</ele>
        <time>2019-03-21T13:44:48Z</time>
      </trkpt>
      <trkpt lat="43.68762" lon="2.97985">
        <ele>551.45</ele>
        <time>2019-03-21T13:45:05Z</time>
      </trkpt>
      <trkpt lat="43.68761" lon="2.97995">
        <ele>551.93</ele>
        <time>2019-03-21T13:45:11Z</time>
      </trkpt>
      <trkpt lat="43.68771" lon="2.98001">
        <ele>551.45</ele>
        <time>2019-03-21T13:45:24Z</time>
      </trkpt>
      <trkpt lat="43.68773" lon="2.98002">
        <ele>550.49</ele>
        <time>2019-03-21T13:45:26Z</time>
      </trkpt>
      <trkpt lat="43.68782" lon="2.98008">
        <ele>549.05</ele>
        <time>2019-03-21T13:45:37Z</time>
      </trkpt>
      <trkpt lat="43.68783" lon="2.98008">
        <ele>548.57</ele>
        <time>2019-03-21T13:45:41Z</time>
      </trkpt>
      <trkpt lat="43.6879" lon="2.9801">
        <ele>547.61</ele>
        <time>2019-03-21T13:45:54Z</time>
      </trkpt>
      <trkpt lat="43.68793" lon="2.9801">
        <ele>547.61</ele>
        <time>2019-03-21T13:45:58Z</time>
      </trkpt>
      <trkpt lat="43.68804" lon="2.98015">
        <ele>548.57</ele>
        <time>2019-03-21T13:46:13Z</time>
      </trkpt>
      <trkpt lat="43.6882" lon="2.98025">
        <ele>550.49</ele>
        <time>2019-03-21T13:46:32Z</time>
      </trkpt>
      <trkpt lat="43.68834" lon="2.98029">
        <ele>551.93</ele>
        <time>2019-03-21T13:46:49Z</time>
      </trkpt>
      <trkpt lat="43.68847" lon="2.98033">
        <ele>553.86</ele>
        <time>2019-03-21T13:47:07Z</time>
      </trkpt>
      <trkpt lat="43.6885" lon="2.98039">
        <ele>555.3</ele>
        <time>2019-03-21T13:47:24Z</time>
      </trkpt>
      <trkpt lat="43.68856" lon="2.98049">
        <ele>556.74</ele>
        <time>2019-03-21T13:47:40Z</time>
      </trkpt>
      <trkpt lat="43.6886" lon="2.98058">
        <ele>558.66</ele>
        <time>2019-03-21T13:47:58Z</time>
      </trkpt>
      <trkpt lat="43.68861" lon="2.98077">
        <ele>561.55</ele>
        <time>2019-03-21T13:48:15Z</time>
      </trkpt>
      <trkpt lat="43.6885" lon="2.98085">
        <ele>562.51</ele>
        <time>2019-03-21T13:48:29Z</time>
      </trkpt>
      <trkpt lat="43.6885" lon="2.98085">
        <ele>563.95</ele>
        <time>2019-03-21T13:48:42Z</time>
      </trkpt>
      <trkpt lat="43.68855" lon="2.98088">
        <ele>565.39</ele>
        <time>2019-03-21T13:48:56Z</time>
      </trkpt>
      <trkpt lat="43.68856" lon="2.98085">
        <ele>565.87</ele>
        <time>2019-03-21T13:49:15Z</time>
      </trkpt>
      <trkpt lat="43.68857" lon="2.98094">
        <ele>567.8</ele>
        <time>2019-03-21T13:49:27Z</time>
      </trkpt>
      <trkpt lat="43.68853" lon="2.98105">
        <ele>569.72</ele>
        <time>2019-03-21T13:49:42Z</time>
      </trkpt>
      <trkpt lat="43.68845" lon="2.98116">
        <ele>572.12</ele>
        <time>2019-03-21T13:50:00Z</time>
      </trkpt>
      <trkpt lat="43.68835" lon="2.98127">
        <ele>573.56</ele>
        <time>2019-03-21T13:50:15Z</time>
      </trkpt>
      <trkpt lat="43.68835" lon="2.98129">
        <ele>574.04</ele>
        <time>2019-03-21T13:50:17Z</time>
      </trkpt>
      <trkpt lat="43.68834" lon="2.98132">
        <ele>574.53</ele>
        <time>2019-03-21T13:50:20Z</time>
      </trkpt>
      <trkpt lat="43.6883" lon="2.98141">
        <ele>574.53</ele>
        <time>2019-03-21T13:50:29Z</time>
      </trkpt>
      <trkpt lat="43.68834" lon="2.98153">
        <ele>575.01</ele>
        <time>2019-03-21T13:50:44Z</time>
      </trkpt>
      <trkpt lat="43.6884" lon="2.98163">
        <ele>575.49</ele>
        <time>2019-03-21T13:50:54Z</time>
      </trkpt>
      <trkpt lat="43.68851" lon="2.98175">
        <ele>576.45</ele>
        <time>2019-03-21T13:51:12Z</time>
      </trkpt>
      <trkpt lat="43.6886" lon="2.98186">
        <ele>578.37</ele>
        <time>2019-03-21T13:51:27Z</time>
      </trkpt>
      <trkpt lat="43.68865" lon="2.98191">
        <ele>578.37</ele>
        <time>2019-03-21T13:51:42Z</time>
      </trkpt>
      <trkpt lat="43.68866" lon="2.98191">
        <ele>578.37</ele>
        <time>2019-03-21T13:52:05Z</time>
      </trkpt>
      <trkpt lat="43.68862" lon="2.98191">
        <ele>578.37</ele>
        <time>2019-03-21T13:52:33Z</time>
      </trkpt>
      <trkpt lat="43.68862" lon="2.98193">
        <ele>578.37</ele>
        <time>2019-03-21T13:53:09Z</time>
      </trkpt>
      <trkpt lat="43.68862" lon="2.9819">
        <ele>578.37</ele>
        <time>2019-03-21T13:53:40Z</time>
      </trkpt>
      <trkpt lat="43.68862" lon="2.98193">
        <ele>578.85</ele>
        <time>2019-03-21T13:54:19Z</time>
      </trkpt>
      <trkpt lat="43.68864" lon="2.98191">
        <ele>578.85</ele>
        <time>2019-03-21T13:55:01Z</time>
      </trkpt>
      <trkpt lat="43.68864" lon="2.98192">
        <ele>578.85</ele>
        <time>2019-03-21T13:55:41Z</time>
      </trkpt>
      <trkpt lat="43.68864" lon="2.98195">
        <ele>579.33</ele>
        <time>2019-03-21T13:56:00Z</time>
      </trkpt>
      <trkpt lat="43.68868" lon="2.98205">
        <ele>580.29</ele>
        <time>2019-03-21T13:56:13Z</time>
      </trkpt>
      <trkpt lat="43.68871" lon="2.98214">
        <ele>581.73</ele>
        <time>2019-03-21T13:56:22Z</time>
      </trkpt>
      <trkpt lat="43.68875" lon="2.98233">
        <ele>582.7</ele>
        <time>2019-03-21T13:56:38Z</time>
      </trkpt>
      <trkpt lat="43.68878" lon="2.98247">
        <ele>585.58</ele>
        <time>2019-03-21T13:56:53Z</time>
      </trkpt>
      <trkpt lat="43.68883" lon="2.98265">
        <ele>585.58</ele>
        <time>2019-03-21T13:57:08Z</time>
      </trkpt>
      <trkpt lat="43.6889" lon="2.98277">
        <ele>586.54</ele>
        <time>2019-03-21T13:57:21Z</time>
      </trkpt>
      <trkpt lat="43.68897" lon="2.98292">
        <ele>587.02</ele>
        <time>2019-03-21T13:57:37Z</time>
      </trkpt>
      <trkpt lat="43.68903" lon="2.98314">
        <ele>587.5</ele>
        <time>2019-03-21T13:57:51Z</time>
      </trkpt>
      <trkpt lat="43.68911" lon="2.98329">
        <ele>587.5</ele>
        <time>2019-03-21T13:58:05Z</time>
      </trkpt>
      <trkpt lat="43.68917" lon="2.98343">
        <ele>589.91</ele>
        <time>2019-03-21T13:58:18Z</time>
      </trkpt>
      <trkpt lat="43.68925" lon="2.98364">
        <ele>591.35</ele>
        <time>2019-03-21T13:58:34Z</time>
      </trkpt>
      <trkpt lat="43.68931" lon="2.98378">
        <ele>592.79</ele>
        <time>2019-03-21T13:58:47Z</time>
      </trkpt>
      <trkpt lat="43.68934" lon="2.98395">
        <ele>595.67</ele>
        <time>2019-03-21T13:59:02Z</time>
      </trkpt>
      <trkpt lat="43.68933" lon="2.98398">
        <ele>595.67</ele>
        <time>2019-03-21T13:59:16Z</time>
      </trkpt>
      <trkpt lat="43.68932" lon="2.98405">
        <ele>595.67</ele>
        <time>2019-03-21T13:59:22Z</time>
      </trkpt>
      <trkpt lat="43.68931" lon="2.98409">
        <ele>596.15</ele>
        <time>2019-03-21T13:59:38Z</time>
      </trkpt>
      <trkpt lat="43.6893" lon="2.98409">
        <ele>596.15</ele>
        <time>2019-03-21T14:00:12Z</time>
      </trkpt>
      <trkpt lat="43.6893" lon="2.98408">
        <ele>596.15</ele>
        <time>2019-03-21T14:00:35Z</time>
      </trkpt>
      <trkpt lat="43.68935" lon="2.98407">
        <ele>596.15</ele>
        <time>2019-03-21T14:00:52Z</time>
      </trkpt>
      <trkpt lat="43.68939" lon="2.98407">
        <ele>596.15</ele>
        <time>2019-03-21T14:01:22Z</time>
      </trkpt>
      <trkpt lat="43.68932" lon="2.98409">
        <ele>596.15</ele>
        <time>2019-03-21T14:01:38Z</time>
      </trkpt>
      <trkpt lat="43.68931" lon="2.98408">
        <ele>596.15</ele>
        <time>2019-03-21T14:01:58Z</time>
      </trkpt>
      <trkpt lat="43.68932" lon="2.98406">
        <ele>596.64</ele>
        <time>2019-03-21T14:02:27Z</time>
      </trkpt>
      <trkpt lat="43.68936" lon="2.98407">
        <ele>596.64</ele>
        <time>2019-03-21T14:02:43Z</time>
      </trkpt>
      <trkpt lat="43.68933" lon="2.98398">
        <ele>596.64</ele>
        <time>2019-03-21T14:02:57Z</time>
      </trkpt>
      <trkpt lat="43.68939" lon="2.98393">
        <ele>597.12</ele>
        <time>2019-03-21T14:03:13Z</time>
      </trkpt>
      <trkpt lat="43.68942" lon="2.9839">
        <ele>599.52</ele>
        <time>2019-03-21T14:03:24Z</time>
      </trkpt>
      <trkpt lat="43.6894" lon="2.98386">
        <ele>600.48</ele>
        <time>2019-03-21T14:03:39Z</time>
      </trkpt>
      <trkpt lat="43.68944" lon="2.98385">
        <ele>600.48</ele>
        <time>2019-03-21T14:04:06Z</time>
      </trkpt>
      <trkpt lat="43.68945" lon="2.98384">
        <ele>601.44</ele>
        <time>2019-03-21T14:04:19Z</time>
      </trkpt>
      <trkpt lat="43.68948" lon="2.98387">
        <ele>601.44</ele>
        <time>2019-03-21T14:04:33Z</time>
      </trkpt>
      <trkpt lat="43.68953" lon="2.98389">
        <ele>601.44</ele>
        <time>2019-03-21T14:04:47Z</time>
      </trkpt>
      <trkpt lat="43.68957" lon="2.98392">
        <ele>601.44</ele>
        <time>2019-03-21T14:05:02Z</time>
      </trkpt>
      <trkpt lat="43.68962" lon="2.98387">
        <ele>603.36</ele>
        <time>2019-03-21T14:05:17Z</time>
      </trkpt>
      <trkpt lat="43.68962" lon="2.98389">
        <ele>603.36</ele>
        <time>2019-03-21T14:05:28Z</time>
      </trkpt>
      <trkpt lat="43.68967" lon="2.98385">
        <ele>604.33</ele>
        <time>2019-03-21T14:05:56Z</time>
      </trkpt>
      <trkpt lat="43.68973" lon="2.98381">
        <ele>606.25</ele>
        <time>2019-03-21T14:06:10Z</time>
      </trkpt>
      <trkpt lat="43.68975" lon="2.9838">
        <ele>607.21</ele>
        <time>2019-03-21T14:06:29Z</time>
      </trkpt>
      <trkpt lat="43.68984" lon="2.98373">
        <ele>607.69</ele>
        <time>2019-03-21T14:06:42Z</time>
      </trkpt>
      <trkpt lat="43.68988" lon="2.98371">
        <ele>609.61</ele>
        <time>2019-03-21T14:06:48Z</time>
      </trkpt>
      <trkpt lat="43.68999" lon="2.98369">
        <ele>610.57</ele>
        <time>2019-03-21T14:07:05Z</time>
      </trkpt>
      <trkpt lat="43.69008" lon="2.98369">
        <ele>610.57</ele>
        <time>2019-03-21T14:07:22Z</time>
      </trkpt>
      <trkpt lat="43.69016" lon="2.98368">
        <ele>611.54</ele>
        <time>2019-03-21T14:07:35Z</time>
      </trkpt>
      <trkpt lat="43.69018" lon="2.9837">
        <ele>610.57</ele>
        <time>2019-03-21T14:07:42Z</time>
      </trkpt>
      <trkpt lat="43.69027" lon="2.98369">
        <ele>610.57</ele>
        <time>2019-03-21T14:07:55Z</time>
      </trkpt>
      <trkpt lat="43.69038" lon="2.98374">
        <ele>612.02</ele>
        <time>2019-03-21T14:08:08Z</time>
      </trkpt>
      <trkpt lat="43.69048" lon="2.98375">
        <ele>612.02</ele>
        <time>2019-03-21T14:08:22Z</time>
      </trkpt>
      <trkpt lat="43.69057" lon="2.98381">
        <ele>612.02</ele>
        <time>2019-03-21T14:08:32Z</time>
      </trkpt>
      <trkpt lat="43.69066" lon="2.98381">
        <ele>612.5</ele>
        <time>2019-03-21T14:08:46Z</time>
      </trkpt>
      <trkpt lat="43.69076" lon="2.98383">
        <ele>613.46</ele>
        <time>2019-03-21T14:08:58Z</time>
      </trkpt>
      <trkpt lat="43.69084" lon="2.98388">
        <ele>614.42</ele>
        <time>2019-03-21T14:09:12Z</time>
      </trkpt>
      <trkpt lat="43.6909" lon="2.98391">
        <ele>616.34</ele>
        <time>2019-03-21T14:09:23Z</time>
      </trkpt>
      <trkpt lat="43.69099" lon="2.98397">
        <ele>618.75</ele>
        <time>2019-03-21T14:09:37Z</time>
      </trkpt>
      <trkpt lat="43.69103" lon="2.98399">
        <ele>620.67</ele>
        <time>2019-03-21T14:09:51Z</time>
      </trkpt>
      <trkpt lat="43.69108" lon="2.98399">
        <ele>621.63</ele>
        <time>2019-03-21T14:10:05Z</time>
      </trkpt>
      <trkpt lat="43.69111" lon="2.984">
        <ele>623.07</ele>
        <time>2019-03-21T14:10:15Z</time>
      </trkpt>
      <trkpt lat="43.69119" lon="2.984">
        <ele>624.99</ele>
        <time>2019-03-21T14:10:27Z</time>
      </trkpt>
      <trkpt lat="43.69122" lon="2.984">
        <ele>625.47</ele>
        <time>2019-03-21T14:10:43Z</time>
      </trkpt>
      <trkpt lat="43.69127" lon="2.98401">
        <ele>625.47</ele>
        <time>2019-03-21T14:10:57Z</time>
      </trkpt>
      <trkpt lat="43.6913" lon="2.98402">
        <ele>625.47</ele>
        <time>2019-03-21T14:11:12Z</time>
      </trkpt>
      <trkpt lat="43.69132" lon="2.984">
        <ele>626.44</ele>
        <time>2019-03-21T14:11:30Z</time>
      </trkpt>
      <trkpt lat="43.6914" lon="2.98405">
        <ele>628.84</ele>
        <time>2019-03-21T14:11:44Z</time>
      </trkpt>
      <trkpt lat="43.69147" lon="2.98407">
        <ele>629.8</ele>
        <time>2019-03-21T14:11:57Z</time>
      </trkpt>
      <trkpt lat="43.69153" lon="2.98408">
        <ele>629.8</ele>
        <time>2019-03-21T14:12:14Z</time>
      </trkpt>
      <trkpt lat="43.6916" lon="2.98412">
        <ele>629.8</ele>
        <time>2019-03-21T14:12:29Z</time>
      </trkpt>
      <trkpt lat="43.69169" lon="2.98416">
        <ele>629.8</ele>
        <time>2019-03-21T14:12:41Z</time>
      </trkpt>
      <trkpt lat="43.69175" lon="2.98417">
        <ele>629.8</ele>
        <time>2019-03-21T14:12:53Z</time>
      </trkpt>
      <trkpt lat="43.6918" lon="2.98418">
        <ele>630.28</ele>
        <time>2019-03-21T14:13:05Z</time>
      </trkpt>
      <trkpt lat="43.69185" lon="2.98414">
        <ele>630.76</ele>
        <time>2019-03-21T14:13:24Z</time>
      </trkpt>
      <trkpt lat="43.69189" lon="2.98419">
        <ele>629.32</ele>
        <time>2019-03-21T14:13:38Z</time>
      </trkpt>
      <trkpt lat="43.69194" lon="2.98427">
        <ele>626.92</ele>
        <time>2019-03-21T14:13:54Z</time>
      </trkpt>
      <trkpt lat="43.69199" lon="2.98429">
        <ele>624.51</ele>
        <time>2019-03-21T14:14:17Z</time>
      </trkpt>
      <trkpt lat="43.69204" lon="2.98427">
        <ele>624.99</ele>
        <time>2019-03-21T14:14:25Z</time>
      </trkpt>
      <trkpt lat="43.6921" lon="2.98427">
        <ele>625.47</ele>
        <time>2019-03-21T14:14:46Z</time>
      </trkpt>
      <trkpt lat="43.69209" lon="2.98429">
        <ele>625.47</ele>
        <time>2019-03-21T14:15:07Z</time>
      </trkpt>
      <trkpt lat="43.69213" lon="2.98428">
        <ele>624.99</ele>
        <time>2019-03-21T14:15:27Z</time>
      </trkpt>
      <trkpt lat="43.69218" lon="2.9843">
        <ele>624.99</ele>
        <time>2019-03-21T14:15:43Z</time>
      </trkpt>
      <trkpt lat="43.69215" lon="2.98435">
        <ele>622.11</ele>
        <time>2019-03-21T14:16:02Z</time>
      </trkpt>
      <trkpt lat="43.69215" lon="2.98442">
        <ele>621.63</ele>
        <time>2019-03-21T14:16:18Z</time>
      </trkpt>
      <trkpt lat="43.69216" lon="2.98446">
        <ele>623.07</ele>
        <time>2019-03-21T14:16:25Z</time>
      </trkpt>
      <trkpt lat="43.69213" lon="2.98455">
        <ele>621.63</ele>
        <time>2019-03-21T14:16:45Z</time>
      </trkpt>
      <trkpt lat="43.69208" lon="2.98468">
        <ele>619.71</ele>
        <time>2019-03-21T14:17:00Z</time>
      </trkpt>
      <trkpt lat="43.69205" lon="2.98476">
        <ele>616.82</ele>
        <time>2019-03-21T14:17:10Z</time>
      </trkpt>
      <trkpt lat="43.69205" lon="2.98484">
        <ele>617.78</ele>
        <time>2019-03-21T14:17:23Z</time>
      </trkpt>
      <trkpt lat="43.69209" lon="2.98489">
        <ele>620.19</ele>
        <time>2019-03-21T14:17:36Z</time>
      </trkpt>
      <trkpt lat="43.6921" lon="2.98495">
        <ele>620.19</ele>
        <time>2019-03-21T14:17:43Z</time>
      </trkpt>
      <trkpt lat="43.6921" lon="2.98511">
        <ele>620.19</ele>
        <time>2019-03-21T14:17:54Z</time>
      </trkpt>
      <trkpt lat="43.69212" lon="2.98521">
        <ele>620.67</ele>
        <time>2019-03-21T14:18:10Z</time>
      </trkpt>
      <trkpt lat="43.69211" lon="2.98534">
        <ele>619.23</ele>
        <time>2019-03-21T14:18:23Z</time>
      </trkpt>
      <trkpt lat="43.69214" lon="2.98551">
        <ele>620.67</ele>
        <time>2019-03-21T14:18:40Z</time>
      </trkpt>
      <trkpt lat="43.69218" lon="2.98568">
        <ele>621.15</ele>
        <time>2019-03-21T14:19:06Z</time>
      </trkpt>
      <trkpt lat="43.69225" lon="2.98591">
        <ele>621.15</ele>
        <time>2019-03-21T14:19:27Z</time>
      </trkpt>
      <trkpt lat="43.69213" lon="2.98588">
        <ele>621.15</ele>
        <time>2019-03-21T14:19:49Z</time>
      </trkpt>
      <trkpt lat="43.69213" lon="2.98578">
        <ele>621.15</ele>
        <time>2019-03-21T14:20:00Z</time>
      </trkpt>
      <trkpt lat="43.69209" lon="2.98578">
        <ele>621.15</ele>
        <time>2019-03-21T14:20:17Z</time>
      </trkpt>
      <trkpt lat="43.69213" lon="2.98601">
        <ele>621.15</ele>
        <time>2019-03-21T14:20:46Z</time>
      </trkpt>
      <trkpt lat="43.69223" lon="2.98608">
        <ele>619.71</ele>
        <time>2019-03-21T14:21:13Z</time>
      </trkpt>
      <trkpt lat="43.69211" lon="2.98584">
        <ele>618.75</ele>
        <time>2019-03-21T14:21:26Z</time>
      </trkpt>
      <trkpt lat="43.69213" lon="2.98587">
        <ele>618.26</ele>
        <time>2019-03-21T14:21:39Z</time>
      </trkpt>
      <trkpt lat="43.69213" lon="2.98582">
        <ele>618.75</ele>
        <time>2019-03-21T14:22:08Z</time>
      </trkpt>
      <trkpt lat="43.69211" lon="2.98592">
        <ele>618.75</ele>
        <time>2019-03-21T14:22:35Z</time>
      </trkpt>
      <trkpt lat="43.69209" lon="2.98583">
        <ele>618.75</ele>
        <time>2019-03-21T14:22:43Z</time>
      </trkpt>
      <trkpt lat="43.69208" lon="2.98582">
        <ele>618.75</ele>
        <time>2019-03-21T14:23:05Z</time>
      </trkpt>
      <trkpt lat="43.69209" lon="2.98577">
        <ele>620.19</ele>
        <time>2019-03-21T14:23:19Z</time>
      </trkpt>
      <trkpt lat="43.69205" lon="2.98581">
        <ele>620.19</ele>
        <time>2019-03-21T14:23:35Z</time>
      </trkpt>
      <trkpt lat="43.69208" lon="2.9859">
        <ele>620.67</ele>
        <time>2019-03-21T14:23:54Z</time>
      </trkpt>
      <trkpt lat="43.69213" lon="2.98583">
        <ele>620.67</ele>
        <time>2019-03-21T14:24:14Z</time>
      </trkpt>
      <trkpt lat="43.69218" lon="2.98586">
        <ele>620.67</ele>
        <time>2019-03-21T14:24:37Z</time>
      </trkpt>
      <trkpt lat="43.69211" lon="2.98583">
        <ele>620.67</ele>
        <time>2019-03-21T14:24:53Z</time>
      </trkpt>
      <trkpt lat="43.692" lon="2.9859">
        <ele>620.67</ele>
        <time>2019-03-21T14:25:05Z</time>
      </trkpt>
      <trkpt lat="43.69187" lon="2.98596">
        <ele>620.19</ele>
        <time>2019-03-21T14:25:21Z</time>
      </trkpt>
      <trkpt lat="43.69182" lon="2.98599">
        <ele>619.23</ele>
        <time>2019-03-21T14:25:27Z</time>
      </trkpt>
      <trkpt lat="43.69181" lon="2.98599">
        <ele>619.23</ele>
        <time>2019-03-21T14:25:28Z</time>
      </trkpt>
      <trkpt lat="43.69171" lon="2.98605">
        <ele>619.71</ele>
        <time>2019-03-21T14:25:41Z</time>
      </trkpt>
      <trkpt lat="43.69161" lon="2.98611">
        <ele>620.19</ele>
        <time>2019-03-21T14:25:55Z</time>
      </trkpt>
      <trkpt lat="43.6915" lon="2.98618">
        <ele>616.82</ele>
        <time>2019-03-21T14:26:11Z</time>
      </trkpt>
      <trkpt lat="43.69148" lon="2.98624">
        <ele>616.34</ele>
        <time>2019-03-21T14:26:31Z</time>
      </trkpt>
      <trkpt lat="43.69147" lon="2.98632">
        <ele>613.94</ele>
        <time>2019-03-21T14:26:45Z</time>
      </trkpt>
      <trkpt lat="43.69137" lon="2.98646">
        <ele>612.5</ele>
        <time>2019-03-21T14:27:00Z</time>
      </trkpt>
      <trkpt lat="43.6913" lon="2.98649">
        <ele>613.46</ele>
        <time>2019-03-21T14:27:16Z</time>
      </trkpt>
      <trkpt lat="43.69125" lon="2.98657">
        <ele>610.09</ele>
        <time>2019-03-21T14:27:33Z</time>
      </trkpt>
      <trkpt lat="43.69111" lon="2.98676">
        <ele>607.69</ele>
        <time>2019-03-21T14:27:51Z</time>
      </trkpt>
      <trkpt lat="43.69097" lon="2.98683">
        <ele>606.25</ele>
        <time>2019-03-21T14:28:04Z</time>
      </trkpt>
      <trkpt lat="43.69091" lon="2.98693">
        <ele>605.77</ele>
        <time>2019-03-21T14:28:20Z</time>
      </trkpt>
      <trkpt lat="43.69088" lon="2.98707">
        <ele>604.81</ele>
        <time>2019-03-21T14:28:35Z</time>
      </trkpt>
      <trkpt lat="43.69084" lon="2.9872">
        <ele>601.92</ele>
        <time>2019-03-21T14:28:53Z</time>
      </trkpt>
      <trkpt lat="43.69079" lon="2.98728">
        <ele>601.44</ele>
        <time>2019-03-21T14:29:09Z</time>
      </trkpt>
      <trkpt lat="43.69075" lon="2.98737">
        <ele>600.48</ele>
        <time>2019-03-21T14:29:23Z</time>
      </trkpt>
      <trkpt lat="43.69071" lon="2.98744">
        <ele>600</ele>
        <time>2019-03-21T14:29:38Z</time>
      </trkpt>
      <trkpt lat="43.69066" lon="2.98752">
        <ele>599.52</ele>
        <time>2019-03-21T14:29:51Z</time>
      </trkpt>
      <trkpt lat="43.69058" lon="2.98763">
        <ele>598.08</ele>
        <time>2019-03-21T14:30:05Z</time>
      </trkpt>
      <trkpt lat="43.69051" lon="2.98773">
        <ele>596.64</ele>
        <time>2019-03-21T14:30:22Z</time>
      </trkpt>
      <trkpt lat="43.69047" lon="2.9878">
        <ele>595.19</ele>
        <time>2019-03-21T14:30:33Z</time>
      </trkpt>
      <trkpt lat="43.69041" lon="2.98785">
        <ele>593.75</ele>
        <time>2019-03-21T14:30:47Z</time>
      </trkpt>
      <trkpt lat="43.69036" lon="2.98791">
        <ele>592.31</ele>
        <time>2019-03-21T14:31:02Z</time>
      </trkpt>
      <trkpt lat="43.69032" lon="2.98796">
        <ele>592.31</ele>
        <time>2019-03-21T14:31:23Z</time>
      </trkpt>
      <trkpt lat="43.69031" lon="2.98799">
        <ele>591.35</ele>
        <time>2019-03-21T14:31:43Z</time>
      </trkpt>
      <trkpt lat="43.69028" lon="2.98802">
        <ele>590.39</ele>
        <time>2019-03-21T14:32:04Z</time>
      </trkpt>
      <trkpt lat="43.69025" lon="2.98816">
        <ele>587.98</ele>
        <time>2019-03-21T14:32:22Z</time>
      </trkpt>
      <trkpt lat="43.69018" lon="2.98831">
        <ele>585.1</ele>
        <time>2019-03-21T14:32:42Z</time>
      </trkpt>
      <trkpt lat="43.69008" lon="2.98841">
        <ele>582.7</ele>
        <time>2019-03-21T14:32:58Z</time>
      </trkpt>
      <trkpt lat="43.69" lon="2.98851">
        <ele>580.29</ele>
        <time>2019-03-21T14:33:13Z</time>
      </trkpt>
      <trkpt lat="43.68995" lon="2.98864">
        <ele>579.81</ele>
        <time>2019-03-21T14:33:26Z</time>
      </trkpt>
      <trkpt lat="43.68994" lon="2.98871">
        <ele>579.81</ele>
        <time>2019-03-21T14:33:32Z</time>
      </trkpt>
      <trkpt lat="43.68997" lon="2.98883">
        <ele>575.49</ele>
        <time>2019-03-21T14:33:45Z</time>
      </trkpt>
      <trkpt lat="43.68996" lon="2.98884">
        <ele>582.22</ele>
        <time>2019-03-21T14:33:46Z</time>
      </trkpt>
      <trkpt lat="43.68996" lon="2.98885">
        <ele>578.37</ele>
        <time>2019-03-21T14:33:47Z</time>
      </trkpt>
      <trkpt lat="43.68992" lon="2.98902">
        <ele>576.93</ele>
        <time>2019-03-21T14:34:06Z</time>
      </trkpt>
      <trkpt lat="43.68993" lon="2.98915">
        <ele>575.97</ele>
        <time>2019-03-21T14:34:23Z</time>
      </trkpt>
      <trkpt lat="43.68993" lon="2.98937">
        <ele>575.49</ele>
        <time>2019-03-21T14:34:39Z</time>
      </trkpt>
      <trkpt lat="43.69001" lon="2.98954">
        <ele>575.49</ele>
        <time>2019-03-21T14:34:55Z</time>
      </trkpt>
      <trkpt lat="43.69003" lon="2.98969">
        <ele>573.56</ele>
        <time>2019-03-21T14:35:12Z</time>
      </trkpt>
      <trkpt lat="43.68997" lon="2.98983">
        <ele>572.12</ele>
        <time>2019-03-21T14:35:24Z</time>
      </trkpt>
      <trkpt lat="43.68994" lon="2.98993">
        <ele>571.64</ele>
        <time>2019-03-21T14:35:35Z</time>
      </trkpt>
      <trkpt lat="43.68995" lon="2.99008">
        <ele>571.16</ele>
        <time>2019-03-21T14:35:48Z</time>
      </trkpt>
      <trkpt lat="43.68986" lon="2.99022">
        <ele>570.68</ele>
        <time>2019-03-21T14:35:59Z</time>
      </trkpt>
      <trkpt lat="43.6898" lon="2.99028">
        <ele>569.72</ele>
        <time>2019-03-21T14:36:07Z</time>
      </trkpt>
      <trkpt lat="43.68971" lon="2.99036">
        <ele>566.83</ele>
        <time>2019-03-21T14:36:23Z</time>
      </trkpt>
      <trkpt lat="43.68961" lon="2.99043">
        <ele>563.95</ele>
        <time>2019-03-21T14:36:37Z</time>
      </trkpt>
      <trkpt lat="43.68946" lon="2.99053">
        <ele>563.47</ele>
        <time>2019-03-21T14:36:52Z</time>
      </trkpt>
      <trkpt lat="43.68942" lon="2.99057">
        <ele>561.55</ele>
        <time>2019-03-21T14:36:57Z</time>
      </trkpt>
      <trkpt lat="43.68932" lon="2.99069">
        <ele>560.11</ele>
        <time>2019-03-21T14:37:13Z</time>
      </trkpt>
      <trkpt lat="43.68928" lon="2.99078">
        <ele>558.18</ele>
        <time>2019-03-21T14:37:25Z</time>
      </trkpt>
      <trkpt lat="43.68924" lon="2.99083">
        <ele>556.26</ele>
        <time>2019-03-21T14:37:37Z</time>
      </trkpt>
      <trkpt lat="43.68922" lon="2.99084">
        <ele>556.26</ele>
        <time>2019-03-21T14:37:40Z</time>
      </trkpt>
      <trkpt lat="43.6892" lon="2.99084">
        <ele>556.26</ele>
        <time>2019-03-21T14:37:42Z</time>
      </trkpt>
      <trkpt lat="43.68914" lon="2.99078">
        <ele>556.26</ele>
        <time>2019-03-21T14:37:53Z</time>
      </trkpt>
      <trkpt lat="43.6891" lon="2.99078">
        <ele>555.3</ele>
        <time>2019-03-21T14:38:10Z</time>
      </trkpt>
      <trkpt lat="43.68907" lon="2.99076">
        <ele>554.34</ele>
        <time>2019-03-21T14:38:20Z</time>
      </trkpt>
      <trkpt lat="43.68905" lon="2.99068">
        <ele>552.9</ele>
        <time>2019-03-21T14:38:31Z</time>
      </trkpt>
      <trkpt lat="43.68898" lon="2.99068">
        <ele>551.45</ele>
        <time>2019-03-21T14:38:46Z</time>
      </trkpt>
      <trkpt lat="43.68893" lon="2.99067">
        <ele>551.45</ele>
        <time>2019-03-21T14:39:05Z</time>
      </trkpt>
      <trkpt lat="43.68891" lon="2.99066">
        <ele>551.45</ele>
        <time>2019-03-21T14:39:25Z</time>
      </trkpt>
      <trkpt lat="43.6889" lon="2.99067">
        <ele>551.45</ele>
        <time>2019-03-21T14:39:45Z</time>
      </trkpt>
      <trkpt lat="43.68893" lon="2.99069">
        <ele>551.45</ele>
        <time>2019-03-21T14:40:13Z</time>
      </trkpt>
      <trkpt lat="43.68891" lon="2.99069">
        <ele>550.97</ele>
        <time>2019-03-21T14:40:46Z</time>
      </trkpt>
      <trkpt lat="43.68887" lon="2.99069">
        <ele>550.97</ele>
        <time>2019-03-21T14:41:02Z</time>
      </trkpt>
      <trkpt lat="43.68885" lon="2.99072">
        <ele>551.45</ele>
        <time>2019-03-21T14:41:18Z</time>
      </trkpt>
      <trkpt lat="43.68885" lon="2.99072">
        <ele>551.45</ele>
        <time>2019-03-21T14:41:45Z</time>
      </trkpt>
      <trkpt lat="43.68878" lon="2.9907">
        <ele>550.97</ele>
        <time>2019-03-21T14:42:00Z</time>
      </trkpt>
      <trkpt lat="43.68871" lon="2.99074">
        <ele>549.53</ele>
        <time>2019-03-21T14:42:16Z</time>
      </trkpt>
      <trkpt lat="43.68871" lon="2.99075">
        <ele>549.53</ele>
        <time>2019-03-21T14:42:17Z</time>
      </trkpt>
      <trkpt lat="43.68866" lon="2.9907">
        <ele>549.53</ele>
        <time>2019-03-21T14:42:28Z</time>
      </trkpt>
      <trkpt lat="43.68869" lon="2.99071">
        <ele>548.57</ele>
        <time>2019-03-21T14:42:42Z</time>
      </trkpt>
      <trkpt lat="43.68865" lon="2.99073">
        <ele>550.01</ele>
        <time>2019-03-21T14:42:47Z</time>
      </trkpt>
      <trkpt lat="43.68864" lon="2.99076">
        <ele>550.97</ele>
        <time>2019-03-21T14:43:02Z</time>
      </trkpt>
      <trkpt lat="43.68863" lon="2.99075">
        <ele>550.97</ele>
        <time>2019-03-21T14:43:34Z</time>
      </trkpt>
      <trkpt lat="43.68866" lon="2.99076">
        <ele>550.97</ele>
        <time>2019-03-21T14:44:05Z</time>
      </trkpt>
      <trkpt lat="43.68866" lon="2.99074">
        <ele>550.97</ele>
        <time>2019-03-21T14:44:24Z</time>
      </trkpt>
      <trkpt lat="43.68868" lon="2.99073">
        <ele>550.97</ele>
        <time>2019-03-21T14:44:48Z</time>
      </trkpt>
      <trkpt lat="43.6887" lon="2.99074">
        <ele>550.97</ele>
        <time>2019-03-21T14:45:08Z</time>
      </trkpt>
      <trkpt lat="43.68878" lon="2.99069">
        <ele>550.97</ele>
        <time>2019-03-21T14:45:22Z</time>
      </trkpt>
      <trkpt lat="43.68881" lon="2.99068">
        <ele>551.45</ele>
        <time>2019-03-21T14:45:37Z</time>
      </trkpt>
      <trkpt lat="43.68883" lon="2.99069">
        <ele>551.45</ele>
        <time>2019-03-21T14:45:39Z</time>
      </trkpt>
      <trkpt lat="43.68893" lon="2.99067">
        <ele>551.45</ele>
        <time>2019-03-21T14:45:51Z</time>
      </trkpt>
      <trkpt lat="43.68895" lon="2.99074">
        <ele>551.93</ele>
        <time>2019-03-21T14:46:03Z</time>
      </trkpt>
      <trkpt lat="43.68895" lon="2.99079">
        <ele>550.97</ele>
        <time>2019-03-21T14:46:15Z</time>
      </trkpt>
      <trkpt lat="43.68893" lon="2.99081">
        <ele>550.01</ele>
        <time>2019-03-21T14:46:30Z</time>
      </trkpt>
      <trkpt lat="43.689" lon="2.99087">
        <ele>548.09</ele>
        <time>2019-03-21T14:46:46Z</time>
      </trkpt>
      <trkpt lat="43.68892" lon="2.99087">
        <ele>546.65</ele>
        <time>2019-03-21T14:47:03Z</time>
      </trkpt>
      <trkpt lat="43.68895" lon="2.99099">
        <ele>544.72</ele>
        <time>2019-03-21T14:47:16Z</time>
      </trkpt>
      <trkpt lat="43.68901" lon="2.99103">
        <ele>543.28</ele>
        <time>2019-03-21T14:47:31Z</time>
      </trkpt>
      <trkpt lat="43.68898" lon="2.99108">
        <ele>541.84</ele>
        <time>2019-03-21T14:47:42Z</time>
      </trkpt>
      <trkpt lat="43.68898" lon="2.99113">
        <ele>540.4</ele>
        <time>2019-03-21T14:47:53Z</time>
      </trkpt>
      <trkpt lat="43.689" lon="2.99114">
        <ele>538.48</ele>
        <time>2019-03-21T14:48:09Z</time>
      </trkpt>
      <trkpt lat="43.68899" lon="2.99117">
        <ele>536.07</ele>
        <time>2019-03-21T14:48:24Z</time>
      </trkpt>
      <trkpt lat="43.68901" lon="2.9912">
        <ele>535.11</ele>
        <time>2019-03-21T14:48:39Z</time>
      </trkpt>
      <trkpt lat="43.68899" lon="2.99123">
        <ele>533.67</ele>
        <time>2019-03-21T14:48:46Z</time>
      </trkpt>
      <trkpt lat="43.68896" lon="2.99127">
        <ele>531.75</ele>
        <time>2019-03-21T14:48:57Z</time>
      </trkpt>
      <trkpt lat="43.68894" lon="2.99128">
        <ele>529.82</ele>
        <time>2019-03-21T14:49:09Z</time>
      </trkpt>
      <trkpt lat="43.68888" lon="2.99123">
        <ele>527.9</ele>
        <time>2019-03-21T14:49:22Z</time>
      </trkpt>
      <trkpt lat="43.68885" lon="2.99121">
        <ele>526.94</ele>
        <time>2019-03-21T14:49:33Z</time>
      </trkpt>
      <trkpt lat="43.68884" lon="2.99123">
        <ele>525.98</ele>
        <time>2019-03-21T14:49:37Z</time>
      </trkpt>
      <trkpt lat="43.68882" lon="2.99127">
        <ele>524.54</ele>
        <time>2019-03-21T14:49:49Z</time>
      </trkpt>
      <trkpt lat="43.68877" lon="2.99131">
        <ele>521.65</ele>
        <time>2019-03-21T14:50:04Z</time>
      </trkpt>
      <trkpt lat="43.68872" lon="2.99134">
        <ele>519.73</ele>
        <time>2019-03-21T14:50:17Z</time>
      </trkpt>
      <trkpt lat="43.68869" lon="2.99133">
        <ele>518.77</ele>
        <time>2019-03-21T14:50:37Z</time>
      </trkpt>
      <trkpt lat="43.68867" lon="2.99133">
        <ele>516.85</ele>
        <time>2019-03-21T14:50:43Z</time>
      </trkpt>
      <trkpt lat="43.68862" lon="2.99132">
        <ele>515.88</ele>
        <time>2019-03-21T14:50:58Z</time>
      </trkpt>
      <trkpt lat="43.68857" lon="2.99135">
        <ele>513.96</ele>
        <time>2019-03-21T14:51:08Z</time>
      </trkpt>
      <trkpt lat="43.68855" lon="2.99136">
        <ele>513</ele>
        <time>2019-03-21T14:51:11Z</time>
      </trkpt>
      <trkpt lat="43.68848" lon="2.9913">
        <ele>511.08</ele>
        <time>2019-03-21T14:51:24Z</time>
      </trkpt>
      <trkpt lat="43.68843" lon="2.99125">
        <ele>508.67</ele>
        <time>2019-03-21T14:51:38Z</time>
      </trkpt>
      <trkpt lat="43.68835" lon="2.99125">
        <ele>506.27</ele>
        <time>2019-03-21T14:51:53Z</time>
      </trkpt>
      <trkpt lat="43.68829" lon="2.99127">
        <ele>504.83</ele>
        <time>2019-03-21T14:52:08Z</time>
      </trkpt>
      <trkpt lat="43.68831" lon="2.9913">
        <ele>504.35</ele>
        <time>2019-03-21T14:52:19Z</time>
      </trkpt>
      <trkpt lat="43.68833" lon="2.99132">
        <ele>502.43</ele>
        <time>2019-03-21T14:52:31Z</time>
      </trkpt>
      <trkpt lat="43.68837" lon="2.99131">
        <ele>500.98</ele>
        <time>2019-03-21T14:52:42Z</time>
      </trkpt>
      <trkpt lat="43.68835" lon="2.99133">
        <ele>499.54</ele>
        <time>2019-03-21T14:52:54Z</time>
      </trkpt>
      <trkpt lat="43.68829" lon="2.99138">
        <ele>498.1</ele>
        <time>2019-03-21T14:53:08Z</time>
      </trkpt>
      <trkpt lat="43.68825" lon="2.99138">
        <ele>496.18</ele>
        <time>2019-03-21T14:53:24Z</time>
      </trkpt>
      <trkpt lat="43.68825" lon="2.99143">
        <ele>493.77</ele>
        <time>2019-03-21T14:53:35Z</time>
      </trkpt>
      <trkpt lat="43.68825" lon="2.9915">
        <ele>491.37</ele>
        <time>2019-03-21T14:53:48Z</time>
      </trkpt>
      <trkpt lat="43.6882" lon="2.99153">
        <ele>489.93</ele>
        <time>2019-03-21T14:54:01Z</time>
      </trkpt>
      <trkpt lat="43.68815" lon="2.9916">
        <ele>487.53</ele>
        <time>2019-03-21T14:54:13Z</time>
      </trkpt>
      <trkpt lat="43.68813" lon="2.99156">
        <ele>487.05</ele>
        <time>2019-03-21T14:54:28Z</time>
      </trkpt>
      <trkpt lat="43.6881" lon="2.99153">
        <ele>484.16</ele>
        <time>2019-03-21T14:54:40Z</time>
      </trkpt>
      <trkpt lat="43.688" lon="2.99145">
        <ele>482.72</ele>
        <time>2019-03-21T14:54:55Z</time>
      </trkpt>
      <trkpt lat="43.68795" lon="2.9914">
        <ele>481.76</ele>
        <time>2019-03-21T14:55:10Z</time>
      </trkpt>
      <trkpt lat="43.68791" lon="2.99138">
        <ele>479.35</ele>
        <time>2019-03-21T14:55:20Z</time>
      </trkpt>
      <trkpt lat="43.68785" lon="2.99138">
        <ele>476.95</ele>
        <time>2019-03-21T14:55:32Z</time>
      </trkpt>
      <trkpt lat="43.6878" lon="2.99139">
        <ele>475.03</ele>
        <time>2019-03-21T14:55:41Z</time>
      </trkpt>
      <trkpt lat="43.68775" lon="2.99133">
        <ele>473.59</ele>
        <time>2019-03-21T14:55:55Z</time>
      </trkpt>
      <trkpt lat="43.6877" lon="2.99131">
        <ele>471.18</ele>
        <time>2019-03-21T14:56:09Z</time>
      </trkpt>
      <trkpt lat="43.68769" lon="2.99123">
        <ele>469.74</ele>
        <time>2019-03-21T14:56:21Z</time>
      </trkpt>
      <trkpt lat="43.68768" lon="2.99114">
        <ele>466.86</ele>
        <time>2019-03-21T14:56:39Z</time>
      </trkpt>
      <trkpt lat="43.68762" lon="2.99108">
        <ele>463.97</ele>
        <time>2019-03-21T14:56:54Z</time>
      </trkpt>
      <trkpt lat="43.68759" lon="2.99102">
        <ele>461.57</ele>
        <time>2019-03-21T14:57:08Z</time>
      </trkpt>
      <trkpt lat="43.68757" lon="2.99098">
        <ele>459.65</ele>
        <time>2019-03-21T14:57:24Z</time>
      </trkpt>
      <trkpt lat="43.68753" lon="2.99092">
        <ele>457.72</ele>
        <time>2019-03-21T14:57:38Z</time>
      </trkpt>
      <trkpt lat="43.68748" lon="2.99083">
        <ele>455.32</ele>
        <time>2019-03-21T14:57:51Z</time>
      </trkpt>
      <trkpt lat="43.68743" lon="2.99075">
        <ele>452.92</ele>
        <time>2019-03-21T14:58:08Z</time>
      </trkpt>
      <trkpt lat="43.68737" lon="2.99071">
        <ele>451</ele>
        <time>2019-03-21T14:58:20Z</time>
      </trkpt>
      <trkpt lat="43.6873" lon="2.99069">
        <ele>449.55</ele>
        <time>2019-03-21T14:58:33Z</time>
      </trkpt>
      <trkpt lat="43.68729" lon="2.99077">
        <ele>446.67</ele>
        <time>2019-03-21T14:58:47Z</time>
      </trkpt>
      <trkpt lat="43.6873" lon="2.99086">
        <ele>444.75</ele>
        <time>2019-03-21T14:59:02Z</time>
      </trkpt>
      <trkpt lat="43.68731" lon="2.99095">
        <ele>443.31</ele>
        <time>2019-03-21T14:59:15Z</time>
      </trkpt>
      <trkpt lat="43.68732" lon="2.99096">
        <ele>443.31</ele>
        <time>2019-03-21T14:59:20Z</time>
      </trkpt>
      <trkpt lat="43.68733" lon="2.99104">
        <ele>440.9</ele>
        <time>2019-03-21T14:59:35Z</time>
      </trkpt>
      <trkpt lat="43.68733" lon="2.99116">
        <ele>438.5</ele>
        <time>2019-03-21T14:59:54Z</time>
      </trkpt>
      <trkpt lat="43.68731" lon="2.99125">
        <ele>436.58</ele>
        <time>2019-03-21T15:00:09Z</time>
      </trkpt>
      <trkpt lat="43.6873" lon="2.99137">
        <ele>433.21</ele>
        <time>2019-03-21T15:00:24Z</time>
      </trkpt>
      <trkpt lat="43.68728" lon="2.99154">
        <ele>429.85</ele>
        <time>2019-03-21T15:00:42Z</time>
      </trkpt>
      <trkpt lat="43.68727" lon="2.99168">
        <ele>427.44</ele>
        <time>2019-03-21T15:01:00Z</time>
      </trkpt>
      <trkpt lat="43.68724" lon="2.99183">
        <ele>425.52</ele>
        <time>2019-03-21T15:01:14Z</time>
      </trkpt>
      <trkpt lat="43.68724" lon="2.99192">
        <ele>421.68</ele>
        <time>2019-03-21T15:01:29Z</time>
      </trkpt>
      <trkpt lat="43.6872" lon="2.99196">
        <ele>419.75</ele>
        <time>2019-03-21T15:01:43Z</time>
      </trkpt>
      <trkpt lat="43.68714" lon="2.99209">
        <ele>416.39</ele>
        <time>2019-03-21T15:02:00Z</time>
      </trkpt>
      <trkpt lat="43.68709" lon="2.99219">
        <ele>415.43</ele>
        <time>2019-03-21T15:02:15Z</time>
      </trkpt>
      <trkpt lat="43.68706" lon="2.9921">
        <ele>414.95</ele>
        <time>2019-03-21T15:02:30Z</time>
      </trkpt>
      <trkpt lat="43.68708" lon="2.99215">
        <ele>414.95</ele>
        <time>2019-03-21T15:02:58Z</time>
      </trkpt>
      <trkpt lat="43.6871" lon="2.99223">
        <ele>414.95</ele>
        <time>2019-03-21T15:03:15Z</time>
      </trkpt>
      <trkpt lat="43.68704" lon="2.99228">
        <ele>416.39</ele>
        <time>2019-03-21T15:03:29Z</time>
      </trkpt>
      <trkpt lat="43.68693" lon="2.99236">
        <ele>416.87</ele>
        <time>2019-03-21T15:03:40Z</time>
      </trkpt>
      <trkpt lat="43.6869" lon="2.99242">
        <ele>415.91</ele>
        <time>2019-03-21T15:03:42Z</time>
      </trkpt>
      <trkpt lat="43.68677" lon="2.99265">
        <ele>415.91</ele>
        <time>2019-03-21T15:04:01Z</time>
      </trkpt>
      <trkpt lat="43.68679" lon="2.99268">
        <ele>416.87</ele>
        <time>2019-03-21T15:04:18Z</time>
      </trkpt>
      <trkpt lat="43.68677" lon="2.99266">
        <ele>416.87</ele>
        <time>2019-03-21T15:04:37Z</time>
      </trkpt>
      <trkpt lat="43.68672" lon="2.99262">
        <ele>416.87</ele>
        <time>2019-03-21T15:05:03Z</time>
      </trkpt>
      <trkpt lat="43.68669" lon="2.99262">
        <ele>416.39</ele>
        <time>2019-03-21T15:05:35Z</time>
      </trkpt>
      <trkpt lat="43.6867" lon="2.9926">
        <ele>416.39</ele>
        <time>2019-03-21T15:05:57Z</time>
      </trkpt>
      <trkpt lat="43.68674" lon="2.99263">
        <ele>416.39</ele>
        <time>2019-03-21T15:06:30Z</time>
      </trkpt>
      <trkpt lat="43.68678" lon="2.99266">
        <ele>416.39</ele>
        <time>2019-03-21T15:07:08Z</time>
      </trkpt>
      <trkpt lat="43.68675" lon="2.99264">
        <ele>416.39</ele>
        <time>2019-03-21T15:07:40Z</time>
      </trkpt>
      <trkpt lat="43.68667" lon="2.99268">
        <ele>416.39</ele>
        <time>2019-03-21T15:07:59Z</time>
      </trkpt>
      <trkpt lat="43.68658" lon="2.99279">
        <ele>416.87</ele>
        <time>2019-03-21T15:08:14Z</time>
      </trkpt>
      <trkpt lat="43.68649" lon="2.9929">
        <ele>417.83</ele>
        <time>2019-03-21T15:08:28Z</time>
      </trkpt>
      <trkpt lat="43.68647" lon="2.99292">
        <ele>417.83</ele>
        <time>2019-03-21T15:08:31Z</time>
      </trkpt>
      <trkpt lat="43.68632" lon="2.99315">
        <ele>418.31</ele>
        <time>2019-03-21T15:08:50Z</time>
      </trkpt>
      <trkpt lat="43.68624" lon="2.99344">
        <ele>418.31</ele>
        <time>2019-03-21T15:09:08Z</time>
      </trkpt>
      <trkpt lat="43.68617" lon="2.99367">
        <ele>417.83</ele>
        <time>2019-03-21T15:09:26Z</time>
      </trkpt>
      <trkpt lat="43.68614" lon="2.99388">
        <ele>416.87</ele>
        <time>2019-03-21T15:09:44Z</time>
      </trkpt>
      <trkpt lat="43.68603" lon="2.99416">
        <ele>414.95</ele>
        <time>2019-03-21T15:10:01Z</time>
      </trkpt>
      <trkpt lat="43.68594" lon="2.99423">
        <ele>413.02</ele>
        <time>2019-03-21T15:10:11Z</time>
      </trkpt>
      <trkpt lat="43.68578" lon="2.99444">
        <ele>411.1</ele>
        <time>2019-03-21T15:10:24Z</time>
      </trkpt>
      <trkpt lat="43.68576" lon="2.99446">
        <ele>411.1</ele>
        <time>2019-03-21T15:10:26Z</time>
      </trkpt>
      <trkpt lat="43.68559" lon="2.99458">
        <ele>409.66</ele>
        <time>2019-03-21T15:10:42Z</time>
      </trkpt>
      <trkpt lat="43.68543" lon="2.99463">
        <ele>408.7</ele>
        <time>2019-03-21T15:10:56Z</time>
      </trkpt>
      <trkpt lat="43.68524" lon="2.99467">
        <ele>408.7</ele>
        <time>2019-03-21T15:11:13Z</time>
      </trkpt>
      <trkpt lat="43.68516" lon="2.99472">
        <ele>408.7</ele>
        <time>2019-03-21T15:11:23Z</time>
      </trkpt>
      <trkpt lat="43.68497" lon="2.99472">
        <ele>408.22</ele>
        <time>2019-03-21T15:11:38Z</time>
      </trkpt>
      <trkpt lat="43.6849" lon="2.99473">
        <ele>408.22</ele>
        <time>2019-03-21T15:11:45Z</time>
      </trkpt>
      <trkpt lat="43.68484" lon="2.99476">
        <ele>407.74</ele>
        <time>2019-03-21T15:11:51Z</time>
      </trkpt>
      <trkpt lat="43.68471" lon="2.99475">
        <ele>406.77</ele>
        <time>2019-03-21T15:12:06Z</time>
      </trkpt>
      <trkpt lat="43.68467" lon="2.99475">
        <ele>405.33</ele>
        <time>2019-03-21T15:12:10Z</time>
      </trkpt>
      <trkpt lat="43.68454" lon="2.99474">
        <ele>406.29</ele>
        <time>2019-03-21T15:12:25Z</time>
      </trkpt>
      <trkpt lat="43.68438" lon="2.99463">
        <ele>405.33</ele>
        <time>2019-03-21T15:12:35Z</time>
      </trkpt>
      <trkpt lat="43.68429" lon="2.99461">
        <ele>404.85</ele>
        <time>2019-03-21T15:12:43Z</time>
      </trkpt>
      <trkpt lat="43.6841" lon="2.99454">
        <ele>403.41</ele>
        <time>2019-03-21T15:13:00Z</time>
      </trkpt>
      <trkpt lat="43.68403" lon="2.99454">
        <ele>402.45</ele>
        <time>2019-03-21T15:13:11Z</time>
      </trkpt>
      <trkpt lat="43.68375" lon="2.9945">
        <ele>401.49</ele>
        <time>2019-03-21T15:13:28Z</time>
      </trkpt>
      <trkpt lat="43.68368" lon="2.99433">
        <ele>400.53</ele>
        <time>2019-03-21T15:13:45Z</time>
      </trkpt>
      <trkpt lat="43.68348" lon="2.99419">
        <ele>400.53</ele>
        <time>2019-03-21T15:14:00Z</time>
      </trkpt>
      <trkpt lat="43.68336" lon="2.99418">
        <ele>400.53</ele>
        <time>2019-03-21T15:14:11Z</time>
      </trkpt>
      <trkpt lat="43.68331" lon="2.9942">
        <ele>400.53</ele>
        <time>2019-03-21T15:14:16Z</time>
      </trkpt>
      <trkpt lat="43.68327" lon="2.99421">
        <ele>400.53</ele>
        <time>2019-03-21T15:14:19Z</time>
      </trkpt>
      <trkpt lat="43.68325" lon="2.99421">
        <ele>400.53</ele>
        <time>2019-03-21T15:14:21Z</time>
      </trkpt>
      <trkpt lat="43.68315" lon="2.99422">
        <ele>400.53</ele>
        <time>2019-03-21T15:14:28Z</time>
      </trkpt>
      <trkpt lat="43.68302" lon="2.99426">
        <ele>401.97</ele>
        <time>2019-03-21T15:14:38Z</time>
      </trkpt>
      <trkpt lat="43.68301" lon="2.99427">
        <ele>401.97</ele>
        <time>2019-03-21T15:14:39Z</time>
      </trkpt>
      <trkpt lat="43.68298" lon="2.99428">
        <ele>401.97</ele>
        <time>2019-03-21T15:14:42Z</time>
      </trkpt>
      <trkpt lat="43.68287" lon="2.99433">
        <ele>402.45</ele>
        <time>2019-03-21T15:14:52Z</time>
      </trkpt>
      <trkpt lat="43.68281" lon="2.99438">
        <ele>402.45</ele>
        <time>2019-03-21T15:14:58Z</time>
      </trkpt>
      <trkpt lat="43.68279" lon="2.99439">
        <ele>402.45</ele>
        <time>2019-03-21T15:15:00Z</time>
      </trkpt>
      <trkpt lat="43.68275" lon="2.99442">
        <ele>402.45</ele>
        <time>2019-03-21T15:15:04Z</time>
      </trkpt>
      <trkpt lat="43.68261" lon="2.99456">
        <ele>402.45</ele>
        <time>2019-03-21T15:15:18Z</time>
      </trkpt>
      <trkpt lat="43.68253" lon="2.99468">
        <ele>401.01</ele>
        <time>2019-03-21T15:15:26Z</time>
      </trkpt>
      <trkpt lat="43.68245" lon="2.99487">
        <ele>400.05</ele>
        <time>2019-03-21T15:15:40Z</time>
      </trkpt>
      <trkpt lat="43.68245" lon="2.99488">
        <ele>400.05</ele>
        <time>2019-03-21T15:15:41Z</time>
      </trkpt>
      <trkpt lat="43.68245" lon="2.99489">
        <ele>400.05</ele>
        <time>2019-03-21T15:15:42Z</time>
      </trkpt>
      <trkpt lat="43.68244" lon="2.99511">
        <ele>399.08</ele>
        <time>2019-03-21T15:15:54Z</time>
      </trkpt>
      <trkpt lat="43.68244" lon="2.99518">
        <ele>399.08</ele>
        <time>2019-03-21T15:15:58Z</time>
      </trkpt>
      <trkpt lat="43.68244" lon="2.99522">
        <ele>398.6</ele>
        <time>2019-03-21T15:16:00Z</time>
      </trkpt>
      <trkpt lat="43.68242" lon="2.99536">
        <ele>398.6</ele>
        <time>2019-03-21T15:16:07Z</time>
      </trkpt>
      <trkpt lat="43.68243" lon="2.99542">
        <ele>398.6</ele>
        <time>2019-03-21T15:16:11Z</time>
      </trkpt>
      <trkpt lat="43.68243" lon="2.99548">
        <ele>398.6</ele>
        <time>2019-03-21T15:16:15Z</time>
      </trkpt>
      <trkpt lat="43.68241" lon="2.99563">
        <ele>398.6</ele>
        <time>2019-03-21T15:16:25Z</time>
      </trkpt>
      <trkpt lat="43.6824" lon="2.99569">
        <ele>398.6</ele>
        <time>2019-03-21T15:16:29Z</time>
      </trkpt>
      <trkpt lat="43.68241" lon="2.99574">
        <ele>398.6</ele>
        <time>2019-03-21T15:16:33Z</time>
      </trkpt>
      <trkpt lat="43.68242" lon="2.99583">
        <ele>398.12</ele>
        <time>2019-03-21T15:16:38Z</time>
      </trkpt>
      <trkpt lat="43.68243" lon="2.99594">
        <ele>398.12</ele>
        <time>2019-03-21T15:16:44Z</time>
      </trkpt>
      <trkpt lat="43.68244" lon="2.99599">
        <ele>398.12</ele>
        <time>2019-03-21T15:16:47Z</time>
      </trkpt>
      <trkpt lat="43.68247" lon="2.99609">
        <ele>398.12</ele>
        <time>2019-03-21T15:16:54Z</time>
      </trkpt>
      <trkpt lat="43.68248" lon="2.99619">
        <ele>398.12</ele>
        <time>2019-03-21T15:17:01Z</time>
      </trkpt>
      <trkpt lat="43.68248" lon="2.99628">
        <ele>397.64</ele>
        <time>2019-03-21T15:17:06Z</time>
      </trkpt>
      <trkpt lat="43.68248" lon="2.99634">
        <ele>397.64</ele>
        <time>2019-03-21T15:17:09Z</time>
      </trkpt>
      <trkpt lat="43.6825" lon="2.99652">
        <ele>396.68</ele>
        <time>2019-03-21T15:17:18Z</time>
      </trkpt>
      <trkpt lat="43.68252" lon="2.99661">
        <ele>396.2</ele>
        <time>2019-03-21T15:17:23Z</time>
      </trkpt>
      <trkpt lat="43.68255" lon="2.99677">
        <ele>396.2</ele>
        <time>2019-03-21T15:17:32Z</time>
      </trkpt>
      <trkpt lat="43.68257" lon="2.99689">
        <ele>396.2</ele>
        <time>2019-03-21T15:17:39Z</time>
      </trkpt>
      <trkpt lat="43.68259" lon="2.99698">
        <ele>395.72</ele>
        <time>2019-03-21T15:17:45Z</time>
      </trkpt>
      <trkpt lat="43.68261" lon="2.99722">
        <ele>395.24</ele>
        <time>2019-03-21T15:17:58Z</time>
      </trkpt>
      <trkpt lat="43.6826" lon="2.99725">
        <ele>394.76</ele>
        <time>2019-03-21T15:18:00Z</time>
      </trkpt>
      <trkpt lat="43.68256" lon="2.99735">
        <ele>394.76</ele>
        <time>2019-03-21T15:18:07Z</time>
      </trkpt>
      <trkpt lat="43.68256" lon="2.99751">
        <ele>394.28</ele>
        <time>2019-03-21T15:18:14Z</time>
      </trkpt>
      <trkpt lat="43.68265" lon="2.99777">
        <ele>394.28</ele>
        <time>2019-03-21T15:18:31Z</time>
      </trkpt>
      <trkpt lat="43.6827" lon="2.99803">
        <ele>394.28</ele>
        <time>2019-03-21T15:18:48Z</time>
      </trkpt>
      <trkpt lat="43.6827" lon="2.99807">
        <ele>394.28</ele>
        <time>2019-03-21T15:18:50Z</time>
      </trkpt>
      <trkpt lat="43.68269" lon="2.99816">
        <ele>394.28</ele>
        <time>2019-03-21T15:18:54Z</time>
      </trkpt>
      <trkpt lat="43.68267" lon="2.99835">
        <ele>393.8</ele>
        <time>2019-03-21T15:19:06Z</time>
      </trkpt>
      <trkpt lat="43.68264" lon="2.99847">
        <ele>393.32</ele>
        <time>2019-03-21T15:19:15Z</time>
      </trkpt>
      <trkpt lat="43.68258" lon="2.99858">
        <ele>394.76</ele>
        <time>2019-03-21T15:19:25Z</time>
      </trkpt>
      <trkpt lat="43.68256" lon="2.99863">
        <ele>393.8</ele>
        <time>2019-03-21T15:19:29Z</time>
      </trkpt>
      <trkpt lat="43.68245" lon="2.99882">
        <ele>393.32</ele>
        <time>2019-03-21T15:19:45Z</time>
      </trkpt>
      <trkpt lat="43.68234" lon="2.99901">
        <ele>392.84</ele>
        <time>2019-03-21T15:19:58Z</time>
      </trkpt>
      <trkpt lat="43.68228" lon="2.99912">
        <ele>392.84</ele>
        <time>2019-03-21T15:20:13Z</time>
      </trkpt>
      <trkpt lat="43.68228" lon="2.99914">
        <ele>392.84</ele>
        <time>2019-03-21T15:20:16Z</time>
      </trkpt>
      <trkpt lat="43.68218" lon="2.99927">
        <ele>392.84</ele>
        <time>2019-03-21T15:20:32Z</time>
      </trkpt>
      <trkpt lat="43.68212" lon="2.99933">
        <ele>392.84</ele>
        <time>2019-03-21T15:20:45Z</time>
      </trkpt>
      <trkpt lat="43.6821" lon="2.99935">
        <ele>392.84</ele>
        <time>2019-03-21T15:20:51Z</time>
      </trkpt>
      <trkpt lat="43.68197" lon="2.99949">
        <ele>392.84</ele>
        <time>2019-03-21T15:21:06Z</time>
      </trkpt>
      <trkpt lat="43.68192" lon="2.99955">
        <ele>392.84</ele>
        <time>2019-03-21T15:21:12Z</time>
      </trkpt>
      <trkpt lat="43.6818" lon="2.99974">
        <ele>392.84</ele>
        <time>2019-03-21T15:21:29Z</time>
      </trkpt>
      <trkpt lat="43.68169" lon="2.99994">
        <ele>392.84</ele>
        <time>2019-03-21T15:21:44Z</time>
      </trkpt>
      <trkpt lat="43.68168" lon="2.99997">
        <ele>392.84</ele>
        <time>2019-03-21T15:21:46Z</time>
      </trkpt>
      <trkpt lat="43.68157" lon="3.00013">
        <ele>394.28</ele>
        <time>2019-03-21T15:22:00Z</time>
      </trkpt>
      <trkpt lat="43.6814" lon="3.00026">
        <ele>394.28</ele>
        <time>2019-03-21T15:22:16Z</time>
      </trkpt>
      <trkpt lat="43.68122" lon="3.00034">
        <ele>394.28</ele>
        <time>2019-03-21T15:22:32Z</time>
      </trkpt>
      <trkpt lat="43.68108" lon="3.00046">
        <ele>394.76</ele>
        <time>2019-03-21T15:22:48Z</time>
      </trkpt>
      <trkpt lat="43.68105" lon="3.00053">
        <ele>394.76</ele>
        <time>2019-03-21T15:22:53Z</time>
      </trkpt>
      <trkpt lat="43.681" lon="3.00067">
        <ele>394.76</ele>
        <time>2019-03-21T15:23:04Z</time>
      </trkpt>
      <trkpt lat="43.68099" lon="3.00085">
        <ele>395.24</ele>
        <time>2019-03-21T15:23:15Z</time>
      </trkpt>
      <trkpt lat="43.68098" lon="3.00111">
        <ele>395.72</ele>
        <time>2019-03-21T15:23:31Z</time>
      </trkpt>
      <trkpt lat="43.68105" lon="3.00137">
        <ele>395.72</ele>
        <time>2019-03-21T15:23:48Z</time>
      </trkpt>
      <trkpt lat="43.68116" lon="3.00153">
        <ele>396.68</ele>
        <time>2019-03-21T15:24:02Z</time>
      </trkpt>
      <trkpt lat="43.68132" lon="3.00171">
        <ele>397.16</ele>
        <time>2019-03-21T15:24:19Z</time>
      </trkpt>
      <trkpt lat="43.68133" lon="3.00172">
        <ele>397.16</ele>
        <time>2019-03-21T15:24:20Z</time>
      </trkpt>
      <trkpt lat="43.68142" lon="3.0019">
        <ele>395.72</ele>
        <time>2019-03-21T15:24:35Z</time>
      </trkpt>
      <trkpt lat="43.68143" lon="3.00192">
        <ele>395.72</ele>
        <time>2019-03-21T15:24:36Z</time>
      </trkpt>
      <trkpt lat="43.68152" lon="3.00218">
        <ele>393.8</ele>
        <time>2019-03-21T15:24:53Z</time>
      </trkpt>
      <trkpt lat="43.68156" lon="3.00242">
        <ele>389.95</ele>
        <time>2019-03-21T15:25:06Z</time>
      </trkpt>
      <trkpt lat="43.68157" lon="3.00244">
        <ele>394.28</ele>
        <time>2019-03-21T15:25:07Z</time>
      </trkpt>
      <trkpt lat="43.68157" lon="3.00252">
        <ele>392.84</ele>
        <time>2019-03-21T15:25:12Z</time>
      </trkpt>
      <trkpt lat="43.68162" lon="3.00276">
        <ele>389.47</ele>
        <time>2019-03-21T15:25:30Z</time>
      </trkpt>
      <trkpt lat="43.68164" lon="3.00286">
        <ele>389.47</ele>
        <time>2019-03-21T15:25:38Z</time>
      </trkpt>
      <trkpt lat="43.68164" lon="3.00292">
        <ele>388.99</ele>
        <time>2019-03-21T15:25:42Z</time>
      </trkpt>
      <trkpt lat="43.68163" lon="3.003">
        <ele>388.51</ele>
        <time>2019-03-21T15:25:46Z</time>
      </trkpt>
      <trkpt lat="43.68153" lon="3.0032">
        <ele>387.07</ele>
        <time>2019-03-21T15:26:03Z</time>
      </trkpt>
      <trkpt lat="43.6815" lon="3.00328">
        <ele>386.11</ele>
        <time>2019-03-21T15:26:08Z</time>
      </trkpt>
      <trkpt lat="43.68137" lon="3.0035">
        <ele>385.15</ele>
        <time>2019-03-21T15:26:25Z</time>
      </trkpt>
      <trkpt lat="43.68123" lon="3.00364">
        <ele>382.74</ele>
        <time>2019-03-21T15:26:40Z</time>
      </trkpt>
      <trkpt lat="43.68118" lon="3.00372">
        <ele>382.26</ele>
        <time>2019-03-21T15:26:46Z</time>
      </trkpt>
      <trkpt lat="43.68114" lon="3.00375">
        <ele>381.78</ele>
        <time>2019-03-21T15:26:50Z</time>
      </trkpt>
      <trkpt lat="43.6811" lon="3.0038">
        <ele>381.3</ele>
        <time>2019-03-21T15:26:54Z</time>
      </trkpt>
      <trkpt lat="43.68106" lon="3.00394">
        <ele>380.82</ele>
        <time>2019-03-21T15:27:05Z</time>
      </trkpt>
      <trkpt lat="43.68118" lon="3.00405">
        <ele>380.82</ele>
        <time>2019-03-21T15:27:18Z</time>
      </trkpt>
      <trkpt lat="43.68126" lon="3.00415">
        <ele>381.78</ele>
        <time>2019-03-21T15:27:27Z</time>
      </trkpt>
      <trkpt lat="43.68139" lon="3.00431">
        <ele>381.78</ele>
        <time>2019-03-21T15:27:44Z</time>
      </trkpt>
      <trkpt lat="43.6815" lon="3.00445">
        <ele>382.74</ele>
        <time>2019-03-21T15:27:58Z</time>
      </trkpt>
      <trkpt lat="43.68154" lon="3.00448">
        <ele>382.74</ele>
        <time>2019-03-21T15:28:04Z</time>
      </trkpt>
      <trkpt lat="43.68164" lon="3.0044">
        <ele>384.66</ele>
        <time>2019-03-21T15:28:18Z</time>
      </trkpt>
    </trkseg>
  </trk>
</gpx>